[[[{"header":{"parameterUnit":"kt","parameterCategory":2,"dx":1,"dy":1,"la1":29.285339999999998,"la2":30.599998999999997,"lo1":-89.70041500000002,"lo2":-87.6738589999976,"nx":112,"ny":82,"refTime":"2022-10-06T00:00:00:Z","depth":0,"parameterNumber":1,"parameterNumberName":"U-component_of_WINDS"},"data":[3.1055,3.3319,0.0,3.5272,3.5441,0.0,3.1948,0.0,3.1749,0.0,0.0,0.0,0.0,0.0,0.0,0.0,0.0,0.0,0.0,3.5678,0.0,0.0,0.0,0.0,0.0,0.0,0.0,0.0,0.0,0.0,0.0,0.0,5.1577,5.1577,5.1577,5.1577,5.1577,5.1577,5.1577,5.1577,5.1577,5.1577,5.1577,5.1577,5.1577,5.1552,5.3165,5.4145,5.4907,5.6622,5.8662,6.0694,5.9683,6.1423,6.4229,6.1444,6.166,6.341,6.4561,6.5534,6.6067,6.6067,6.6491,6.7175,6.775,6.8008,6.8136,6.8859,6.9015,6.9015,6.9015,6.9015,6.9015,6.9015,6.9015,6.9015,6.9015,6.9015,6.9015,6.9015,6.9015,6.916,6.9596,6.9684,6.9538,6.9102,6.9015,6.9015,6.9015,6.9015,6.9015,6.9015,6.9015,6.9218,6.9655,7.0091,7.0353,7.0353,7.0353,7.0353,7.0353,7.0353,6.9509,6.7764,6.8171,6.6921,6.3867,6.4332,6.3896,6.2646,6.2646,6.3082,0.0,0.0,3.391,3.3399,0.0,0.0,0.0,0.0,0.0,0.0,0.0,0.0,0.0,0.0,0.0,0.0,0.0,0.0,0.0,0.0,0.0,0.0,0.0,0.0,0.0,0.0,0.0,0.0,0.0,0.0,0.0,5.1577,5.1577,5.1577,5.1577,5.1577,5.1577,5.1577,5.1577,5.1577,5.1577,5.1577,5.1577,5.1577,5.1577,5.1552,5.2562,5.3425,5.4043,5.5633,5.7788,5.9977,5.8792,6.0522,6.3408,6.0829,6.1816,6.4479,6.5773,6.6623,6.7044,6.6359,6.6199,6.6331,6.7592,6.7592,6.7333,6.8605,6.9015,6.9015,6.9015,6.9015,6.9015,6.9015,6.9015,6.9015,6.9015,6.9015,6.9015,6.9015,6.9015,6.9015,6.9015,6.9015,6.9015,6.9015,6.9015,6.9015,6.9015,6.9015,6.9015,6.9015,6.9015,6.9015,6.9015,6.9015,6.9015,6.9015,6.9015,6.9015,6.9015,6.9015,6.8608,6.7706,6.7677,6.663,6.4507,6.4507,6.3838,6.2587,6.2587,6.3024,2.7036,0.0,3.0252,2.9862,3.112,3.2119,3.0354,2.9917,2.9651,2.8854,0.0,0.0,0.0,0.0,0.0,0.0,0.0,0.0,0.0,0.0,0.0,0.0,0.0,0.0,0.0,0.0,0.0,0.0,0.0,0.0,5.1185,5.1577,5.1577,5.1577,5.1577,5.1577,5.1577,5.1577,5.1552,5.1504,5.1552,5.1552,5.1504,5.1552,5.1577,5.1577,5.1577,5.2431,5.3915,5.5509,5.7258,5.9005,6.0005,6.1083,6.1733,5.7716,5.8155,6.0609,6.0609,6.1844,6.3244,6.1444,6.0728,6.1444,6.4885,6.475,6.4207,6.7879,6.9015,6.9015,6.9015,6.9015,6.9015,6.9015,6.9015,6.9015,6.9015,6.9015,6.9015,6.9015,6.9015,6.9015,6.9015,6.9015,6.9015,6.9015,6.9015,6.9015,6.9015,6.9015,6.9015,6.9015,6.9015,6.9015,6.9015,6.9015,6.9015,6.9015,6.9015,6.9015,6.9015,6.9015,6.9015,6.9015,6.9015,6.8346,6.7008,6.7008,6.6368,6.5118,6.5205,6.5205,2.5895,2.8151,3.0179,3.0491,3.2085,3.2821,3.0486,2.9025,2.8095,2.7867,2.6665,0.0,0.0,0.0,0.0,0.0,0.0,3.1653,0.0,3.3283,0.0,0.0,0.0,0.0,0.0,0.0,0.0,0.0,0.0,4.5928,5.1283,5.1577,5.1577,5.1577,5.1577,5.1577,5.1577,5.1577,5.1028,5.0223,5.1053,5.1004,5.0247,5.1053,5.1577,5.1577,5.1577,5.2431,5.3786,5.3165,5.502,5.829,5.6084,5.6516,5.8435,5.6771,5.8155,6.0609,6.0609,6.2688,6.5317,6.475,6.3659,6.2827,6.3796,6.475,6.5584,6.6567,6.7879,6.9015,6.9015,6.9015,6.9015,6.9015,6.9015,6.9015,6.9015,6.9015,6.9015,6.9015,6.9015,6.9015,6.9015,6.9015,6.9015,6.9015,6.9015,6.9015,6.9015,6.9015,6.9015,6.9015,6.9015,6.9015,6.9015,6.9015,6.9015,6.9015,6.9015,6.9015,6.9015,6.9015,6.9015,6.9015,6.9015,6.8346,6.7008,6.7008,6.6368,6.5147,6.7066,6.7415,2.4493,2.6638,2.8607,2.8634,3.049,3.158,2.9351,2.8064,2.7175,2.6595,0.0,0.0,0.0,0.0,0.0,0.0,2.8959,0.0,0.0,0.0,3.6588,0.0,0.0,0.0,0.0,0.0,0.0,0.0,4.6733,4.6001,4.9906,5.0101,5.0101,5.0101,5.0101,5.0101,5.0101,5.0101,4.9759,4.9125,4.9784,4.9759,4.9149,4.9808,5.0101,5.0125,5.054,5.1343,5.2122,5.2362,5.404,5.6025,5.2487,5.2282,5.4179,5.4721,5.6237,5.8381,5.9988,6.1586,6.2854,6.3521,6.2548,6.1327,6.2967,6.407,6.5317,6.6857,6.8136,6.9015,6.9015,6.9015,6.9015,6.9015,6.9015,6.9015,6.9015,6.9015,6.9015,6.9015,6.9015,6.9015,6.9015,6.9015,6.9015,6.9015,6.9015,6.9015,6.9015,6.9015,6.9015,6.9015,6.9015,6.9015,6.9015,6.9015,6.9015,6.9015,6.9015,6.9015,6.9015,6.9015,6.9015,6.9015,6.9015,6.8637,6.7851,6.7851,6.7473,6.6775,6.8317,6.8608,2.3009,2.4603,2.6251,2.5662,2.7355,2.8978,2.7665,0.0,2.691,2.6068,0.0,2.4116,2.3729,0.0,0.0,0.0,0.0,0.0,3.0064,3.4511,3.7635,0.0,0.0,0.0,0.0,4.1761,4.4333,4.924,4.593,4.4936,4.81,4.8246,4.8246,4.8246,4.8246,4.8246,4.8246,4.8246,4.8198,4.8076,4.8198,4.8198,4.8076,4.8198,4.8246,4.8295,4.9198,4.9589,4.9791,5.2253,5.3172,5.2866,4.9585,4.8978,5.0028,5.2224,5.364,5.4997,5.8676,5.9023,5.8091,5.9555,5.9169,5.8633,6.1477,6.2567,6.3391,6.6749,6.7889,6.8016,6.8016,6.8016,6.8016,6.8298,6.8414,6.853,6.8782,6.8898,6.9015,6.9015,6.9015,6.8928,6.8637,6.8579,6.8579,6.8579,6.8579,6.8579,6.8579,6.8579,6.8579,6.8579,6.8579,6.8579,6.8579,6.8579,6.8579,6.8579,6.8579,6.8579,6.8579,6.8579,6.8579,6.8579,6.8724,6.8782,6.8782,6.8957,6.8869,6.8579,6.8579,6.8579,2.1724,2.3178,2.4592,2.4462,2.5399,2.6555,0.0,0.0,0.0,2.9869,2.8855,2.7957,3.014,0.0,0.0,0.0,0.0,0.0,0.0,3.6855,0.0,0.0,0.0,0.0,0.0,4.2185,4.4257,4.8214,4.6458,4.6118,4.8096,4.8246,4.8246,4.8246,4.8246,4.8246,4.8246,4.8246,4.7807,4.6977,4.7832,4.7807,4.6977,4.7856,4.8246,4.8271,4.8442,4.8539,4.8564,4.9138,4.9338,4.9237,4.9424,4.9589,5.0028,5.2224,5.3176,5.3657,5.5213,5.6457,5.7248,5.6175,5.7501,5.9119,5.6969,5.7388,5.8712,5.9363,6.0696,6.1898,6.1898,6.1898,6.2285,6.3484,6.4624,6.5769,6.7139,6.8259,6.9015,6.9015,6.9015,6.8346,6.6223,6.5874,6.5874,6.5874,6.5874,6.5874,6.5874,6.5874,6.5874,6.5874,6.5874,6.5874,6.5874,6.5874,6.5874,6.5874,6.5874,6.5874,6.5874,6.5874,6.5874,6.5874,6.6863,6.7386,6.7386,6.8491,6.7939,6.5874,6.5874,6.5874,2.075,2.1545,2.2653,2.2546,2.3109,0.0,0.0,2.3923,2.4293,2.6654,2.6159,2.5864,2.7699,2.9009,2.9619,2.9103,3.3112,3.6356,3.7018,0.0,0.0,0.0,0.0,0.0,3.949,4.0707,4.2341,4.4225,4.4683,4.5363,4.6514,4.6611,4.6611,4.6611,4.6611,4.6611,4.6611,4.6611,4.6343,4.5806,4.6343,4.6318,4.583,4.6367,4.6611,4.6514,4.7197,4.7441,4.749,4.8027,4.7587,4.6539,4.7148,4.7368,4.7612,4.9833,5.0638,5.0931,5.3078,5.4482,5.5084,5.4728,5.5808,5.6864,5.5157,5.5948,5.7521,5.8572,5.9996,6.144,6.144,6.21,6.2878,6.3674,6.4404,6.5108,6.5927,6.6601,6.7066,6.7066,6.7066,6.6659,6.535,6.5118,6.5118,6.5118,6.5118,6.5118,6.5118,6.5118,6.5118,6.5118,6.5118,6.5118,6.5118,6.5118,6.5118,6.5118,6.5118,6.5118,6.5118,6.5118,6.5118,6.5118,6.5728,6.6048,6.6048,6.5921,6.4774,6.2754,6.2754,6.2754,2.0101,2.0412,2.1091,2.0691,2.0921,0.0,2.1558,2.1928,2.2623,2.3731,2.4006,2.4343,2.5428,2.7629,2.9137,2.8901,3.2982,3.7016,0.0,0.0,0.0,0.0,0.0,0.0,3.7244,3.886,3.9696,3.9424,4.2131,4.4141,4.4884,4.4859,4.4859,4.4859,4.4859,4.4859,4.4859,4.4859,4.4859,4.4859,4.4859,4.4859,4.4859,4.4859,4.4859,4.4908,4.5928,4.6318,4.6392,4.7246,4.6563,4.4859,4.4859,4.4859,4.5127,4.7441,4.8124,4.8368,5.137,5.2273,5.2249,5.3103,5.3795,5.4081,5.3828,5.5122,5.6851,5.8153,5.9453,6.0472,6.0472,6.1377,6.2541,6.2812,6.3132,6.3425,6.3696,6.4258,6.4436,6.3945,6.4125,6.4361,6.4361,6.4096,6.3978,6.4361,6.4096,6.3978,6.3978,6.4214,6.4243,6.3978,6.4243,6.4361,6.4361,6.4096,6.3978,6.4361,6.4096,6.4096,6.4361,6.4361,6.4361,6.4361,6.4361,6.436,6.4205,6.2287,6.0724,5.9453,5.9453,5.9453,1.9984,2.0127,2.0574,1.9974,1.9067,0.0,2.2775,2.2801,2.3539,0.0,2.9605,3.0268,3.2118,3.2828,3.3627,3.5532,3.6335,3.6627,3.6186,0.0,0.0,0.0,0.0,0.0,3.6371,3.7254,3.719,3.5669,3.9991,4.3389,4.4859,4.4859,4.4859,4.4859,4.4859,4.4859,4.4859,4.4859,4.4859,4.4859,4.4859,4.4859,4.4859,4.4859,4.4859,4.4859,4.4981,4.5147,4.5054,4.5151,4.5054,4.4859,4.4859,4.4859,4.5127,4.7441,4.7636,4.7148,4.9345,4.954,4.8808,4.893,5.0538,5.2307,5.0793,5.2088,5.404,5.2779,5.2539,5.2804,5.2804,5.2912,5.3413,5.4789,5.5928,5.7309,5.8689,6.1072,6.223,6.0034,6.0716,6.1602,6.1602,6.0485,6.0108,6.1459,6.0485,5.9611,5.9611,6.0859,6.1118,5.9729,6.0859,6.1602,6.1602,6.0369,6.0224,6.1602,6.0369,6.0224,6.1602,6.1602,6.1602,6.1602,6.1602,6.1492,6.116,5.8348,5.6999,5.6752,5.6752,5.6752,1.9334,1.9841,2.043,1.94,0.0,0.0,2.1297,2.1133,2.1629,0.0,2.7202,2.7827,2.971,3.1021,3.2095,3.3047,3.2873,3.3288,3.4836,0.0,0.0,0.0,0.0,0.0,0.0,3.5838,3.5756,3.5004,3.7898,3.99,4.0624,4.2503,4.351,4.351,4.4483,4.4859,4.4859,4.4859,4.4859,4.4859,4.4859,4.4859,4.4859,4.4859,4.4859,4.4859,4.4859,4.4859,4.4859,4.4859,4.4859,4.4859,4.4859,4.4859,4.4957,4.5882,4.6465,4.6782,4.7636,4.8466,4.9125,4.9125,5.0349,5.1609,5.0214,5.1039,5.2175,5.0876,5.0931,5.1686,5.2668,5.3657,5.4527,5.5133,5.5753,5.6349,5.6976,5.8867,5.9559,5.6564,5.723,5.872,5.9682,5.9334,5.945,6.1054,6.0685,6.0315,6.0315,6.0799,6.0941,6.0315,6.0799,6.1195,6.1195,5.9826,5.9189,5.9826,5.8337,5.7713,5.8337,5.8337,5.8337,5.8337,5.8337,5.832,5.8184,5.597,5.4907,5.4907,5.3915,5.3528,1.7799,0.0,0.0,0.0,0.0,0.0,1.9804,1.9511,1.9815,2.3741,2.4533,2.5232,2.6976,2.864,2.9473,2.9281,2.8856,2.956,3.2441,3.2164,0.0,0.0,0.0,0.0,0.0,0.0,0.0,0.0,3.652,3.7514,3.7514,4.0274,4.2018,4.2526,4.363,4.4483,4.4859,4.4859,4.4859,4.4859,4.4859,4.4859,4.4859,4.4859,4.4859,4.4859,4.4859,4.4859,4.4859,4.4859,4.4859,4.4859,4.4859,4.4859,4.4884,4.5318,4.5757,4.6221,4.6538,4.7636,4.8832,4.8539,4.9393,5.0394,4.9589,5.0101,5.0858,5.0345,5.0809,5.1819,5.293,5.4171,5.5007,5.5007,5.5007,5.5007,5.5007,5.6376,5.6744,5.4273,5.5258,5.6744,5.798,5.786,5.8099,5.9682,5.945,5.9189,5.9189,5.9566,5.9711,5.9217,5.9566,5.9942,5.9942,5.8456,5.7713,5.8218,5.6622,5.5882,5.6376,5.6376,5.6376,5.6376,5.6376,5.6376,5.6376,5.4273,5.3165,5.3165,5.206,5.1577,0.0,0.0,0.0,1.6307,1.5713,1.5934,1.9122,1.8917,1.9169,2.3096,2.3895,2.459,2.7018,2.7549,2.7184,2.606,2.5864,2.6239,2.7662,2.7838,2.8295,2.9587,0.0,0.0,0.0,0.0,0.0,0.0,3.652,3.7514,3.7514,3.9147,4.0915,4.2526,4.2647,4.3391,4.4859,4.4859,4.4859,4.4859,4.4859,4.4859,4.4859,4.4859,4.4859,4.4859,4.4859,4.4859,4.4859,4.4859,4.4859,4.4859,4.4859,4.4859,4.4981,4.6196,4.5928,4.5171,4.627,4.6685,4.6563,4.5464,4.6587,4.8344,4.8295,4.9003,5.0028,5.1077,5.1528,5.1577,5.1552,5.1552,5.1686,5.1686,5.1686,5.1686,5.1686,5.293,5.3915,5.3915,5.5258,5.6376,5.6376,5.5133,5.4527,5.6253,5.5133,5.4043,5.4043,5.5509,5.5882,5.4273,5.5509,5.6499,5.6499,5.5007,5.4654,5.6376,5.4907,5.4654,5.6376,5.6376,5.6376,5.6376,5.6376,5.6376,5.6376,5.3165,5.1552,5.1552,5.1577,5.1577,1.558,1.6249,1.679,1.6939,1.6184,1.6065,1.8568,1.8336,1.8316,2.1195,2.2539,2.3635,2.4469,2.3393,2.2472,2.3054,2.3098,2.3945,2.6553,2.6896,2.7659,2.9369,3.1119,0.0,0.0,0.0,0.0,0.0,0.0,0.0,3.5887,3.639,3.7514,3.9147,3.9147,4.0522,4.3391,4.3391,4.3868,4.4859,4.4859,4.4859,4.4859,4.4859,4.4859,4.4859,4.4859,4.4859,4.4859,4.4859,4.4859,4.4859,4.4859,4.4859,4.4908,4.5391,4.6221,4.7002,4.5904,4.7417,4.9418,4.6904,4.7514,4.9125,4.8442,4.8954,4.9833,5.0223,5.0858,5.1577,5.1577,5.1577,5.1577,5.1577,5.1577,5.1577,5.1577,5.1927,5.2299,5.2299,5.2799,5.3425,5.4527,5.4145,5.44,5.613,5.5882,5.5509,5.5509,5.6006,5.613,5.5633,5.6006,5.6376,5.6376,5.4781,5.4043,5.4654,5.3165,5.2562,5.3165,5.3165,5.3165,5.3165,5.3165,5.3165,5.3165,5.206,5.1577,5.1577,5.1577,5.1577,1.4152,1.4257,1.3945,1.4411,1.3395,1.297,1.5369,1.541,1.5687,1.8593,2.0173,2.1061,2.1866,2.0386,1.9419,2.0336,2.0432,2.1349,2.4179,2.4554,2.5264,2.7251,2.9183,3.0283,3.0283,0.0,0.0,0.0,0.0,3.4304,3.5004,3.5004,3.5513,3.665,3.7148,3.8536,4.0769,4.1919,4.3031,4.4105,4.46,4.4859,4.4859,4.4859,4.4859,4.4859,4.4859,4.4859,4.4859,4.4859,4.4859,4.4859,4.4859,4.4859,4.4859,4.4859,4.5735,4.688,4.5346,4.7319,4.9881,4.7441,4.8051,4.9637,4.8978,4.9247,4.9833,5.0247,5.0882,5.1577,5.1577,5.1577,5.1577,5.1577,5.1577,5.1577,5.1577,5.1577,5.1577,5.1577,5.1577,5.1819,5.2799,5.306,5.3425,5.4527,5.4654,5.4654,5.4654,5.4654,5.4654,5.4654,5.4654,5.4654,5.4654,5.3657,5.306,5.306,5.206,5.1577,5.1577,5.1577,5.1577,5.1577,5.1577,5.1577,5.1577,5.1577,5.1577,5.1577,5.1577,5.1577,1.0904,0.9528,0.8239,0.9159,0.7969,0.7287,0.9679,1.0407,1.17,1.563,1.6697,1.7372,1.9052,1.8469,1.7776,1.7923,1.7923,1.8648,2.0525,2.0961,2.1696,2.3475,2.5447,2.6578,2.6578,2.8367,3.0299,3.2069,3.2339,3.3029,3.4872,3.5004,3.5004,3.5004,3.652,3.7405,3.7405,4.0646,4.2405,4.2405,4.3986,4.4718,4.4742,4.4742,4.4718,4.46,4.46,4.46,4.46,4.4718,4.4742,4.4835,4.4835,4.4859,4.4859,4.4859,4.4884,4.4932,4.4859,4.6416,4.8051,4.6929,4.7929,4.9613,4.9662,4.9662,4.993,5.1102,5.1528,5.1504,5.1552,5.1528,5.1504,5.1552,5.1577,5.1577,5.1577,5.1577,5.1577,5.1577,5.1577,5.1577,5.1577,5.1577,5.1577,5.1577,5.1577,5.1577,5.1577,5.1577,5.1577,5.1577,5.1577,5.1577,5.1577,5.1577,5.1577,5.1577,5.1577,5.1577,5.1577,5.1504,5.1504,5.1577,5.1455,5.1406,5.1406,5.1406,5.1406,5.1406,5.1406,5.1406,0.7219,0.6918,0.6757,0.7394,0.7201,0.7068,0.7796,0.908,1.0317,1.142,1.386,1.5499,1.4405,1.3913,1.4241,1.5714,1.5863,1.6604,1.8501,2.01,2.1106,2.1696,2.4567,2.6578,2.6578,2.8367,3.0299,3.2069,3.2339,3.3029,3.4872,3.5004,3.5004,3.5004,3.5381,3.5644,3.5644,3.777,3.9399,4.0646,4.1139,4.1896,4.3128,4.3128,4.2526,4.1262,4.1262,4.1262,4.1385,4.2647,4.3128,4.3271,4.4483,4.4859,4.4859,4.4859,4.5513,4.6099,4.5269,4.6416,4.7929,4.6026,4.6318,4.7587,4.8393,4.8637,4.9027,5.0906,5.0833,5.037,5.1224,5.0809,5.0394,5.1357,5.1577,5.1577,5.1577,5.1577,5.1577,5.1577,5.1577,5.1577,5.1577,5.1577,5.1577,5.1577,5.1577,5.1577,5.1577,5.1577,5.1577,5.1577,5.1577,5.1577,5.1577,5.1577,5.1577,5.1577,5.1577,5.1577,5.1577,5.0638,5.0565,5.1552,4.9881,4.9052,4.9052,4.9052,4.9052,4.9052,4.9052,4.9052,0.5418,0.5153,0.4702,0.5314,0.4691,0.4163,0.515,0.6276,0.7524,0.9347,1.0612,1.1223,1.0958,1.094,1.1542,1.3501,1.395,1.454,1.6456,1.7766,1.9067,2.0816,2.2837,2.4424,2.5319,2.6422,2.7795,2.9596,2.9734,3.0573,3.2509,3.2643,3.2643,3.2643,3.3333,3.3734,3.3734,3.5586,3.7277,3.8895,3.965,4.0522,4.1407,4.1407,4.0893,4.0025,4.0025,4.0025,4.0149,4.1038,4.1407,4.1652,4.3248,4.3868,4.3986,4.46,4.5367,4.583,4.5196,4.6099,4.7343,4.6099,4.644,4.7465,4.8076,4.8246,4.849,4.9686,4.9564,4.9247,4.9857,4.9564,4.9369,5.0443,5.0687,5.0565,5.0125,5.0028,5.0028,5.0028,5.0394,5.0687,5.0687,5.1102,5.1577,5.1577,5.1577,5.1577,5.1577,5.1577,5.1577,5.1577,5.1004,5.0906,5.1528,5.098,5.0906,5.1528,5.1577,5.1224,5.0711,5.0101,4.9833,5.0028,4.8393,4.7783,4.8246,4.8246,4.8246,4.8246,4.8246,4.8246,0.3351,0.2474,0.1483,0.2401,0.1215,0.0519,0.2532,0.3181,0.4459,0.7936,0.7102,0.6223,0.8348,0.8655,0.9264,1.1097,1.1705,1.2451,1.4077,1.483,1.6447,1.9797,2.038,2.1262,2.2887,2.3175,2.4023,2.614,2.6267,2.7251,2.9475,2.9612,2.9612,2.9612,3.1119,3.1916,3.1916,3.3467,3.5079,3.6849,3.8346,3.9252,3.965,3.9266,3.9034,3.9034,3.9034,3.9034,3.9034,3.9412,3.958,3.9726,4.1485,4.2284,4.2405,4.3986,4.46,4.46,4.4859,4.5611,4.644,4.644,4.7051,4.7832,4.8002,4.8027,4.8076,4.8198,4.8149,4.8076,4.8222,4.8149,4.8295,4.932,4.9442,4.9149,4.8393,4.8246,4.8246,4.8246,4.8954,4.954,4.954,5.0467,5.1224,5.1224,5.1479,5.1504,5.1357,5.1479,5.1577,5.1577,5.0565,5.037,5.1479,5.054,5.0321,5.115,5.1224,5.0711,4.9613,4.9418,4.8856,4.7832,4.6904,4.688,4.7807,4.7807,4.7807,4.7807,4.7807,4.7807,-0.4119,-0.4482,-0.4589,-0.2692,-0.1189,0.0169,0.0496,0.1944,0.3345,0.4109,0.387,0.426,0.6227,0.6526,0.6677,0.6984,0.8504,0.9717,1.0164,1.3016,1.5417,1.6151,1.7629,1.8658,1.9098,1.9098,2.0514,2.3931,2.4203,2.5773,2.9337,2.9612,2.9612,2.9612,2.9888,3.0025,3.0025,3.0299,3.1391,3.3127,3.3509,3.5096,3.7857,3.5032,3.3783,3.3783,3.3783,3.3783,3.3945,3.5982,3.6889,3.7075,3.945,4.0522,4.0646,4.2405,4.3008,4.3128,4.4483,4.4981,4.5269,4.5269,4.5391,4.5708,4.6636,4.6929,4.7124,4.8002,4.7612,4.7124,4.8027,4.7587,4.7197,4.8246,4.7832,4.7368,4.81,4.8246,4.8246,4.8246,4.8393,4.8515,4.8515,4.9369,5.0052,5.0052,5.0833,5.1102,5.015,5.0858,5.1577,5.1577,5.1406,5.1357,5.1552,5.1381,5.0833,5.0101,5.0052,4.9589,4.8539,4.7661,4.666,4.5562,4.5224,4.5224,4.5419,4.5419,4.5419,4.5419,4.5419,4.5419,-0.6085,-0.6241,-0.6112,-0.5101,-0.3148,-0.1321,-0.0323,0.0797,0.1259,0.0155,-0.0153,0.0761,0.3954,0.4561,0.4862,0.592,0.6829,0.7589,0.7589,1.0153,1.241,1.3442,1.5392,1.6891,1.7923,1.807,1.8785,2.0648,2.0782,2.1637,2.349,2.4206,2.4755,2.4755,2.6405,2.7198,2.7198,2.8118,2.9046,2.995,3.0734,3.2028,3.3543,3.1142,3.0461,3.1208,3.1208,3.174,3.2556,3.3783,3.4167,3.4453,3.6556,3.7456,3.7577,3.9261,3.9994,4.0062,4.1273,4.1694,4.1905,4.3202,4.363,4.3963,4.5373,4.5782,4.5879,4.6392,4.6172,4.5879,4.6416,4.6148,4.605,4.7148,4.5708,4.4244,4.4757,4.4879,4.4879,4.4879,4.4879,4.5416,4.7124,4.7832,4.871,5.037,5.1077,5.1028,4.9906,5.0223,5.0345,4.9833,4.9271,4.9174,4.9735,4.9271,4.8954,4.8978,4.8978,4.849,4.7465,4.5294,4.3854,4.3317,4.3317,4.3317,4.3317,4.3317,4.3585,4.4147,4.4147,4.4324,-0.7197,-0.7279,-0.7219,-0.675,-0.5656,-0.3859,-0.1733,-0.1254,-0.1715,-0.3363,-0.3624,-0.2555,0.0607,0.166,0.2405,0.379,0.4857,0.5466,0.5466,0.7135,0.9093,1.0569,1.2241,1.3748,1.5367,1.582,1.6272,1.6716,1.7093,1.7494,1.7933,1.8921,1.9503,1.9503,2.197,2.3489,2.3911,2.5293,2.6458,2.7261,2.852,2.9279,2.9513,2.7951,2.7927,2.9046,2.9046,2.9821,3.0874,3.1162,3.1358,3.1867,3.332,3.4122,3.4623,3.6378,3.694,3.7048,3.814,3.838,3.8749,4.0769,4.1498,4.176,4.2942,4.3317,4.3365,4.358,4.351,4.3699,4.4293,4.4196,4.4172,4.456,4.2672,4.0856,4.0856,4.0856,4.0856,4.0856,4.0856,4.1781,4.4652,4.5304,4.6416,4.932,4.9881,4.9637,4.8539,4.8588,4.8417,4.7636,4.6782,4.6636,4.749,4.6782,4.6563,4.7148,4.7197,4.6709,4.5635,4.2534,4.0856,4.0856,4.0856,4.0856,4.0856,4.0856,4.1262,4.2075,4.2075,4.2529,-1.0884,-1.1198,-1.1199,-0.9259,-0.8837,-0.8313,-0.5975,-0.5484,-0.5481,-0.5772,-0.5428,-0.5042,-0.5121,-0.3224,-0.1733,-0.2267,0.0913,0.335,0.335,0.5014,0.6375,0.6522,0.6674,0.6976,0.7123,0.8792,1.0748,1.2512,1.4047,1.5758,1.7613,1.7465,1.7349,1.7349,1.7717,1.8509,2.0173,2.0295,2.202,2.5352,2.5482,2.6375,2.7962,2.6301,2.5599,2.5718,2.5718,2.5836,2.6004,2.6642,2.79,2.9342,3.0264,3.1456,3.2866,3.4623,3.5199,3.5457,3.7048,3.765,3.7672,3.7876,3.8036,3.8036,3.813,3.8152,3.8329,3.9076,3.9297,3.9758,4.2152,4.1928,4.0652,3.8811,3.8063,3.7864,3.7864,3.7864,3.7864,3.7864,3.7864,3.8411,4.0071,4.1023,4.2213,4.3819,4.4952,4.5171,4.4098,4.4805,4.5367,4.5151,4.5054,4.5054,4.5151,4.5054,4.464,4.3878,4.3805,4.3341,4.2267,3.9388,3.7864,3.7864,3.7864,3.7864,3.7864,3.7864,3.793,3.8019,3.8019,3.8063,-1.1577,-1.159,-1.1557,-1.0791,-0.9798,-0.8904,-0.8038,-0.8806,-0.9415,-0.8197,-0.7775,-0.7206,-0.5824,-0.4983,-0.4412,-0.4373,-0.224,-0.0609,-0.0609,0.2129,0.4258,0.4258,0.5317,0.6072,0.6072,0.6832,0.7539,0.831,0.9108,0.9716,1.0545,1.2329,1.323,1.323,1.5167,1.6507,1.7166,1.8211,1.938,2.0899,2.2778,2.2611,2.0391,2.0757,2.0928,2.105,2.2989,2.3844,2.3978,2.5216,2.6168,2.6815,2.7082,2.7579,2.8318,2.9947,3.0534,3.0844,3.3007,3.3792,3.399,3.5484,3.6026,3.6122,3.7172,3.7541,3.7607,3.7863,3.7973,3.8178,3.9281,3.9197,3.8428,3.6881,3.6089,3.554,3.554,3.6198,3.685,3.685,3.685,3.7454,3.9379,4.0048,4.086,4.2683,4.41,4.4213,4.2323,4.2421,4.2073,4.0631,4.0445,4.0445,4.0445,4.0445,4.0285,3.9871,3.9848,3.9,3.735,3.6089,3.554,3.554,3.554,3.554,3.554,3.554,3.5846,3.6549,3.6549,3.6855,-1.1491,-1.1372,-1.1326,-1.1537,-1.0687,-0.9817,-0.9986,-1.103,-1.1734,-1.0219,-0.9806,-0.9166,-0.7298,-0.6704,-0.6353,-0.6089,-0.4831,-0.3926,-0.3952,-0.152,0.0456,0.0456,0.1668,0.2728,0.3187,0.3919,0.4474,0.5141,0.5643,0.5975,0.5867,0.7987,0.9052,0.9052,1.1747,1.3426,1.3932,1.5718,1.6879,1.738,1.9689,1.8666,1.4808,1.6482,1.738,1.7505,1.9812,2.1036,2.1551,2.2627,2.3724,2.4559,2.4559,2.4813,2.5405,2.6564,2.6914,2.7116,2.885,2.952,2.9847,3.2066,3.2852,3.3068,3.4701,3.5297,3.5361,3.5636,3.572,3.59,3.6526,3.6068,3.5128,3.436,3.3575,3.2983,3.2983,3.3718,3.4445,3.4445,3.4445,3.512,3.7088,3.7446,3.803,4.0007,4.1047,4.1133,3.9367,3.9162,3.8436,3.6727,3.6549,3.6549,3.6549,3.6549,3.6549,3.6549,3.6549,3.549,3.3025,3.2983,3.2983,3.2983,3.2983,3.2983,3.2983,3.2983,3.3339,3.4212,3.4212,3.455,-1.095,-1.1069,-1.1273,-1.128,-1.1728,-1.2163,-1.217,-1.1939,-1.1722,-1.1577,-1.1273,-1.0878,-1.0871,-0.8897,-0.7558,-0.8116,-0.6781,-0.5769,-0.5901,-0.592,-0.592,-0.592,-0.5917,-0.5163,-0.3199,-0.1189,0.0879,0.2936,0.4758,0.5701,0.5701,0.542,0.5335,0.5335,0.7024,0.8698,1.035,1.2154,1.395,1.5602,1.5602,1.4672,1.297,1.4808,1.5602,1.5602,1.5602,1.6618,1.8151,1.8151,2.0083,2.3003,2.3003,2.3963,2.5287,2.5287,2.5287,2.5287,2.5303,2.5303,2.5523,2.7181,2.7646,2.7993,2.952,2.9974,3.0164,3.1116,3.1345,3.189,3.438,3.2496,2.9974,2.9974,2.9955,2.9955,2.9955,2.9955,2.9955,2.9955,2.9955,3.0519,3.1858,3.2189,3.2609,3.4105,3.4319,3.4319,3.4319,3.4297,3.4297,3.4297,3.4297,3.4297,3.4297,3.4297,3.4297,3.4297,3.4297,3.3004,3.0068,2.9955,2.9955,2.9955,2.9955,2.9955,2.9955,2.9955,2.9955,2.9974,2.9974,2.9974,-1.1122,-1.2012,-1.3055,-1.3013,-1.3403,-1.3824,-1.3449,-1.317,-1.288,-1.182,-1.1577,-1.1801,-1.2952,-1.4011,-1.4165,-1.2527,-1.1053,-1.0036,-1.0108,-0.7723,-0.6515,-0.7852,-0.6814,-0.5734,-0.4905,-0.427,-0.3465,-0.2648,-0.2051,-0.1745,-0.1843,-0.0651,0.0518,0.1557,0.3241,0.5056,0.6877,0.8542,0.9685,1.019,0.6679,0.5267,0.5794,0.7573,0.9642,1.2011,1.313,1.4672,1.6367,1.6367,1.6972,1.7947,1.9097,1.985,2.0574,2.2868,2.3724,2.3844,2.4931,2.5287,2.5405,2.5877,2.5978,2.6112,2.6564,2.7495,2.8374,2.8742,2.9529,3.0046,2.8732,2.7491,2.6797,2.6797,2.6797,2.7048,2.809,2.9067,3.0066,3.1152,3.1394,3.1505,3.1948,3.2059,3.2259,3.2676,3.3545,3.4169,3.4169,3.3329,3.2806,3.2806,3.1908,3.1263,3.1263,3.1263,3.1263,3.1263,3.1263,3.0349,2.8435,2.8321,2.8321,2.8321,2.8321,2.8912,2.9955,2.9955,2.9955,2.9955,2.8798,2.8894,-1.0873,-1.2236,-1.3543,-1.3775,-1.4101,-1.4132,-1.3361,-1.2773,-1.2354,-1.1464,-1.1866,-1.2717,-1.3726,-1.5853,-1.6925,-1.5578,-1.4621,-1.4156,-1.4289,-1.2214,-1.1012,-1.218,-1.1058,-0.9915,-0.8901,-0.8032,-0.7145,-0.6238,-0.6162,-0.6214,-0.6234,-0.5178,-0.4008,-0.2976,-0.0647,0.1165,0.2334,0.4005,0.4126,0.284,-0.0386,-0.1031,0.0646,0.2318,0.4375,0.6444,0.8232,0.989,1.1689,1.2361,1.3003,1.3753,1.5427,1.6472,1.7369,1.9443,2.0548,2.1307,2.2265,2.3003,2.3619,2.4202,2.444,2.444,2.505,2.5995,2.6698,2.6698,2.7396,2.7744,2.5759,2.5287,2.5287,2.5287,2.5287,2.5523,2.6564,2.7443,2.8327,2.9294,2.9992,3.0349,3.0349,3.0817,3.1283,3.1283,3.2018,3.2546,3.2546,3.1818,3.1283,3.1283,3.0519,2.9955,2.9955,2.9955,2.9955,2.9955,2.8798,2.7744,2.6814,2.6698,2.6698,2.6698,2.6698,2.7147,2.8205,2.8205,2.8205,2.8205,2.7147,2.7263,-1.0114,-1.1765,-1.3219,-1.362,-1.3665,-1.3415,-1.2401,-1.1374,-1.0688,-1.0579,-1.2247,-1.3817,-1.3692,-1.5278,-1.674,-1.7319,-1.7555,-1.7948,-1.8255,-1.7972,-1.7953,-1.8168,-1.7589,-1.6429,-1.458,-1.2443,-1.0474,-0.8458,-0.8391,-0.8397,-0.8397,-0.8397,-0.8269,-0.8136,-0.4908,-0.3104,-0.2847,-0.1418,-0.2453,-0.5976,-0.5926,-0.4889,-0.3231,-0.1548,-0.0644,-0.0258,0.1422,0.3096,0.4879,0.6576,0.811,0.9738,1.142,1.3239,1.4817,1.5205,1.6357,1.7754,1.7891,1.8898,2.0503,2.1915,2.2386,2.2627,2.4187,2.4678,2.4916,2.4916,2.4797,2.4544,2.4544,2.4678,2.4797,2.4797,2.4797,2.4931,2.505,2.505,2.5168,2.5287,2.6447,2.7379,2.7379,2.8665,2.9615,2.9615,2.9615,2.9615,2.9615,2.9615,2.9615,2.9615,2.9615,2.9615,2.9615,2.9615,2.9577,2.9521,2.6897,2.5168,2.5168,2.505,2.505,2.505,2.505,2.5168,2.5287,2.5287,2.5255,2.5207,2.5089,2.5073,-0.8319,-1.0899,-1.318,-1.2819,-1.2696,-1.2738,-1.2796,-1.2583,-1.2156,-1.0978,-1.2467,-1.4407,-1.6353,-1.807,-1.9481,-1.9958,-1.9375,-1.9132,-1.9628,-1.767,-1.7086,-1.9465,-1.8471,-1.7282,-1.6165,-1.6341,-1.575,-1.381,-1.3714,-1.3788,-1.3788,-1.3788,-1.313,-1.1704,-1.0793,-0.9132,-0.6589,-0.745,-0.9623,-1.3155,-1.313,-1.2203,-1.0405,-0.8632,-0.644,-0.3728,-0.2066,-0.0387,0.1158,0.1675,0.2059,0.257,0.4249,0.6047,0.7951,1.1942,1.3744,1.4257,1.5708,1.6357,1.6858,1.7211,1.7336,1.7325,1.7687,1.9529,2.1603,2.1603,1.9762,1.7811,1.7811,1.8826,1.9727,1.9727,2.0723,2.2079,2.3244,2.3484,2.3844,2.505,2.5507,2.5877,2.5877,2.6095,2.633,2.633,2.633,2.633,2.633,2.633,2.633,2.633,2.633,2.633,2.633,2.633,2.6212,2.5771,2.5465,2.4694,2.3604,2.3484,2.3484,2.3484,2.3484,2.4083,2.5287,2.5287,2.5014,2.4615,2.3303,2.3142,-0.6283,-0.8623,-1.0201,-0.823,-0.8842,-0.994,-1.0004,-1.0881,-1.1391,-1.0552,-1.2482,-1.4843,-1.6838,-1.8817,-2.0602,-2.1732,-2.233,-2.2759,-2.3054,-2.2528,-2.2516,-2.3727,0.0,-2.1995,-2.1034,-2.0607,-1.9877,-1.8889,-1.8865,-1.8865,-1.8865,-1.8865,-1.846,-1.7406,-1.5942,-1.4328,-1.2424,-1.6291,-1.8051,-1.7754,-1.8496,-1.7967,-1.617,-1.5309,-1.388,-1.1914,0.0,-0.7788,-0.6754,-0.4495,-0.3609,-0.3349,-0.1674,0.0129,0.1928,0.4717,0.625,0.7304,0.9877,1.1815,1.3105,1.3105,1.3627,1.4285,1.4285,1.6169,1.8172,1.8172,1.6294,1.4546,1.5341,1.6241,1.6879,1.6879,1.763,1.8478,1.9307,1.9541,1.9787,2.0631,2.1334,2.1911,2.1911,2.3141,2.4125,2.4125,2.4765,2.5287,2.5287,2.5014,2.4938,2.4938,2.4631,2.4438,2.4438,2.4438,2.4535,2.4487,2.1952,2.0221,1.9529,1.9541,1.9541,1.9541,1.9541,1.9892,2.0568,2.0568,2.0287,1.9954,1.9051,1.8883,-0.3595,-0.4916,-0.5069,-0.2529,-0.4122,-0.6408,-0.6477,-0.8382,-1.0041,-1.0041,-1.24,-1.504,-1.6517,-1.8688,-2.0929,-2.3186,-2.5339,-2.6675,-2.6853,-2.8165,-2.8968,-2.8697,-2.808,-2.7611,-2.7075,-2.5216,-2.409,-2.3853,-2.3735,-2.3735,-2.3735,-2.3735,-2.3735,-2.3735,-2.1064,-1.9732,-1.9962,-2.5099,-2.5681,-2.1637,-2.3112,-2.2993,-2.1637,-2.1383,-2.1263,-2.113,0.0,-1.6425,-1.5953,-1.174,-0.9877,-0.9508,-0.7431,-0.5775,-0.4375,-0.3959,-0.2685,-0.0771,0.2437,0.5764,0.8709,0.8709,0.9738,1.0899,1.1167,1.2464,1.3897,1.3644,1.2472,1.1689,1.3526,1.4186,1.4303,1.4303,1.4509,1.4713,1.4723,1.4925,1.5011,1.5011,1.6323,1.7383,1.7383,1.9675,2.1484,2.1484,2.2742,2.3628,2.3628,2.3257,2.3034,2.3034,2.2512,2.2158,2.2158,2.2158,2.2294,2.2602,1.7246,1.4552,1.5457,1.5069,1.4779,1.4713,1.4782,1.4572,1.4202,1.4202,1.4111,1.3727,1.3727,1.3679,0.1092,0.1534,0.1762,-0.0224,-0.1985,-0.3944,-0.6626,-0.8915,-1.035,-1.035,-1.2421,-1.4965,-1.7183,-1.9053,-2.1335,-2.4807,-2.6173,-2.7073,-2.8119,-2.7662,-2.8034,-3.0344,-3.0036,-3.0118,-3.1017,-3.0755,-2.9948,-2.8621,-2.8509,-2.8509,-2.8509,-2.8509,-2.8509,-2.8509,-2.802,-2.8359,-2.9687,-2.9444,-2.8847,-2.8134,-2.8378,-2.8378,-2.8115,-2.663,-2.6007,-2.5876,0.0,0.0,-2.1191,-2.0449,-1.9447,-1.7987,-1.4858,-1.3479,-1.2854,-1.0086,-0.7915,-0.6111,-0.4225,-0.1283,0.1543,0.1543,0.1801,0.2186,0.3611,0.5277,0.6419,0.4898,0.426,0.4521,0.6352,0.7894,0.891,0.891,1.01,1.1125,1.1147,1.2042,1.2913,1.2913,1.4113,1.5067,1.5067,1.5532,1.587,1.587,1.5997,1.6228,1.6228,1.6162,1.6117,1.6117,1.6051,1.5892,1.5892,1.5892,1.5424,1.4044,1.1576,1.1778,1.5437,1.2709,1.1149,1.1125,1.1111,1.107,1.1016,1.1016,1.0733,1.0184,1.0184,0.9919,0.3243,0.3736,0.3825,0.2417,-0.0875,-0.4166,-0.5647,-0.8513,-1.1049,-1.2093,-1.3561,-1.5733,-1.891,-1.9847,-2.1559,-2.5671,-2.6239,-2.7173,-3.0175,-3.1807,-3.3326,-3.5037,-3.4903,-3.4879,0.0,-3.5036,-3.4815,-3.4112,-3.4068,-3.4068,-3.4068,-3.4068,-3.3797,-3.3141,-3.2328,-3.3268,-3.6292,-3.5586,-3.4797,-3.4068,-3.4068,-3.4068,-3.4046,-3.3286,-3.2906,-3.2779,-3.119,-2.9789,-2.8383,-2.6692,-2.5187,-2.3741,-2.2124,-2.0582,-1.8939,-1.8419,-1.6584,-1.4021,-1.1421,-0.953,-0.7879,-0.6139,-0.4233,-0.2572,-0.1802,-0.2946,-0.4211,-0.2183,-0.2181,-0.2294,0.0756,0.1775,0.2285,0.2835,0.3922,0.5013,0.5065,0.5707,0.6359,0.7199,0.7189,0.7657,0.9246,0.9681,1.0003,1.0745,1.1676,1.2255,1.2255,1.1962,1.173,1.173,1.1538,1.1302,1.1302,0.8484,0.6414,0.5724,0.4929,0.5303,0.7249,0.5929,0.5026,0.491,0.5016,0.5134,0.4933,0.4933,0.4738,0.4262,0.4262,0.4118,0.483,0.0,0.4163,0.3803,-0.0326,-0.449,0.0,-0.8297,-1.2058,-1.3501,-1.4937,-1.6891,-2.038,-2.1069,-2.248,-2.6617,-2.7645,-2.9204,-3.3036,-3.6161,-3.862,-3.9923,-3.9513,-3.9433,-4.0019,-3.9232,-3.8873,-3.9378,-3.9053,-3.8903,-3.8903,-3.8903,-3.8563,-3.7621,-3.7185,-3.8289,-4.1275,-4.1275,-4.0731,-3.9592,-3.9592,-3.9548,-3.9311,-3.9311,-3.9144,-3.8806,-3.7605,-3.6385,-3.5106,-3.2608,-3.0661,-2.9148,-2.8673,-2.7074,-2.5134,-2.6025,-2.4843,-2.2329,-1.9441,-1.7899,-1.6994,-1.3825,-1.0586,-0.7733,-0.7524,-1.0731,-1.3367,-0.875,-0.807,-0.7984,-0.4596,-0.3645,-0.34,-0.2806,-0.1989,-0.1292,-0.1033,-0.0794,-0.0113,0.1018,0.0454,0.057,0.2864,0.3322,0.378,0.518,0.6546,0.7453,0.7817,0.7431,0.7101,0.7101,0.6825,0.6504,0.6504,0.0957,-0.2161,-0.1563,-0.1683,-0.1615,-0.1219,-0.1315,-0.1546,-0.1817,-0.1536,-0.1493,-0.1667,-0.1336,-0.132,-0.1501,-0.1182,-0.1182,0.0,0.4961,0.3672,0.2575,-0.0443,-0.3514,-0.4578,-0.941,0.0,-1.3767,-1.5914,-1.8501,-2.0536,-2.2333,-2.4716,-2.8752,-3.2046,-3.4794,-3.6829,-3.8768,-4.0927,-4.3886,-4.2167,-4.2284,-4.6495,-4.3783,-4.2213,-4.3578,-4.2605,-4.1844,-4.1844,-4.1844,-4.1844,-4.1778,-4.4585,-4.5665,-4.4892,-4.4892,-4.4892,-4.4779,-4.4779,-4.4244,-4.3343,-4.3343,-4.2803,0.0,-4.1725,-4.0899,-3.9534,-3.9387,-3.7774,-3.5333,-3.374,-3.3037,-3.2695,-3.1288,-3.0662,-3.0252,-2.8454,-2.6241,-2.3765,-2.1248,-1.8276,-1.552,-1.4724,-1.6612,-1.8341,-1.5322,-1.3261,-1.1624,-1.0178,-0.8207,-0.6665,-0.717,-0.6793,-0.6287,-0.6272,-0.5183,-0.4265,-0.4168,-0.3473,-0.2933,-0.2731,-0.3223,-0.3085,-0.1601,-0.1282,-0.0749,0.0539,0.0647,0.0646,0.0646,0.0644,0.0643,0.0643,-0.5712,-0.9072,-0.7441,-0.7675,-0.7426,-0.6189,-0.7209,-0.8062,-0.8423,-0.8054,-0.7861,-0.7921,-0.6559,-0.5922,-0.5908,-0.4645,-0.4645,0.5096,0.394,0.2466,0.1097,-0.1803,-0.4751,-0.6176,-1.0324,-1.4365,-1.5575,-1.8989,-2.2225,-2.4126,-2.6083,-2.8166,-3.083,-3.3188,-3.5451,-3.7236,-3.99,-4.2457,-4.4475,-4.5534,-4.6907,-4.8625,-4.6765,-4.6031,-4.7286,-4.5613,-4.5014,-4.6316,-4.5769,-4.5959,-4.7114,-4.6999,-4.7345,-4.8305,-4.6383,-4.5879,-4.6857,-4.5879,-4.5022,-4.4335,-4.4335,-4.4135,-4.3777,-4.3777,-4.3001,0.0,-4.1754,-4.0705,-3.9153,-3.8431,-3.732,-3.5972,-3.5399,-3.4245,-3.2888,-3.1146,-2.9902,-2.8803,-2.6921,-2.5016,-2.324,-2.1909,-2.4038,-2.6318,-2.256,-2.1701,-2.1217,-1.7963,-1.6773,-1.595,-1.4332,-1.3237,-1.2394,-1.1713,-1.1131,-1.0423,-0.9559,-0.9847,-0.9622,-0.7782,-0.8467,-0.8918,-0.7989,-0.7808,-0.777,-0.7732,-0.7061,-0.6558,-0.6558,-0.6558,-0.7891,-1.1331,-1.4753,-1.6418,-1.5721,-1.5832,-1.5817,-1.5504,-1.5097,-1.4958,-1.5278,-1.4341,-1.3792,-1.3726,-1.3201,-1.3005,-1.2892,-1.2385,-1.2489,0.287,0.1505,-0.0109,-0.1223,-0.4152,-0.7062,-0.8057,-1.2711,-1.7248,-1.8612,-2.2419,-2.6181,-2.8012,-2.9943,-3.1847,-3.3569,-3.5803,-3.7881,-3.9542,-4.229,-4.4596,-4.5999,-4.8504,-4.9896,-4.9563,-4.911,-4.9159,-4.9927,-4.8413,-4.807,-4.9332,-4.8436,-4.9018,-5.1359,-4.9464,-4.9172,-5.0703,-4.812,-4.7306,-4.8349,-4.7306,-4.639,-4.5785,-4.5785,-4.5557,-4.5226,-4.5087,-4.4446,-4.3632,-4.3439,-4.2777,-4.1805,-4.1805,-4.0849,-3.9436,-3.9436,-3.8371,-3.6767,-3.562,-3.445,-3.3344,-3.1965,-3.0755,-2.9428,-2.7532,-2.9768,-3.2342,-2.9122,-2.8175,-2.7437,-2.4635,-2.3663,-2.2824,-2.0458,-1.9118,-1.7928,-1.6774,-1.6287,-1.5785,-1.4812,-1.5549,-1.5747,-1.4006,-1.4712,-1.532,-1.4758,-1.4738,-1.4744,-1.4905,-1.4209,-1.3444,-1.3089,-1.3465,-1.5996,-2.1676,-2.2932,-2.356,-2.3968,-2.3208,-2.3347,-2.4554,-2.2651,-2.1938,-2.283,-2.1151,-2.0361,-2.0361,-2.0345,-1.9878,-1.9228,-1.9557,-1.946,-0.0312,-0.2324,-0.4407,-0.4819,-0.7485,-0.9982,-1.0338,-1.6668,-2.259,-2.259,-2.6272,-3.0113,-3.1573,-3.3591,-3.5465,-3.708,-4.0368,-4.3081,-4.4475,-4.6188,-4.7754,-4.9262,-5.0672,-5.0986,-4.9584,-5.063,-5.1392,-5.1393,-5.1252,0.0,-5.0207,-4.9447,-5.0686,-5.4138,-5.2695,-5.1885,-5.1885,-5.034,-4.9533,-4.9533,-4.9533,-4.8998,-4.8003,-4.7981,-4.7393,-4.6434,-4.5788,-4.5468,0.0,-4.492,-4.4277,-4.3556,-4.3556,-4.3556,-4.3524,-4.3524,-4.3224,-4.2739,-4.2768,-4.0434,-3.7464,-3.6618,-3.5465,-3.3808,-3.1366,-3.3198,-3.5841,-3.4925,-3.1857,-2.9014,-2.9695,-2.8001,-2.5934,-2.5144,-2.3922,-2.2685,-2.1371,-2.0365,-1.9742,-1.9742,-2.0252,-2.09,-2.1719,-2.2217,-2.2493,-2.2242,-2.2248,-2.1834,-2.0676,-2.0489,-2.0058,-1.8851,-1.9897,-2.3173,-2.9337,-2.9891,-3.048,-3.1724,-2.9316,-2.9455,-3.2795,-2.9701,-2.8879,-3.0955,-2.8923,-2.7851,-2.7851,-2.7743,-2.6416,-2.4214,-2.5289,-2.5221,-0.3085,-0.4399,-0.6207,-0.7722,-0.9769,-1.1798,-1.3261,-1.8276,-2.259,-2.259,-2.8171,-3.3399,-3.3797,-3.7208,-4.0191,-4.0704,-4.3486,-4.5784,-4.61,-4.7709,-4.9637,-5.1818,-5.2521,-5.331,-5.4745,-5.5244,-5.5369,-5.5157,-5.3155,-5.2448,-5.3629,-5.4108,-5.4655,-5.5314,-5.2041,-5.0588,-5.1323,-4.8517,-4.7674,-4.872,-4.764,-4.6854,-4.635,-4.6103,-4.5939,-4.5842,-4.5379,-4.5227,0.0,-4.5034,-4.487,-4.4637,-4.4637,-4.4264,-4.3778,-4.3778,-4.3288,-4.2536,-4.2238,-4.1389,-4.0393,-3.9745,-3.8705,-3.7922,-3.8737,-3.9748,-4.0508,-3.9809,-3.8299,-3.682,-3.651,-3.4341,-3.1609,-2.9306,-2.8501,-2.7989,-2.6927,-2.5807,-2.4984,-2.4984,-2.4404,-2.4129,-2.4829,-2.5043,-2.5804,-2.7894,-2.8211,-2.842,-2.9052,-2.8354,-2.7439,-2.6541,-3.2423,-3.6804,-3.79,-3.9176,-3.9532,-3.8338,-3.7562,-3.6836,-3.6311,-3.4533,-3.381,-3.4437,-3.3065,-3.2288,-3.2288,-3.1598,-3.0953,-3.0227,-2.9979,-2.9737,-0.7213,-0.8409,-0.9977,-1.1085,-1.3336,-1.5511,-1.6861,-2.1473,-2.569,-2.6399,-3.157,-3.6451,-3.8389,-4.1214,-4.3558,-4.4817,-4.6576,-4.8236,-4.9207,-5.0292,-5.1919,-5.4527,-5.4838,-5.5395,-5.6955,-5.7383,-5.7734,-5.806,-5.6645,-5.6118,-5.7038,-5.7486,-5.73,-5.6338,-5.3429,-5.2158,-5.2824,-4.9503,-4.8315,-4.9208,-4.7634,-4.6846,-4.6668,-4.6443,-4.6481,-4.6668,-4.6141,-4.5937,0.0,-4.5656,-4.5697,-4.5937,-4.5937,-4.5669,-4.527,-4.527,-4.4628,-4.3792,-4.3461,-4.3043,-4.2569,-4.2188,-4.1937,-4.2023,-4.3205,-4.3612,-4.3459,-4.2809,-4.2218,-4.1523,-4.0763,-3.9223,-3.734,-3.5023,-3.4084,-3.3414,-3.2395,-3.1068,-3.0136,-3.0136,-2.9043,-2.8314,-2.9026,-2.9206,-2.9937,-3.2185,-3.3019,-3.3808,-3.4975,-3.4733,-3.4181,-3.3504,-4.0309,-4.4639,-4.41,-4.5133,-4.5468,-4.4636,-4.3518,-4.2484,-4.1581,-3.9675,-3.8686,-3.8851,-3.802,-3.756,-3.756,-3.6955,-3.6422,-3.5757,-3.5724,-3.5323,-1.2244,-1.3684,-1.5215,-1.5006,-1.7757,-2.0495,-2.0956,-2.5881,-3.0869,-3.2495,-3.565,-3.9563,-4.3865,-4.5031,-4.6314,-4.9127,-4.9771,-5.0771,-5.3085,-5.3572,-5.4527,-5.7043,-5.7391,-5.7477,-5.7563,-5.8287,-5.9235,-6.0254,-6.0922,-6.1043,-6.0563,-6.0047,-5.8992,-5.7326,-5.605,-5.536,-5.5245,-5.2281,-5.0747,-5.0747,-4.9316,-4.861,-4.8491,-4.8435,-4.8362,-4.8206,-4.7608,-4.7349,0.0,-4.6701,-4.6771,-4.7349,-4.7349,-4.7349,-4.7349,-4.7349,-4.6703,-4.5912,-4.5837,-4.5132,-4.4204,-4.4141,-4.4946,-4.5867,-4.5462,-4.54,-4.5198,-4.4463,-4.4189,-4.3961,-4.3119,-4.2772,-4.2422,-4.1373,-3.9978,-3.855,-3.7493,-3.6204,-3.5153,-3.5153,-3.39,-3.3148,-3.4046,-3.4209,-3.4646,-3.5887,-3.723,-3.8425,-3.943,-4.0241,-4.0529,-4.0271,-4.506,-4.8333,-4.854,-4.8657,-4.9105,-5.0074,-4.7584,-4.6529,-4.7513,-4.4561,-4.3074,-4.3449,-4.3092,-4.2864,-4.2864,-4.2791,-4.2055,-4.0606,-4.1483,-4.1072,-1.6716,-1.8223,-2.0037,-2.0524,-2.2078,-2.3915,-2.5516,-2.9106,-3.2495,-3.4022,-3.9054,-4.3511,-4.4451,-4.7657,-5.0274,-5.0986,-5.2735,-5.4326,-5.4894,-5.576,-5.6836,-5.8357,-5.9097,-5.9786,-6.0751,-6.1624,-6.2245,-6.2515,-6.2606,-6.3627,-6.5722,-6.3358,-6.0765,-5.813,-5.6311,-5.4969,-5.4036,-5.3047,-5.2532,-5.2532,-5.2201,-5.1499,-5.0495,-5.0192,-4.952,-4.8497,-4.8133,-4.7992,-4.7999,-4.7838,-4.7868,-4.7992,-4.7992,-4.7992,-4.7992,-4.7992,-4.7875,-4.7552,-4.7084,-4.6737,-4.6379,-4.5557,-4.6412,-4.762,-4.7593,-4.7562,-4.7393,-4.6738,-4.6301,-4.5907,-4.5184,-4.4326,-4.3595,-4.3343,-4.248,-4.159,-4.1384,-4.0333,-3.95,-3.95,-3.8383,-3.7685,-3.8386,-3.8511,-3.9551,-4.2663,-4.3352,-4.4318,-4.62,-4.663,-4.7348,-4.9001,-5.2446,-5.4134,-5.2997,-5.3363,-5.3078,-5.1721,-4.9817,-4.8623,-4.8512,-4.6542,-4.5515,-4.5634,-4.5515,-4.547,-4.547,-4.4535,-4.3932,-4.3574,-4.2791,-4.2208,-2.2358,-2.3792,-2.5334,-2.5368,-2.6746,-2.8327,-2.9351,-3.2358,-3.5548,-3.7713,-4.174,-4.5642,-4.835,-5.0709,-5.2777,-5.4075,-5.5331,-5.6454,-5.6986,-5.7594,-5.8574,-6.0137,-6.0644,-6.1302,-6.2381,-6.3336,-6.3924,-6.42,-6.4545,-6.5191,-6.6185,-6.3919,-6.127,-5.8404,-5.7572,-5.6892,-5.6288,-5.5247,-5.4761,-5.4761,-5.3957,-5.329,-5.2577,-5.2488,-5.2054,-5.1392,-5.1249,-5.1185,-5.1185,-5.1136,-5.0595,-4.989,-4.989,-4.9409,-4.8681,-4.8681,-4.8547,-4.8321,-4.8013,-4.7816,-4.7608,-4.7244,-4.7656,-4.8357,-4.827,-4.8215,-4.8122,-4.7802,-4.7521,-4.7295,-4.6986,-4.6413,-4.5996,-4.5996,-4.5615,-4.5187,-4.4897,-4.394,-4.312,-4.2893,-4.1777,-4.0986,-4.1512,-4.1636,-4.232,-4.4411,-4.5329,-4.6307,-4.7738,-4.9544,-5.1373,-5.3296,-5.4966,-5.5984,-5.6155,-5.584,-5.5202,-5.4107,-5.1811,-5.0317,-4.9918,-4.8173,-4.728,-4.739,-4.7276,-4.7183,-4.7183,-4.6596,-4.6159,-4.5819,-4.5145,-4.4535,-2.799,-2.9141,-3.0339,-3.0118,-3.1345,-3.2757,-3.3226,-3.5829,-3.8866,-4.1634,-4.4245,-4.7436,-5.2087,-5.3493,-5.4711,-5.7177,-5.7491,-5.7914,-5.9337,-5.9387,-6.0092,-6.1829,-6.2176,-6.2616,-6.3457,-6.4341,-6.5094,-6.5628,-6.636,-6.6421,-6.5684,-6.3879,-6.1725,-5.9353,-5.9194,-5.9089,-5.9089,-5.7735,-5.7029,-5.7029,-5.5758,-5.501,-5.4747,-5.4843,-5.473,-5.4466,-5.4466,0.0,-5.4451,-5.435,-5.3472,-5.2197,-5.2197,-5.1373,-5.0118,-5.0101,-4.9708,-4.921,-4.9176,-4.8805,-4.8497,-4.9005,-4.9146,-4.9064,-4.8545,-4.8379,-4.8379,-4.8379,-4.8315,-4.8261,-4.8261,-4.827,-4.8215,-4.8215,-4.8215,-4.8057,-4.7547,-4.6739,-4.6098,-4.6068,-4.5082,-4.4371,-4.4695,-4.4734,-4.488,-4.5185,-4.6269,-4.7345,-4.817,-5.1143,-5.3649,-5.4969,-5.5625,-5.6544,-5.7989,-5.7033,-5.6375,-5.6375,-5.3349,-5.1651,-5.1711,-4.9591,-4.854,-4.8763,-4.8556,-4.8436,-4.8436,-4.8361,-4.8068,-4.7568,-4.7443,-4.7114,-3.2041,-3.2794,-3.3869,-3.488,-3.538,-3.6126,-3.8438,-4.015,-4.1685,-4.3286,-4.7273,-5.0706,-5.1383,-5.4306,-5.715,-5.8774,-5.881,-5.9401,-6.163,-6.1621,-6.1829,-6.2849,-6.3713,-6.4364,-6.5006,-6.575,-6.6479,-6.7124,-6.7671,-6.8127,-6.8416,-6.5487,-6.361,-6.3188,-6.0546,-5.9089,-5.9089,-5.8989,-5.8911,-5.8911,-5.8822,-5.8072,-5.6762,-5.6785,-5.5975,-5.4586,-5.4586,-5.4586,-5.4586,-5.4565,-5.4441,-5.4225,-5.4225,-5.4112,-5.3901,-5.3773,-5.2845,-5.1603,-5.1374,-5.0401,-4.9468,-5.0958,-5.1463,-5.1153,-4.9558,-4.9049,-4.9049,-4.9049,-4.8804,-4.8546,-4.8546,-4.8357,-4.8215,-4.8215,-4.8215,-4.8187,-4.8085,-4.797,-4.8246,-4.9565,-4.9675,-4.956,-4.9622,-4.9622,-4.9669,-4.9869,-4.9911,-5.0517,-5.208,-5.3528,-5.447,-5.4659,-5.7238,-5.8459,-5.7392,-5.7115,-5.7014,-5.7014,-5.3874,-5.2664,-5.4093,-5.1098,-4.9398,-4.9436,-4.9413,-4.9402,-4.9402,-4.9055,-4.8835,-4.8743,-4.8418,-4.8908,-3.6482,-3.7207,-3.8026,-3.812,-3.8103,-3.8443,-3.9932,-4.163,-4.3471,-4.5577,-4.9979,-5.3691,-5.4297,-5.6801,-5.8904,-5.9313,-5.9042,-5.9326,-6.1223,-6.1364,-6.1891,-6.3732,-6.4537,-6.5237,-6.5898,-6.6614,-6.7283,-6.7855,-6.8335,-6.8341,-6.7636,-6.6178,-6.5004,-6.4208,-6.188,-6.0661,-6.0728,-5.9826,-5.9417,-5.9417,-5.9457,-5.9114,-5.8445,-5.8523,-5.8176,-5.7463,0.0,-5.7463,-5.7456,-5.7388,-5.6829,-5.6034,-5.6034,-5.5439,-5.4606,-5.4581,-5.4101,-5.3499,-5.3389,-5.296,-5.2534,-5.3183,-5.3425,-5.3262,-5.2471,-5.2256,-5.2016,-5.1098,-5.0702,-5.031,-4.9295,-4.8941,-4.8858,-4.876,-4.8751,-4.8782,-4.8842,-4.945,-5.0157,-5.0853,-5.157,-5.2151,-5.2427,-5.1723,-5.1185,-5.1442,-5.066,-5.096,-5.3706,-5.4407,-5.5012,-5.5937,-5.7337,-5.8245,-5.8434,-5.771,-5.7259,-5.7259,-5.503,-5.405,-5.4682,-5.3287,-5.247,-5.2411,-5.2411,-5.2411,-5.2411,-5.2238,-5.2167,-5.2167,-5.1993,-5.2117,-4.0375,-4.0837,-4.1378,-4.0601,-4.0704,-4.1224,-4.193,-4.3569,-4.5598,-4.7522,-5.1467,-5.4832,-5.5773,-5.7784,-5.9498,-5.9707,-5.9043,-5.9096,-6.0915,-6.1183,-6.1935,-6.3996,-6.5023,-6.5862,-6.6659,-6.7283,-6.7891,-6.8404,-6.878,-6.8448,-6.7238,-6.6751,-6.6086,-6.5053,-6.3378,-6.2361,-6.2001,-6.0752,-5.9931,-5.9546,-5.9612,-5.963,-5.963,-5.9744,-5.9768,-5.9768,-5.9768,-5.9768,-5.9764,-5.9662,-5.8956,-5.7895,-5.7895,-5.7107,-5.6023,-5.5955,-5.566,-5.5416,-5.5871,-5.6098,-5.6045,-5.5485,-5.5303,-5.5227,-5.4738,-5.4616,-5.4351,-5.3092,-5.2752,-5.2307,-5.0547,-5.0069,-4.9929,-4.9414,-4.9606,-4.9843,-4.9477,-5.089,-5.2038,-5.1612,-5.3004,-5.4391,-5.4744,-5.3804,-5.291,-5.2816,-5.1701,-5.1659,-5.3916,-5.413,-5.452,-5.5811,-5.6687,-5.7647,-5.8835,-5.8292,-5.7895,-5.7895,-5.6792,-5.5915,-5.5391,-5.5353,-5.5313,-5.5214,-5.4831,-5.4831,-5.521,-5.4831,-5.4628,-5.4689,-5.4689,-5.4743,-4.3335,-4.2824,-4.2821,-4.2654,-4.3643,-4.4972,-4.6259,-4.7704,-4.8783,-4.8863,-5.0981,-5.3028,-5.3714,-5.5853,-5.8157,-6.0257,-5.9419,-5.9312,-6.1637,-6.2019,-6.2427,-6.3315,-6.5227,-6.6659,-6.736,-6.7891,-6.8404,-6.8929,-6.8993,-6.9036,-6.9068,-6.7546,-6.6771,-6.6906,-6.5254,-6.3639,-6.2038,-6.1925,-6.1118,-5.9663,-5.9901,-6.0023,-6.0023,-6.0061,-6.0061,-6.0061,-6.0061,-6.0061,-6.0061,-6.0061,-5.9985,-5.9909,-5.9909,-5.9871,-5.9757,-5.9494,-5.8557,-5.7631,-5.9226,-5.9796,-5.9491,-5.7757,-5.7208,-5.6894,-5.5143,-5.4616,-5.4616,-5.454,-5.4502,-5.4086,-5.2402,-5.1938,-5.156,-4.9952,-5.0784,-5.1512,-4.9886,-5.2127,-5.3991,-5.2354,-5.4679,-5.6948,-5.6996,-5.6921,-5.6366,-5.4879,-5.4485,-5.3924,-5.277,-5.2496,-5.2491,-5.2696,-5.5372,-5.7243,-5.7436,-5.8607,-5.9374,-5.9374,-5.9304,-5.8536,-5.6932,-5.6834,-5.6823,-5.6834,-5.537,-5.537,-5.6834,-5.5332,-5.4689,-5.478,-5.478,-5.5656,-4.7555,-4.7311,-4.7167,-4.6682,-4.649,-4.6747,-4.7538,-4.8228,-4.8927,-4.9848,-5.304,-5.5418,-5.4787,-5.6973,-5.8834,-5.8672,-5.8082,-5.8273,-6.0149,-6.1602,-6.293,-6.4227,-6.6295,-6.7671,-6.7927,-6.8436,-6.8817,-6.8993,-6.9109,-6.9156,-6.9221,-6.8691,-6.8519,-6.8826,-6.7158,-6.6022,-6.5502,-6.4402,-6.3612,-6.3054,-6.2111,-6.1694,-6.1656,-6.0555,-6.0062,-6.0062,-6.0062,-6.0062,-6.0062,-6.0062,-6.0062,-6.0062,-6.0062,-6.0062,-6.0061,-5.9982,-5.9604,-5.9264,-5.9834,-6.0783,-6.139,-5.964,-5.9107,-5.8992,-5.8298,-5.8105,-5.7878,-5.6815,-5.6473,-5.6315,-5.5669,-5.5468,-5.5568,-5.5968,-5.6518,-5.681,-5.6295,-5.8014,-5.9076,-5.7319,-5.8948,-6.0253,-5.8987,-5.891,-5.8485,-5.6828,-5.9188,-6.0882,-6.0299,-6.0171,-6.0161,-6.0236,-6.1228,-6.1913,-6.1958,-6.2454,-6.2721,-6.2721,-6.2708,-6.2443,-6.1839,-6.1839,-6.1826,-6.1826,-6.1272,-6.1272,-6.1826,-6.1272,-6.0994,-6.105,-6.105,-6.1402,-5.1854,-5.1752,-5.1717,-5.0183,-4.9409,-4.9062,-4.9461,-5.0032,-5.0695,-5.1619,-5.4179,-5.6102,-5.5323,-5.6873,-5.8015,-5.7499,-5.7249,-5.7538,-5.8711,-6.1022,-6.2966,-6.4028,-6.6526,-6.8238,-6.8238,-6.8685,-6.9009,-6.9061,-6.9156,-6.9261,-6.9414,-6.9465,-6.9622,-6.9824,-6.8762,-6.7945,-6.7465,-6.6326,-6.5491,-6.4921,-6.3858,-6.3365,-6.3327,-6.2188,-6.1693,-6.1647,-6.1647,-6.16,-6.1585,-6.1604,-6.1647,-6.1649,-6.1694,-6.1694,-6.1656,-6.1125,-6.1199,-6.1647,-6.1647,-6.2413,-6.3099,-6.1428,-6.0935,-6.0821,-6.0251,-6.0441,-6.0669,-5.9568,-5.9606,-5.9871,-5.9253,-5.9095,-5.9241,-5.9701,-6.022,-6.0535,-6.0041,-6.1676,-6.2739,-6.099,-6.2106,-6.2946,-6.1676,-6.1575,-6.1314,-6.0213,-6.2694,-6.4468,-6.3792,-6.3145,-6.2791,-6.2846,-6.3275,-6.3566,-6.363,-6.4073,-6.4341,-6.4341,-6.4705,-6.4742,-6.4379,-6.4705,-6.5006,-6.5153,-6.4643,-6.4605,-6.5208,-6.4605,-6.4375,-6.44,-6.44,-6.4467,-5.6056,-5.5647,-5.6118,-5.3118,-5.2356,-5.2338,-5.2338,-5.3387,-5.4331,-5.4228,-5.4228,-5.45,-5.5109,-5.5209,-5.5683,-5.6978,-5.7249,-5.7403,-5.7764,-6.0654,-6.2708,-6.2708,-6.6004,-6.8238,-6.8238,-6.8722,-6.9074,-6.9201,-6.9184,-6.9361,-6.9776,-6.979,-6.9824,-6.9971,-6.9971,-6.9173,-6.7541,-6.7541,-6.6706,-6.5073,-6.5073,-6.5073,-6.4997,-6.4997,-6.4911,-6.4739,-6.4739,-6.4678,-6.4561,-6.4657,-6.4733,-6.4739,-6.4876,-6.4921,-6.4731,-6.3289,-6.365,-6.4877,-6.4764,-6.4857,-6.4731,-6.3137,-6.2643,-6.2339,-6.0707,-6.1352,-6.2643,-6.2643,-6.3744,-6.4579,-6.3099,-6.2719,-6.234,-6.0745,-6.1618,-6.234,-6.0707,-6.2833,-6.4617,-6.3023,-6.3972,-6.4997,-6.4921,-6.4921,-6.4921,-6.4921,-6.4891,-6.4232,-6.2443,-6.0669,-5.964,-5.9757,-6.0979,-6.1874,-6.2033,-6.3267,-6.406,-6.4097,-6.5151,-6.5241,-6.4109,-6.5159,-6.6014,-6.6489,-6.4882,-6.4882,-6.6489,-6.4845,-6.4129,-6.4271,-6.4271,-6.4437,-5.6641,-5.713,-5.7736,-5.8871,-5.8736,-5.8199,-5.791,-5.7734,-5.6993,-5.4675,-5.4626,-5.5109,-5.5682,-5.6243,-5.6824,-5.7443,-5.885,-5.9884,-5.9941,-6.3131,-6.5424,-6.5424,-6.7418,-6.878,-6.878,-6.8901,-6.9074,-6.9201,-6.9274,-6.9465,-6.9783,-6.9875,-6.993,-6.9971,-6.9971,-6.9743,-6.9287,-6.9287,-6.9059,-6.8566,-6.8566,-6.7921,-6.6744,-6.6744,-6.606,-6.4878,-6.4878,-6.4835,-6.4823,-6.4752,-6.4733,-6.4726,-6.4678,-6.4659,-6.4735,-6.554,-6.6808,-6.776,-6.5391,-6.5424,-6.6222,-6.4546,-6.4074,-6.4047,-6.3592,-6.3781,-6.4161,-6.4161,-6.4464,-6.4958,-6.5754,-6.605,-6.6288,-6.7047,-6.7617,-6.7807,-6.7351,-6.7958,-6.811,-6.644,-6.6478,-6.6362,-6.5005,-6.4806,-6.4752,-6.464,-6.6539,-6.7786,-6.7264,-6.6686,-6.6339,-6.6409,-6.6393,-6.6578,-6.6977,-6.6702,-6.6664,-6.6993,-6.7002,-6.6824,-6.649,-6.6787,-6.7045,-6.719,-6.7089,-6.7089,-6.719,-6.7089,-6.7085,-6.7099,-6.7099,-6.7333,-6.02,-6.0526,-6.0136,-6.1747,-6.1312,-6.0437,-6.0236,-5.9793,-5.877,-5.6237,-5.6002,-5.6352,-5.6684,-5.7109,-5.7516,-5.7919,-5.9565,-6.092,-6.1125,-6.4245,-6.6477,-6.6477,-6.7973,-6.9035,-6.9085,-6.9072,-6.9177,-6.9445,-6.9528,-6.9631,-6.9867,-6.993,-6.9971,-6.9971,-6.9971,-6.9971,-6.9971,-6.9971,-6.9969,-6.9881,-6.9881,-6.9305,-6.8253,-6.8253,-6.7722,-6.6806,-6.6728,-6.6676,-6.6625,-6.6628,-6.6625,-6.6676,-6.659,-6.6628,-6.6814,-6.7597,-6.8468,-6.9059,-6.7139,-6.7163,-6.7762,-6.6123,-6.5656,-6.5578,-6.4849,-6.5123,-6.5691,-6.5691,-6.6184,-6.6904,-6.7898,-6.8214,-6.8529,-6.9612,-6.9829,-6.9781,-6.9878,-6.9791,-6.9429,-6.8443,-6.8253,-6.7932,-6.6884,-6.6676,-6.6614,-6.6434,-6.7953,-6.9104,-6.9104,-6.9048,-6.8993,-6.8993,-6.8566,-6.8271,-6.8335,-6.7818,-6.7593,-6.7891,-6.7364,-6.7161,-6.744,-6.7202,-6.7161,-6.744,-6.7745,-6.7782,-6.744,-6.7782,-6.7891,-6.7891,-6.7891,-6.8205,-6.4224,-6.3823,-6.229,-6.2594,-6.1642,-6.0577,0.0,-6.0507,-5.9994,-5.8125,-5.7724,-5.7758,-5.7792,-5.7789,-5.7993,-5.8601,-6.0104,-6.1433,-6.2054,-6.4832,-6.6776,-6.6776,-6.8111,-6.9061,-6.9201,-6.9204,-6.9377,-6.9776,-6.979,-6.9862,-6.997,-7.016,-7.0274,-7.0274,-7.0426,-7.054,-7.0501,-7.0501,-7.0413,-7.03,-7.011,-6.9906,-6.9667,-6.9477,-6.9402,-6.9402,-6.9277,-6.9156,-6.9074,-6.9156,-6.9277,-6.9375,-6.9346,-6.949,-6.9679,-6.9187,-6.9085,-6.9181,-6.9181,-6.9259,-6.9119,-6.7745,-6.7291,-6.7017,-6.5529,-6.6096,-6.7282,-6.7282,-6.8302,-6.9375,-6.9375,-6.9388,-6.944,-6.9677,-6.9583,-6.944,-6.9677,-6.9535,-6.9402,-6.9402,-6.9402,-6.9402,-6.9375,-6.9375,-6.9312,-6.9023,-6.8993,-6.8993,-6.8993,-6.8993,-6.8993,-6.8993,-6.8566,-6.7997,-6.7479,-6.732,-6.728,-6.736,-6.674,-6.6651,-6.7239,-6.6695,-6.6651,-6.7239,-6.732,-6.732,-6.728,-6.732,-6.736,-6.736,-6.736,-6.7595,0.0,0.0,0.0,0.0,0.0,0.0,0.0,-6.1976,-6.117,-5.8311,-5.7724,-5.7822,-5.8137,-5.8197,-5.8823,-6.0686,-6.2304,-6.386,-6.5318,-6.7263,-6.8534,-6.8534,-6.887,-6.9198,-6.9221,-6.9291,-6.9478,-6.9776,-6.979,-6.9862,-6.997,-7.1299,-7.2021,-7.2021,-7.335,-7.3951,-7.3716,-7.371,-7.3658,-7.3538,-7.2152,-7.1458,-7.1378,-7.0007,-6.9402,-6.9402,-6.9361,-6.9331,-6.9323,-6.9242,-6.9204,-6.9242,-6.9127,-6.9177,-6.9279,-6.9061,-6.9009,-6.9023,-6.9023,-6.9074,-6.901,-6.8748,-6.8683,-6.8715,-6.8413,-6.8526,-6.879,-6.879,-6.8997,-6.9261,-6.9261,-6.9323,-6.9415,-6.944,-6.9428,-6.9415,-6.9452,-6.9428,-6.9402,-6.9402,-6.9402,-6.9361,-6.9259,-6.9261,-6.9181,-6.9035,-6.8993,-6.8993,-6.8993,-6.8993,-6.8993,-6.8993,-6.8566,-6.7997,-6.7479,-6.6587,-6.6211,-6.6651,-6.6126,-6.5901,-6.6051,-6.5901,-6.5901,-6.6051,-6.6459,-6.6423,-6.6051,-6.6469,-6.6695,-6.6695,-6.6695,-6.674,0.0,0.0,0.0,0.0,0.0,0.0,0.0,0.0,0.0,0.0,0.0,-5.8444,-5.867,0.0,-5.9368,-6.1331,-6.2925,-6.4533,-6.6253,-6.7936,-6.9035,-6.9095,-6.9177,-6.9279,-6.945,-6.9551,-6.9677,-6.9875,-7.0675,-7.1177,-7.1224,-7.2856,-7.3767,-7.3767,-7.448,-7.4795,-7.4638,-7.4567,-7.4446,-7.4236,-7.3424,-7.2935,-7.2852,-7.1121,-7.0388,-7.0351,-6.9523,-6.9221,-6.9201,-6.9127,-6.9134,-6.9181,-6.9074,-6.9048,-6.9095,-6.9035,-6.8993,-6.8993,-6.8993,-6.8993,-6.8993,-6.8993,-6.9048,-6.9119,-6.9119,-6.9119,-6.9119,-6.9119,-6.9119,-6.9119,-6.9119,-6.9156,-6.9223,-6.9257,-6.9241,-6.9223,-6.9274,-6.9241,-6.9221,-6.9221,-6.9221,-6.9181,-6.9142,-6.9119,-6.9085,-6.9046,-6.8993,-6.8993,-6.8993,-6.878,-6.7993,-6.6374,-6.5484,-6.4945,-6.4669,-6.3835,-6.4154,-6.6006,-6.585,-6.5715,-6.5715,-6.5715,-6.5715,-6.5715,-6.5915,-6.5965,-6.5715,-6.5965,-6.6114,-6.6114,-6.6904,-6.7844,0.0,0.0,0.0,0.0,0.0,0.0,0.0,0.0,0.0,0.0,0.0,0.0,0.0,0.0,0.0,-6.1804,-6.3411,-6.5019,-6.6739,-6.816,-6.9048,-6.9156,-6.9204,-6.9361,-6.9706,-6.9797,-6.9871,-6.997,-7.1565,-7.2514,-7.2514,-7.4413,-7.5513,-7.5435,-7.5549,-7.5562,-7.5514,-7.5401,-7.5236,-7.4944,0.0,0.0,-7.4292,-7.2273,-7.1338,-7.1263,-6.9693,-6.8993,-6.8993,-6.8993,-6.9061,-6.9156,-6.9048,-6.8993,-6.8993,-6.8993,-6.8993,-6.8993,-6.8993,-6.8993,-6.8993,-6.8993,-6.8993,-6.8993,-6.8993,-6.8993,0.0,-6.8993,-6.8993,-6.8993,-6.8993,-6.8993,-6.9035,-6.9149,-6.9085,-6.8997,-6.9171,-6.9085,-6.8993,-6.8993,-6.8993,-6.8993,-6.8993,-6.8993,-6.8795,-6.816,-6.8609,-6.8731,-6.7978,-6.8096,-6.72,-6.4426,-6.3293,-6.2684,-6.2684,-6.1671,-6.2362,-6.5501,-6.5144,-6.493,-6.5251,-6.5251,-6.5251,-6.5251,-6.5251,-6.5394,-6.5715,-6.5715,-6.5858,-6.6179,-6.6857,-6.8408,0.0,0.0,0.0,0.0,0.0,0.0,0.0,0.0,0.0,0.0,0.0,0.0,0.0,0.0,0.0,0.0,-6.5094,-6.6776,-6.8496,-6.8908,-6.902,-6.9035,-6.9242,-6.9388,-6.9428,-6.9738,-6.997,-6.9971,-7.1565,-7.2514,-7.2514,-7.5552,0.0,0.0,0.0,-7.8966,-7.8606,-7.8601,-7.8439,-7.8165,-7.678,-7.6144,-7.6012,-7.2796,-7.1338,-7.1263,-6.9693,-6.8993,-6.8993,-6.8993,-6.8982,-6.9035,-6.902,-6.8993,-6.8993,-6.8993,-6.8993,-6.8993,-6.8993,0.0,0.0,-6.8993,-6.8993,-6.8993,-6.8993,-6.8993,-6.8993,-6.8993,-6.8993,-6.8993,-6.8993,-6.8993,-6.902,-6.9009,-6.9046,-6.902,-6.9009,-6.9046,-6.8993,-6.8993,-6.8993,-6.8993,-6.8993,-6.8993,-6.801,-6.4982,-6.7076,-6.7764,-6.429,-6.6385,-6.7921,-6.708,0.0,0.0,-6.5972,-6.2928,-6.2362,-6.5501,-6.3075,-6.2183,-6.361,-6.3646,-6.3646,-6.3646,-6.3646,-6.4324,-6.5715,-6.5715,-6.6429,-6.7695,-6.5109,-6.5501,0.0,0.0,0.0,0.0,0.0,0.0,0.0,0.0,0.0,0.0,0.0,0.0,0.0,0.0,0.0,0.0,-6.4368,-6.5617,-6.73,-6.8384,-6.8997,-6.9081,-6.9204,-6.9354,-6.9594,-6.9765,-6.9881,-6.997,-7.1565,-7.2514,-7.2514,-7.4632,-7.6275,-7.7141,-7.7641,-7.8272,-7.9121,-7.8965,-7.8841,-7.8704,-7.8068,-7.7245,-7.6311,-7.3918,-7.2273,-7.1263,-6.9693,-6.8993,-6.8993,-6.8993,-6.8993,0.0,0.0,0.0,0.0,0.0,-6.8993,-6.8993,-6.8993,-6.8993,-6.8993,-6.8993,-6.8993,-6.8993,-6.8993,-6.8993,-6.8993,-6.8993,-6.8993,-6.8993,-6.8993,-6.8993,-6.8993,-6.8993,-6.8993,-6.8993,-6.8993,-6.8993,-6.8993,-6.8993,-6.8993,0.0,-6.8993,-6.8993,-6.8416,-6.6698,-6.7636,-6.7853,-6.5902,-6.6562,-6.6434,-6.4405,-6.3666,-6.3334,-6.3334,-6.1913,0.0,0.0,0.0,-6.4038,-6.4716,-6.4752,0.0,0.0,0.0,-6.3254,-6.3004,-6.3004,0.0,0.0,-6.3952,-6.5021,0.0,0.0,0.0,0.0,0.0,0.0,0.0,0.0,0.0,0.0,0.0,0.0,0.0,0.0,0.0,0.0,-6.3766,-6.5031,-6.6111,-6.7434,-6.8349,-6.8436,-6.888,-6.9161,-6.9044,-6.9511,-6.9857,-6.997,-7.1565,-7.2514,-7.2514,-7.3856,-7.5207,-7.6378,-7.6137,-7.6502,-7.7663,-7.7464,-7.7619,-7.8068,-7.7619,-7.7021,-7.6311,-7.4628,-7.2946,-7.1301,-7.0141,-6.9394,-6.8993,-6.8993,-6.8993,-6.8993,-6.8993,-6.8993,-6.8993,-6.8993,-6.8993,-6.8993,-6.8993,-6.8993,-6.8993,-6.8993,-6.8993,-6.8993,-6.8993,-6.8993,-6.8993,-6.8993,-6.8993,-6.8993,-6.8993,-6.8993,-6.8993,-6.8993,-6.8993,-6.8993,-6.8993,-6.8993,-6.8993,-6.8993,-6.8993,-6.8993,-6.8993,-6.8874,-6.8358,-6.7047,-6.7508,-6.7487,-6.6032,-6.6195,-6.5745,-6.372,-6.2797,-6.2469,-6.2932,-6.1755,-6.2362,-6.5501,-6.4895,-6.5002,-6.6286,-6.5537,-6.5147,-6.5379,-6.3834,-6.2375,0.0,0.0,0.0,0.0,0.0,0.0,0.0,0.0,0.0,0.0,0.0,0.0,0.0,0.0,0.0,0.0,0.0,0.0,0.0,0.0,0.0,0.0,0.0,0.0,-6.5798,-6.6216,-6.6578,-6.654,-6.8113,-6.8656,-6.7297,-6.875,-6.9857,-6.997,-7.1565,-7.2514,-7.2514,-7.3856,-7.4605,-7.4535,-7.4387,-7.4229,-7.4058,-7.403,-7.4852,-7.6423,-7.4778,-7.4852,-7.6311,-7.4628,-7.2946,-7.1338,-7.1301,-7.0403,-6.8993,-6.8993,-6.8993,-6.8993,-6.8993,-6.8993,-6.8993,-6.8993,-6.8993,-6.8993,-6.8993,-6.8993,-6.8993,-6.8993,-6.8993,-6.8993,-6.8993,-6.8993,-6.8993,-6.8993,-6.8993,-6.8993,-6.8993,-6.8993,-6.8993,-6.8993,-6.8993,-6.8993,-6.8993,-6.8993,-6.8993,-6.8993,-6.8993,-6.8993,-6.8993,-6.8596,-6.7126,-6.3833,-6.5682,0.0,-6.2301,-6.4543,-6.686,-6.7731,-6.6464,-6.6179,-6.7659,-6.3646,-6.2362,-6.5501,-6.2861,-6.3218,-6.7766,-6.5073,-6.3799,-6.4527,-6.3053,-6.1869,-6.1006,0.0,0.0,0.0,0.0,0.0,0.0,0.0,0.0,0.0,0.0,0.0,0.0,0.0,0.0,0.0,0.0,0.0,0.0,0.0,0.0,0.0,0.0,0.0,0.0,-6.5196,-6.6114,-6.6414,-6.7026,-6.6884,-6.5518,-6.6965,-6.8063,-6.83,-6.9895,-7.0844,-7.0844,-7.1195,-7.1858,-7.2716,-7.2634,-7.3004,-7.388,-7.388,-7.4703,-7.6385,-7.5787,-7.5825,-7.6348,-7.5787,-7.4628,-7.302,-7.302,-7.2721,-7.2123,-7.1001,-6.9955,-6.8993,-6.8993,-6.8993,-6.8993,-6.8993,-6.8993,-6.8993,-6.8993,-6.8993,-6.8993,-6.8993,-6.8993,-6.8993,-6.8993,-6.8993,-6.8993,-6.8993,-6.8993,-6.8993,-6.8993,-6.8993,-6.8993,-6.8993,-6.8993,-6.8993,-6.8993,-6.8993,-6.8993,-6.8993,-6.8722,-6.7792,-6.5619,-6.6657,-6.6492,-6.2853,-6.4879,-6.6561,-6.5951,-6.6832,-6.8069,-6.9533,-6.9247,-6.914,-6.9675,-6.8248,-6.7784,-6.8855,-6.7287,-6.7035,-6.8621,-6.6994,-6.6205,-6.6466,-6.5982,-6.3617,-5.9454,0.0,0.0,0.0,0.0,0.0,0.0,0.0,0.0,0.0,0.0,0.0,0.0,0.0,0.0,0.0,0.0,0.0,0.0,0.0,0.0,0.0,0.0,0.0,0.0,0.0,0.0,-6.5284,-6.6052,0.0,-6.4674,-6.5519,-6.6278,-6.6553,-6.7579,-6.8452,-6.9059,-6.8892,-6.9497,-7.0977,-7.0842,-7.1209,-7.2123,-7.2123,-7.2946,-7.4591,-7.4591,-7.4927,-7.5525,-7.6124,-7.5451,-7.3918,-7.4516,-7.4067,-7.2871,-7.1787,-7.0441,-6.8945,-6.8347,-6.7749,-6.73,-6.7898,-6.8122,-6.8197,-6.8795,-6.8993,-6.8993,-6.8993,-6.8197,-6.7225,-6.7225,-6.6403,-6.573,-6.6889,-6.7225,-6.7487,-6.8721,-6.8993,-6.8993,-6.8993,-6.8993,-6.8993,-6.8993,-6.8993,-6.8833,-6.8235,-6.7703,-6.6491,-6.3837,-6.4505,-6.4592,-6.2188,-6.3802,-6.5993,-6.7784,-6.8569,-6.9568,-7.1209,-7.0888,-7.0781,-7.1316,-7.0853,-7.0567,-7.0567,-6.9599,-6.9247,-6.9807,-6.8298,-6.7095,-6.6336,-6.5587,-6.2637,0.0,0.0,0.0,0.0,0.0,0.0,0.0,0.0,0.0,0.0,0.0,0.0,0.0,0.0,0.0,0.0,0.0,0.0,0.0,0.0,0.0,0.0,0.0,0.0,0.0,0.0,0.0,-6.3102,-6.5023,0.0,0.0,0.0,0.0,-6.4768,-6.4883,-6.5643,-6.7237,-6.7099,-6.7675,-6.9213,-6.9043,-6.8971,-6.902,-6.8993,-6.9805,-7.1338,-7.1413,-7.2347,-7.403,-7.5712,-7.5638,-7.4179,-7.5712,-7.4553,-7.16,-7.1338,-7.0291,-6.8721,-6.7001,-6.5356,-6.4159,-6.5767,-6.6328,-6.659,-6.8309,-6.887,-6.887,-6.8721,-6.6477,-6.3785,-6.3561,-6.1318,0.0,0.0,-6.3598,-6.4384,-6.7861,-6.8758,-6.8795,-6.8956,-6.8993,-6.8982,-6.8908,-6.887,-6.8347,0.0,-6.5776,-6.4865,-6.2998,0.0,-6.1379,-6.1234,-6.2353,-6.4395,-6.7481,-6.9533,-7.1281,-7.2815,-7.1673,-7.1388,-7.2908,-7.1637,-7.0781,-7.0725,-6.975,-6.9849,-7.1254,-6.8715,-6.6333,-6.4259,-6.1968,0.0,0.0,0.0,0.0,0.0,0.0,0.0,0.0,0.0,0.0,0.0,0.0,0.0,0.0,0.0,0.0,0.0,0.0,0.0,0.0,0.0,0.0,0.0,0.0,0.0,0.0,-5.9158,-6.0865,-6.1928,-6.254,-6.23,0.0,0.0,0.0,0.0,0.0,0.0,-6.5529,-6.5521,-6.6149,-6.7624,-6.7586,-6.8035,-6.902,-6.8993,-6.9805,-7.1375,-7.2609,-7.4105,-7.5787,-7.7395,-7.7881,-7.7432,-7.6685,-7.5899,-7.4815,-7.1151,-6.8609,-6.6963,-6.5244,-6.4346,-6.401,-6.4421,-6.4608,-6.4832,-6.6552,-6.7113,-6.6739,-6.4309,-6.2925,-6.1542,-5.7841,0.0,0.0,0.0,0.0,-5.9486,-6.4084,-6.5244,-6.5879,-6.8422,-6.8993,-6.8683,-6.7375,-6.7113,-6.6201,0.0,-6.2,-5.9946,-5.4463,0.0,0.0,-5.2908,-5.7753,-6.2754,-6.5894,-6.9782,-7.2886,-7.4456,-7.4277,-7.4206,-7.4599,-7.4242,-7.3719,-7.2959,-7.1966,-7.1294,-7.0927,-6.749,-6.4514,-6.2382,0.0,0.0,0.0,0.0,0.0,0.0,0.0,0.0,0.0,0.0,0.0,0.0,0.0,0.0,0.0,0.0,0.0,0.0,0.0,0.0,0.0,0.0,0.0,0.0,0.0,0.0,0.0,-5.4264,-5.8593,-6.078,-6.1369,-6.1326,0.0,0.0,0.0,0.0,0.0,0.0,0.0,0.0,0.0,-6.6013,-6.5869,-6.6474,-6.7961,-6.7912,-6.8721,-7.0328,-7.1974,-7.3282,-7.4217,-7.5825,-7.661,-7.6535,-7.5675,-7.4479,-7.2908,-6.9356,-6.6515,-6.4271,0.0,0.0,0.0,0.0,-6.1841,-6.1991,-6.2925,-6.3262,-6.2813,-6.0233,0.0,0.0,0.0,0.0,0.0,0.0,0.0,0.0,0.0,0.0,-6.3785,-6.7113,-6.7337,-6.6552,-6.558,-6.3112,-6.0461,0.0,-5.7405,-5.5411,-5.02,0.0,0.0,0.0,0.0,-6.1398,-6.5216,-7.0496,-7.4242,-7.5134,-7.5241,-7.5241,-7.5241,-7.4831,-7.4286,-7.3694,-7.2404,-7.1079,-6.9844,-6.5757,-6.1945,0.0,0.0,0.0,0.0,0.0,0.0,0.0,0.0,0.0,0.0,0.0,0.0,0.0,0.0,0.0,0.0,0.0,0.0,0.0,0.0,0.0,0.0,0.0,0.0,0.0,0.0,0.0,0.0,0.0,-5.5259,-5.9514,0.0,0.0,0.0,0.0,0.0,0.0,0.0,0.0,0.0,0.0,0.0,0.0,0.0,-6.5005,-6.67,-6.6815,-6.7613,-6.9035,-7.0644,-7.1365,-7.1413,-7.2871,-7.3656,-7.3806,-7.2721,0.0,-6.8235,-6.6552,0.0,0.0,0.0,0.0,0.0,0.0,0.0,0.0,0.0,0.0,0.0,0.0,0.0,0.0,0.0,0.0,0.0,0.0,0.0,0.0,0.0,0.0,-6.1485,-6.4494,-6.4245,-6.2973,0.0,-5.728,-5.3329,-5.2484,-5.2311,0.0,0.0,0.0,0.0,0.0,0.0,0.0,-6.4282,-7.0786,-7.5109,-7.5205,-7.5241,-7.5241,-7.5241,-7.4286,-7.3592,-7.3525,-7.1264,-6.926,-6.787,-6.3574,0.0,0.0,0.0,0.0,0.0,0.0,0.0,0.0,0.0,0.0,0.0,0.0,0.0,0.0,0.0,0.0,0.0,0.0,0.0,0.0,0.0,0.0,0.0,0.0,0.0,0.0,0.0,0.0,0.0,0.0,0.0,0.0,0.0,0.0,0.0,0.0,0.0,0.0,0.0,0.0,0.0,0.0,0.0,0.0,0.0,0.0,0.0,0.0,0.0,0.0,-7.0869,-7.1558,-7.1375,-7.1674,-7.2534,-7.3506,-6.6702,-6.4159,-6.472,-6.3112,0.0,0.0,0.0,0.0,0.0,0.0,0.0,0.0,0.0,0.0,0.0,0.0,0.0,0.0,0.0,0.0,0.0,0.0,0.0,0.0,0.0,0.0,0.0,0.0,-5.9308,-5.7824,-4.9521,0.0,0.0,0.0,0.0,0.0,0.0,0.0,0.0,0.0,0.0,0.0,-5.9874,-6.8241,-7.4257,-7.5122,-7.5241,-7.5241,-7.5241,-7.4286,-7.3322,-7.2621,-6.8067,-6.5007,0.0,0.0,0.0,0.0,0.0,0.0,0.0,0.0,0.0,0.0,0.0,0.0,0.0,0.0,0.0,0.0,0.0,0.0,0.0,0.0,0.0,0.0,0.0,0.0,0.0,0.0,0.0,0.0,0.0,0.0,0.0,0.0,0.0,0.0,0.0,0.0,0.0,0.0,0.0,0.0,0.0,0.0,0.0,0.0,0.0,0.0,0.0,0.0,0.0,0.0,0.0,0.0,0.0,0.0,0.0,0.0,0.0,0.0,0.0,-5.9484,0.0,0.0,0.0,0.0,0.0,0.0,0.0,0.0,0.0,0.0,0.0,0.0,0.0,0.0,0.0,0.0,0.0,0.0,0.0,0.0,0.0,0.0,0.0,0.0,0.0,0.0,0.0,0.0,0.0,0.0,0.0,0.0,0.0,0.0,0.0,0.0,0.0,0.0,0.0,0.0,-5.7514,-6.6366,-7.278,-7.3872,-7.4741,-7.5241,-7.5241,-7.3795,-7.1794,-6.906,-6.5519,0.0,0.0,0.0,0.0,0.0,0.0,0.0,0.0,0.0,0.0,0.0,0.0,0.0,0.0,0.0,0.0,0.0,0.0,0.0,0.0,0.0,0.0,0.0,0.0,0.0,0.0,0.0,0.0,0.0,0.0,0.0,0.0,0.0,0.0,0.0,0.0,0.0,0.0,0.0,0.0,0.0,0.0,0.0,0.0,0.0,0.0,0.0,0.0,0.0,0.0,0.0,0.0,0.0,0.0,0.0,0.0,0.0,0.0,0.0,-5.7611,0.0,0.0,0.0,0.0,0.0,0.0,0.0,0.0,0.0,0.0,0.0,0.0,0.0,0.0,0.0,0.0,0.0,0.0,0.0,0.0,0.0,0.0,0.0,0.0,0.0,0.0,0.0,0.0,0.0,0.0,0.0,0.0,0.0,0.0,0.0,0.0,0.0,0.0,0.0,0.0,0.0,-5.6715,-6.5119,-7.1384,-7.2885,-7.4359,-7.5145,-7.4928,-7.3288,-7.0297,-6.5688,-6.2473,0.0,0.0,0.0,0.0,0.0,0.0,0.0,0.0,0.0,0.0,0.0,0.0,0.0,0.0,0.0,0.0,0.0,0.0,0.0,0.0,0.0,0.0,0.0,0.0,0.0,0.0,0.0,0.0,0.0,0.0,0.0,0.0,0.0,0.0,0.0,0.0,0.0,0.0,0.0,0.0,0.0,0.0,0.0,0.0,0.0,0.0,0.0,0.0,0.0,0.0,0.0,0.0,0.0,0.0,0.0,0.0,0.0,0.0,0.0,0.0,0.0,0.0,0.0,0.0,0.0,0.0,0.0,0.0,0.0,0.0,0.0,0.0,0.0,0.0,0.0,0.0,0.0,0.0,0.0,0.0,0.0,0.0,0.0,0.0,0.0,0.0,0.0,0.0,0.0,0.0,0.0,0.0,0.0,0.0,0.0,0.0,0.0,0.0,0.0,0.0,0.0,-5.7602,-6.4948,-7.0747,-7.3329,-7.4553,-7.4831,-7.3927,-7.2906,-7.0042,-6.4784,0.0,0.0,0.0,0.0,0.0,0.0,0.0,0.0,0.0,0.0,0.0,0.0,0.0,0.0,0.0,0.0,0.0,0.0,0.0,0.0,0.0,0.0,0.0,0.0,0.0,0.0,0.0,0.0,0.0,0.0,0.0,0.0,0.0,0.0,0.0,0.0,0.0,0.0,0.0,0.0,0.0,0.0,0.0,0.0,0.0,0.0,0.0,0.0,0.0,0.0,0.0,0.0,0.0,0.0,0.0,0.0,0.0,0.0,0.0,0.0,0.0,0.0,0.0,0.0,0.0,0.0,0.0,0.0,0.0,0.0,0.0,0.0,0.0,0.0,0.0,0.0,0.0,0.0,0.0,0.0,0.0,0.0,0.0,0.0,0.0,0.0,0.0,0.0,0.0,0.0,0.0,0.0,0.0,0.0,0.0,0.0,0.0,0.0,0.0,0.0,0.0,0.0,-5.4532,-6.1814,-6.7599,-7.0016,-7.2414,-7.38,-7.3655,-7.1968,-6.7673,-6.0104,0.0,0.0,0.0,0.0,0.0,0.0,0.0,0.0,0.0,0.0,0.0,0.0,0.0,0.0,0.0,0.0,0.0,0.0,0.0,0.0,0.0,0.0,0.0,0.0,0.0,0.0,0.0,0.0,0.0,0.0,0.0,0.0,0.0,0.0,0.0,0.0,0.0,0.0,0.0,0.0,0.0,0.0,0.0,0.0,0.0,0.0,0.0,0.0,0.0,0.0,0.0,0.0,0.0,0.0,0.0,0.0,0.0,0.0,0.0,0.0,0.0,0.0,0.0,0.0,0.0,0.0,0.0,0.0,0.0,0.0,0.0,0.0,0.0,0.0,0.0,0.0,0.0,0.0,0.0,0.0,0.0,0.0,0.0,0.0,0.0,0.0,0.0,0.0,0.0,0.0,0.0,0.0,0.0,0.0,0.0,0.0,0.0,0.0,0.0,0.0,0.0,0.0,-5.3504,-6.0284,-6.5545,-6.7579,-7.023,-7.1804,-7.1922,-7.0096,-6.5096,-5.6042,0.0,0.0,0.0,0.0,0.0,0.0,0.0,0.0,0.0,0.0,0.0,0.0,0.0,0.0,0.0,0.0,0.0,0.0,0.0,0.0,0.0,0.0,0.0,0.0,0.0,0.0,0.0,0.0,0.0,0.0,0.0,0.0,0.0,0.0,0.0,0.0,0.0,0.0,0.0,0.0,0.0,0.0,0.0,0.0,0.0,0.0,0.0,0.0,0.0,0.0,0.0,0.0,0.0,0.0,0.0,0.0,0.0,0.0,0.0,0.0,0.0,0.0,0.0,0.0,0.0,0.0,0.0,0.0,0.0,0.0,0.0,0.0,0.0,0.0,0.0,0.0,0.0,0.0,0.0,0.0,0.0,0.0,0.0,0.0,0.0,0.0,0.0,0.0,0.0,0.0,0.0,0.0,0.0,0.0,0.0,0.0,0.0,0.0,0.0,0.0,0.0,0.0,-5.6194,-6.1537,-6.5533,-6.7104,-6.8445,-6.8812,-6.7819,-6.7007,-6.2626,0.0,0.0,0.0,0.0,0.0,0.0,0.0,0.0,0.0,0.0,0.0,0.0,0.0,0.0,0.0,0.0,0.0,0.0,0.0,0.0,0.0,0.0,0.0,0.0,0.0,0.0,0.0,0.0,0.0,0.0,0.0,0.0,0.0,0.0,0.0,0.0,0.0,0.0,0.0,0.0,0.0,0.0,0.0,0.0,0.0,0.0,0.0,0.0,0.0,0.0,0.0,0.0,0.0,0.0,0.0,0.0,0.0,0.0,0.0,0.0,0.0,0.0,0.0,0.0,0.0,0.0,0.0,0.0,0.0,0.0,0.0,0.0,0.0,0.0,0.0,0.0,0.0,0.0,0.0,0.0,0.0,0.0,0.0,0.0,0.0,0.0,0.0,0.0,0.0,0.0,0.0,0.0,0.0,0.0,0.0,0.0,0.0,0.0,0.0,0.0,0.0,0.0,0.0,-5.281,-5.8349,-6.2596,-6.4893,-6.7082,-6.8185,-6.7681,-6.6513,-6.1893,-5.2633,0.0,0.0,0.0,0.0,0.0,0.0,0.0,0.0,0.0,0.0,0.0,0.0,0.0,0.0,0.0,0.0,0.0,0.0,0.0,0.0,0.0,0.0,0.0,0.0,0.0,0.0,0.0,0.0,0.0,0.0,0.0,0.0,0.0,0.0,0.0,0.0,0.0,0.0,0.0,0.0,0.0,0.0,0.0,0.0,0.0,0.0,0.0,0.0,0.0,0.0,0.0,0.0,0.0,0.0,0.0,0.0,0.0,0.0,0.0,0.0,0.0,0.0,0.0,0.0,0.0,0.0,0.0,0.0,0.0,0.0,0.0,0.0,0.0,0.0,0.0,0.0,0.0,0.0,0.0,0.0,0.0,0.0,0.0,0.0,0.0,0.0,0.0,0.0,0.0,0.0,0.0,0.0,0.0,0.0,0.0,0.0,0.0,0.0,0.0,0.0,0.0,0.0,0.0,-5.6645,-6.108,-6.2452,-6.418,-6.4961,-6.4302,-6.3154,-5.8762,-5.0011,0.0,0.0,0.0,0.0,0.0,0.0,0.0,0.0,0.0,0.0,0.0,0.0,0.0,0.0,0.0,0.0,0.0,0.0,0.0,0.0,0.0,0.0,0.0,0.0,0.0,0.0,0.0,0.0,0.0,0.0,0.0,0.0,0.0,0.0,0.0,0.0,0.0,0.0,0.0,0.0,0.0,0.0,0.0,0.0,0.0,0.0,0.0,0.0,0.0,0.0,0.0,0.0,0.0,0.0,0.0,0.0,0.0,0.0,0.0,0.0,0.0,0.0,0.0,0.0,0.0,0.0,0.0,0.0,0.0,0.0,0.0,0.0,0.0,0.0,0.0,0.0,0.0,0.0,0.0,0.0,0.0,0.0,0.0,0.0,0.0,0.0,0.0,0.0,0.0,0.0,0.0,0.0,0.0,0.0,0.0,0.0,0.0,0.0,0.0,0.0,0.0,0.0,0.0,-5.5765,-6.0294,-6.0061,-6.0355,-6.0051,-5.882,-5.7901,-5.3988,-4.6048,-4.1732,0.0,0.0,0.0,0.0,0.0,0.0,0.0,0.0,0.0,0.0,0.0,0.0,0.0,0.0,0.0,0.0,0.0,0.0,0.0,0.0,0.0,0.0,0.0,0.0,0.0,0.0,0.0,0.0,0.0,0.0,0.0,0.0,0.0,0.0,0.0,0.0,0.0,0.0,0.0,0.0,0.0,0.0,0.0,0.0,0.0,0.0,0.0,0.0,0.0,0.0,0.0,0.0,0.0,0.0,0.0,0.0,0.0,0.0,0.0,0.0,0.0,0.0,0.0,0.0,0.0,0.0,0.0,0.0,0.0,0.0,0.0,0.0,0.0,0.0,0.0,0.0,0.0,0.0,0.0,0.0,0.0,0.0,0.0,0.0,0.0,0.0,0.0,0.0,0.0,0.0,0.0,0.0,0.0,0.0,0.0,0.0,0.0,0.0,0.0,0.0,0.0,0.0,-5.0551,-5.5148,-5.959,-6.0914,-6.0744,-5.8879,-5.776,-5.349,-4.4894,-4.0249,0.0,0.0,0.0,0.0,0.0,0.0,0.0,0.0,0.0,0.0,0.0,0.0,0.0,0.0,0.0,0.0,0.0,0.0,0.0,0.0,0.0,0.0,0.0,0.0,0.0,0.0,0.0,0.0,0.0,0.0,0.0,0.0,0.0,0.0,0.0,0.0,0.0,0.0,0.0,0.0,0.0,0.0,0.0,0.0,0.0,0.0,0.0,0.0,0.0,0.0,0.0,0.0,0.0,0.0,0.0,0.0,0.0,0.0,0.0,0.0,0.0,0.0,0.0,0.0,0.0,0.0,0.0,0.0,0.0,0.0,0.0,0.0,0.0,0.0,0.0,0.0,0.0,0.0,0.0,0.0,0.0,0.0,0.0,0.0,0.0,0.0,0.0,0.0,0.0,0.0,0.0,0.0,0.0,0.0,0.0,0.0,0.0,0.0,0.0,0.0,0.0,0.0,-3.4575,-4.4867,-5.6914,-5.9231,-5.9023,-5.6865,-5.5145,-5.0948,-4.3396,-3.6008,0.0,0.0,0.0,0.0,0.0,0.0,0.0,0.0,0.0,0.0,0.0,0.0,0.0,0.0,0.0,0.0,0.0,0.0,0.0,0.0,0.0,0.0,0.0,0.0,0.0,0.0,0.0,0.0,0.0,0.0,0.0,0.0,0.0,0.0,0.0,0.0,0.0,0.0,0.0,0.0,0.0,0.0,0.0,0.0,0.0,0.0,0.0,0.0,0.0,0.0,0.0,0.0,0.0,0.0,0.0,0.0,0.0,0.0,0.0,0.0,0.0,0.0,0.0,0.0,0.0,0.0,0.0,0.0,0.0,0.0,0.0,0.0,0.0,0.0,0.0,0.0,0.0,0.0,0.0,0.0,0.0,0.0,0.0,0.0,0.0,0.0,0.0,0.0,0.0,0.0,0.0,0.0,0.0,0.0,0.0,0.0,0.0,0.0,0.0,0.0,0.0,0.0,0.0,-3.2729,-5.0056,-5.5327,-5.666,-5.4293,-5.1621,-4.7214,-4.0733,0.0,0.0,0.0,0.0,0.0,0.0,0.0,0.0,0.0,0.0,0.0,0.0,0.0,0.0,0.0,0.0,0.0,0.0,0.0,0.0,0.0,0.0,0.0,0.0,0.0,0.0,0.0,0.0,0.0,0.0,0.0,0.0,0.0,0.0,0.0,0.0,0.0,0.0,0.0,0.0,0.0,0.0,0.0,0.0,0.0,0.0,0.0,0.0,0.0,0.0,0.0,0.0,0.0,0.0,0.0,0.0,0.0,0.0,0.0,0.0,0.0,0.0,0.0,0.0,0.0,0.0,0.0,0.0,0.0,0.0,0.0,0.0,0.0,0.0,0.0,0.0,0.0,0.0,0.0,0.0,0.0,0.0,0.0,0.0,0.0,0.0,0.0,0.0,0.0,0.0,0.0,0.0,0.0,0.0,0.0,0.0,0.0,0.0,0.0,0.0,0.0,0.0,0.0,0.0,-2.3447,-3.233,-4.7549,-5.6084,-5.3583,-4.9328,-4.3284,-3.5086,0.0,0.0,0.0,0.0,0.0,0.0,0.0,0.0,0.0,0.0,0.0,0.0,0.0,0.0]}],[{"header":{"parameterUnit":"kt","parameterCategory":2,"dx":1,"dy":1,"la1":29.285339999999998,"la2":30.599998999999997,"lo1":-89.70041500000002,"lo2":-87.6738589999976,"nx":112,"ny":82,"refTime":"2022-10-06T00:00:00:Z","depth":0,"parameterNumber":2,"parameterNumberName":"V-component_of_WINDS"},"data":[6.8541,6.8695,0.0,6.2662,6.1385,0.0,5.5336,0.0,5.4441,0.0,0.0,0.0,0.0,0.0,0.0,0.0,0.0,0.0,0.0,4.252,0.0,0.0,0.0,0.0,0.0,0.0,0.0,0.0,0.0,0.0,0.0,0.0,6.1195,6.1195,6.1195,6.1195,6.1195,6.1195,6.1195,6.1195,6.1195,6.1195,6.1195,6.1195,6.1195,6.1166,5.9566,5.8574,5.786,5.613,5.4943,5.441,5.7888,5.8543,5.8087,6.2525,6.3851,6.341,6.2346,6.1379,6.0805,6.0805,6.0396,5.9693,5.9154,5.8858,5.871,5.8036,5.791,5.791,5.791,5.791,5.791,5.791,5.791,5.791,5.791,5.791,5.791,5.791,5.791,5.8032,5.8398,5.8472,5.835,5.7984,5.791,5.791,5.791,5.791,5.791,5.791,5.791,5.8081,5.8447,5.8813,5.9033,5.9033,5.9033,5.9033,5.9033,5.9033,5.8325,5.6861,5.7203,5.6153,5.3591,5.3981,5.3615,5.2566,5.2566,5.2932,0.0,0.0,6.6194,6.0879,0.0,0.0,0.0,0.0,0.0,0.0,0.0,0.0,0.0,0.0,0.0,0.0,0.0,0.0,0.0,0.0,0.0,0.0,0.0,0.0,0.0,0.0,0.0,0.0,0.0,0.0,0.0,6.1195,6.1195,6.1195,6.1195,6.1195,6.1195,6.1195,6.1195,6.1195,6.1195,6.1195,6.1195,6.1195,6.1195,6.1166,6.02,5.9334,5.872,5.7109,5.5806,5.52,5.8792,5.9474,5.8871,6.2171,6.2905,6.2267,6.1067,6.0251,5.9839,6.0541,6.066,6.0516,5.9277,5.9277,5.9571,5.8336,5.791,5.791,5.791,5.791,5.791,5.791,5.791,5.791,5.791,5.791,5.791,5.791,5.791,5.791,5.791,5.791,5.791,5.791,5.791,5.791,5.791,5.791,5.791,5.791,5.791,5.791,5.791,5.791,5.791,5.791,5.791,5.791,5.791,5.791,5.7569,5.6812,5.6788,5.5909,5.4128,5.4128,5.3566,5.2517,5.2517,5.2883,6.6917,0.0,6.4144,5.8925,5.7019,5.5632,5.2574,5.1818,5.1357,4.9976,0.0,0.0,0.0,0.0,0.0,0.0,0.0,0.0,0.0,0.0,0.0,0.0,0.0,0.0,0.0,0.0,0.0,0.0,0.0,0.0,6.0731,6.1195,6.1195,6.1195,6.1195,6.1195,6.1195,6.1195,6.1166,6.1108,6.1166,6.1166,6.1108,6.1166,6.1195,6.1195,6.1195,6.0315,5.8837,5.723,5.5535,5.4069,5.5226,5.6464,5.8327,6.4665,6.6606,6.6143,6.6143,6.4885,6.3521,6.5317,6.5983,6.5317,6.1844,6.1985,6.2548,5.9006,5.791,5.791,5.791,5.791,5.791,5.791,5.791,5.791,5.791,5.791,5.791,5.791,5.791,5.791,5.791,5.791,5.791,5.791,5.791,5.791,5.791,5.791,5.791,5.791,5.791,5.791,5.791,5.791,5.791,5.791,5.791,5.791,5.791,5.791,5.791,5.791,5.791,5.7349,5.6226,5.6226,5.569,5.464,5.4713,5.4713,6.3693,6.3601,6.2917,5.9841,5.8483,5.6848,5.2804,5.0272,4.8661,4.8267,4.5496,0.0,0.0,0.0,0.0,0.0,0.0,4.3969,0.0,4.56,0.0,0.0,0.0,0.0,0.0,0.0,0.0,0.0,0.0,5.4735,6.0847,6.1195,6.1195,6.1195,6.1195,6.1195,6.1195,6.1195,6.0813,5.9854,6.0842,6.0784,5.9883,6.0842,6.1195,6.1195,6.1195,6.0315,5.8955,5.9566,5.8745,5.7032,5.9881,6.1139,6.1578,6.5596,6.6606,6.6143,6.6143,6.407,6.1444,6.1985,6.3106,6.3934,6.2967,6.1985,6.1158,6.02,5.9006,5.791,5.791,5.791,5.791,5.791,5.791,5.791,5.791,5.791,5.791,5.791,5.791,5.791,5.791,5.791,5.791,5.791,5.791,5.791,5.791,5.791,5.791,5.791,5.791,5.791,5.791,5.791,5.791,5.791,5.791,5.791,5.791,5.791,5.791,5.791,5.791,5.7349,5.6226,5.6226,5.569,5.4665,5.6275,5.6568,6.2984,6.3139,6.2772,5.9364,5.826,5.6679,5.1354,4.8854,4.7307,4.6064,0.0,0.0,0.0,0.0,0.0,0.0,4.3753,0.0,0.0,0.0,5.45,0.0,0.0,0.0,0.0,0.0,0.0,0.0,5.5695,5.4822,5.9475,5.9708,5.9708,5.9708,5.9708,5.9708,5.9708,5.9708,5.9301,5.8545,5.933,5.9301,5.8574,5.9359,5.9708,5.9737,6.0232,5.985,5.9172,5.9971,5.9494,5.8525,6.0114,6.0945,6.1509,6.4354,6.5555,6.5699,6.6042,6.5182,6.3961,6.3244,6.4207,6.5478,6.3796,6.2688,6.1444,5.9935,5.871,5.791,5.791,5.791,5.791,5.791,5.791,5.791,5.791,5.791,5.791,5.791,5.791,5.791,5.791,5.791,5.791,5.791,5.791,5.791,5.791,5.791,5.791,5.791,5.791,5.791,5.791,5.791,5.791,5.791,5.791,5.791,5.791,5.791,5.791,5.791,5.791,5.7593,5.6934,5.6934,5.6617,5.6031,5.7325,5.7569,6.3218,6.3267,6.2601,5.7977,5.703,5.5666,5.0168,0.0,4.7807,4.5841,0.0,4.2409,4.1099,0.0,0.0,0.0,0.0,0.0,4.7649,5.3142,5.686,0.0,0.0,0.0,0.0,5.7743,5.7,5.8943,5.4981,5.403,5.7323,5.7498,5.7498,5.7498,5.7498,5.7498,5.7498,5.7498,5.744,5.7294,5.744,5.744,5.7294,5.744,5.7498,5.7556,5.8632,5.9097,5.9076,5.8803,5.8795,5.8713,5.8056,5.837,5.9621,6.2238,6.3925,6.4966,6.5741,6.7007,6.8016,6.6433,6.6878,6.7449,6.4501,6.3391,6.2567,5.9315,5.8239,5.8091,5.8091,5.8091,5.8091,5.7818,5.7917,5.8015,5.7715,5.7813,5.791,5.791,5.791,5.7837,5.7593,5.7544,5.7544,5.7544,5.7544,5.7544,5.7544,5.7544,5.7544,5.7544,5.7544,5.7544,5.7544,5.7544,5.7544,5.7544,5.7544,5.7544,5.7544,5.7544,5.7544,5.7544,5.7666,5.7715,5.7715,5.7861,5.7788,5.7544,5.7544,5.7544,5.9686,5.9218,5.8645,5.7628,5.6057,5.5055,0.0,0.0,0.0,5.7685,5.5431,5.2858,5.3002,0.0,0.0,0.0,0.0,0.0,0.0,6.1035,0.0,0.0,0.0,0.0,0.0,6.1668,5.9538,5.797,5.7885,5.7719,5.7574,5.7498,5.7498,5.7498,5.7498,5.7498,5.7498,5.7498,5.6974,5.5985,5.7003,5.6974,5.5985,5.7032,5.7498,5.7527,5.773,5.7847,5.7876,5.7788,5.7767,5.7904,5.8641,5.9097,5.9621,6.2238,6.3373,6.3663,6.4932,6.4661,6.386,6.4907,6.3582,6.2027,6.411,6.3735,6.2413,6.1741,6.0432,5.9255,5.9255,5.9255,5.8848,5.7665,5.7933,5.8188,5.6837,5.7276,5.791,5.791,5.791,5.7349,5.5568,5.5275,5.5275,5.5275,5.5275,5.5275,5.5275,5.5275,5.5275,5.5275,5.5275,5.5275,5.5275,5.5275,5.5275,5.5275,5.5275,5.5275,5.5275,5.5275,5.5275,5.5275,5.6104,5.6544,5.6544,5.7471,5.7007,5.5275,5.5275,5.5275,5.701,5.7242,5.7507,5.4767,5.3789,0.0,0.0,5.1303,5.1801,5.526,5.4234,5.3323,5.5254,5.5136,5.4552,5.3881,5.8824,6.2654,6.2221,0.0,0.0,0.0,0.0,0.0,6.5077,6.3286,6.1607,6.0316,5.9028,5.7543,5.568,5.5549,5.5549,5.5549,5.5549,5.5549,5.5549,5.5549,5.5229,5.4589,5.5229,5.52,5.4619,5.5258,5.5549,5.568,5.6247,5.6538,5.6596,5.7236,5.6713,5.5709,5.6189,5.6451,5.6742,5.9388,6.0348,6.0697,6.3256,6.3509,6.3089,6.4647,6.3918,6.2878,6.4581,6.3796,6.2226,6.1185,5.9735,5.8305,5.8305,5.7657,5.6864,5.6087,5.6233,5.6349,5.5565,5.5885,5.6275,5.6275,5.6275,5.5934,5.4835,5.464,5.464,5.464,5.464,5.464,5.464,5.464,5.464,5.464,5.464,5.464,5.464,5.464,5.464,5.464,5.464,5.464,5.464,5.464,5.464,5.464,5.5153,5.5421,5.5421,5.6801,5.7307,5.7001,5.7001,5.7001,5.5226,5.6083,5.7169,5.2527,5.1781,0.0,4.9579,4.9541,5.0811,5.3933,5.4558,5.5323,5.779,5.8581,5.844,5.7029,6.1063,6.5426,0.0,0.0,0.0,0.0,0.0,0.0,6.4509,6.3104,6.2311,6.2483,5.9066,5.5993,5.3728,5.3699,5.3699,5.3699,5.3699,5.3699,5.3699,5.3699,5.3699,5.3699,5.3699,5.3699,5.3699,5.3699,5.3699,5.3757,5.4735,5.52,5.5287,5.6305,5.5491,5.3699,5.3699,5.3699,5.4019,5.6538,5.7352,5.7643,6.122,6.2297,6.2267,6.3285,6.3546,6.3602,6.3866,6.2854,6.1501,6.0219,5.8936,5.7889,5.7889,5.6985,5.582,5.5571,5.561,5.5622,5.537,5.5125,5.5034,5.4615,5.4286,5.4006,5.4006,5.4261,5.4401,5.4006,5.4261,5.4401,5.4401,5.4121,5.4146,5.4401,5.4146,5.4006,5.4006,5.4261,5.4401,5.4006,5.4261,5.4261,5.4006,5.4006,5.4006,5.4006,5.4006,5.4244,5.4837,5.633,5.7625,5.8936,5.8936,5.8936,5.4905,5.5298,5.6145,5.4141,5.1683,0.0,6.1322,6.1393,6.1724,0.0,7.1034,7.0878,7.0476,7.04,7.0106,6.8989,6.9428,6.9617,6.8777,0.0,0.0,0.0,0.0,0.0,6.2997,6.0793,5.9806,6.0857,5.7647,5.5039,5.3699,5.3699,5.3699,5.3699,5.3699,5.3699,5.3699,5.3699,5.3699,5.3699,5.3699,5.3699,5.3699,5.3699,5.3699,5.3699,5.3844,5.3804,5.3932,5.4048,5.3932,5.3699,5.3699,5.3699,5.4019,5.6538,5.6771,5.6189,5.8807,5.9039,5.8167,5.8312,5.8137,5.8093,5.9471,5.9657,5.9494,6.0716,6.0974,6.0744,6.0744,6.06,6.0108,5.8753,5.9194,5.9345,5.7926,5.72,5.6279,5.4292,5.2779,5.1919,5.1919,5.3044,5.3413,5.2029,5.3044,5.391,5.391,5.2672,5.243,5.378,5.2672,5.1919,5.1919,5.3176,5.3282,5.1919,5.3176,5.3282,5.1919,5.1919,5.1919,5.1919,5.1919,5.2985,5.5311,5.61,5.6504,5.6752,5.6752,5.6752,5.3849,5.4513,5.5753,5.33,0.0,0.0,5.9316,6.0943,6.3262,0.0,7.0403,7.1097,7.3535,7.3528,7.2941,7.2515,7.1718,7.0184,6.7639,0.0,0.0,0.0,0.0,0.0,0.0,6.0538,6.0101,6.0629,5.8638,5.7248,5.669,5.5391,5.47,5.47,5.3962,5.3699,5.3699,5.3699,5.3699,5.3699,5.3699,5.3699,5.3699,5.3699,5.3699,5.3699,5.3699,5.3699,5.3699,5.3699,5.3699,5.3699,5.3699,5.3699,5.3815,5.4922,5.5375,5.5753,5.6771,5.776,5.8545,5.8545,5.8951,5.9369,5.9315,5.9759,6.0285,6.0097,6.0697,6.1054,6.0057,5.9072,5.8218,5.7592,5.7734,5.7843,5.7225,5.6107,5.5539,5.6564,5.5509,5.4043,5.3035,5.3425,5.3295,5.1686,5.206,5.2431,5.2431,5.1927,5.1819,5.2431,5.1927,5.1577,5.1577,5.293,5.3528,5.293,5.44,5.5007,5.44,5.44,5.44,5.44,5.44,5.4862,5.5942,5.7205,5.786,5.786,5.8837,5.9189,5.3976,0.0,0.0,0.0,0.0,0.0,6.0949,6.2835,6.5323,6.9441,7.0252,7.1254,7.4622,7.461,7.3876,7.293,7.1873,7.0065,6.6884,6.5583,0.0,0.0,0.0,0.0,0.0,0.0,0.0,0.0,5.9595,5.8885,5.8885,5.6986,5.576,5.5421,5.4605,5.3962,5.3699,5.3699,5.3699,5.3699,5.3699,5.3699,5.3699,5.3699,5.3699,5.3699,5.3699,5.3699,5.3699,5.3699,5.3699,5.3699,5.3699,5.3699,5.3728,5.4008,5.4531,5.5084,5.5462,5.6771,5.8196,5.7847,5.8865,6.0057,5.9097,5.9708,6.061,5.9999,6.0552,6.0941,5.9826,5.8602,5.7713,5.7713,5.7713,5.7713,5.7713,5.6376,5.6006,5.8456,5.7472,5.6006,5.4781,5.4907,5.4654,5.3035,5.3295,5.3528,5.3528,5.3165,5.306,5.3554,5.3165,5.2799,5.2799,5.4273,5.5007,5.4527,5.613,5.6866,5.6376,5.6376,5.6376,5.6376,5.6376,5.6376,5.6376,5.8456,5.9566,5.9566,6.0685,6.1195,0.0,0.0,0.0,6.1937,6.1307,6.274,7.1992,7.185,7.0919,7.4959,7.5784,7.5681,7.5252,7.5181,7.4183,7.1117,7.0582,6.9714,6.7195,6.6794,6.5858,6.3449,0.0,0.0,0.0,0.0,0.0,0.0,5.9595,5.8885,5.8885,5.7766,5.6574,5.5421,5.5328,5.4795,5.3699,5.3699,5.3699,5.3699,5.3699,5.3699,5.3699,5.3699,5.3699,5.3699,5.3699,5.3699,5.3699,5.3699,5.3699,5.3699,5.3699,5.3699,5.3844,5.5055,5.4735,5.3833,5.5142,5.5636,5.5491,5.4182,5.552,5.7614,5.7556,5.8399,5.9621,6.0871,6.1137,6.1195,6.1166,6.1166,6.1054,6.1054,6.1054,6.1054,6.1054,5.9826,5.8837,5.8837,5.7472,5.6376,5.6376,5.7592,5.8218,5.6499,5.7592,5.872,5.872,5.723,5.6866,5.8456,5.723,5.6253,5.6253,5.7713,5.8099,5.6376,5.786,5.8099,5.6376,5.6376,5.6376,5.6376,5.6376,5.6376,5.6376,5.9566,6.1166,6.1166,6.1195,6.1195,6.0244,6.1717,6.3773,6.55,6.741,6.9583,7.2451,7.4232,7.5565,7.6426,7.5486,7.4393,7.4203,7.3633,7.2371,6.9912,6.9538,6.8568,6.572,6.5335,6.4767,6.3342,6.2415,0.0,0.0,0.0,0.0,0.0,0.0,0.0,6.0022,5.9675,5.8885,5.7766,5.7766,5.681,5.4795,5.4795,5.4414,5.3699,5.3699,5.3699,5.3699,5.3699,5.3699,5.3699,5.3699,5.3699,5.3699,5.3699,5.3699,5.3699,5.3699,5.3699,5.3757,5.4095,5.5084,5.6015,5.4706,5.6509,5.8894,5.5898,5.6625,5.8545,5.773,5.8341,5.9388,5.9854,6.061,6.1195,6.1195,6.1195,6.1195,6.1195,6.1195,6.1195,6.1195,6.0799,6.0429,6.0429,5.9942,5.9334,5.8218,5.8574,5.8337,5.6622,5.6866,5.723,5.723,5.6744,5.6622,5.7109,5.6744,5.6376,5.6376,5.798,5.872,5.8099,5.9566,6.02,5.9566,5.9566,5.9566,5.9566,5.9566,5.9566,5.9566,6.0685,6.1195,6.1195,6.1195,6.1195,6.2543,6.4309,6.6318,6.9285,7.2271,7.4507,7.4708,7.6599,7.7976,7.6709,7.5288,7.4058,7.323,7.1684,7.0023,6.8655,6.8428,6.771,6.5539,6.5237,6.4966,6.4199,6.3302,6.2783,6.2783,0.0,0.0,0.0,0.0,6.0941,6.0629,6.0629,6.0289,5.9515,5.9161,5.8221,5.6632,5.5882,5.5078,5.4222,5.3865,5.3699,5.3699,5.3699,5.3699,5.3699,5.3699,5.3699,5.3699,5.3699,5.3699,5.3699,5.3699,5.3699,5.3699,5.3699,5.4748,5.5869,5.4281,5.6393,5.9446,5.6538,5.7265,5.9156,5.837,5.869,5.9388,5.9883,6.0639,6.1195,6.1195,6.1195,6.1195,6.1195,6.1195,6.1195,6.1195,6.1195,6.1195,6.1195,6.1195,6.0941,5.9942,5.9711,5.9334,5.8218,5.8099,5.8099,5.8099,5.8099,5.8099,5.8099,5.8099,5.8099,5.8099,5.9072,5.9711,5.9711,6.0685,6.1195,6.1195,6.1195,6.1195,6.1195,6.1195,6.1195,6.1195,6.1195,6.1195,6.1195,6.1195,6.1195,6.346,6.5715,6.8337,7.3273,7.5817,7.745,7.8832,7.9046,7.8289,7.5973,7.5317,7.4502,7.2364,6.9534,6.7518,6.7479,6.7479,6.7243,6.6614,6.6479,6.6282,6.5835,6.5016,6.4562,6.4562,6.3713,6.2817,6.1933,6.1792,6.1469,6.0705,6.0629,6.0629,6.0629,5.9595,5.8998,5.8998,5.6721,5.5514,5.5514,5.4318,5.3767,5.3796,5.3796,5.3767,5.3865,5.3865,5.3865,5.3865,5.3767,5.3796,5.3669,5.3669,5.3699,5.3699,5.3699,5.3728,5.3786,5.3699,5.5317,5.7265,5.5927,5.712,5.9126,5.9185,5.9185,5.9505,6.0901,6.1137,6.1108,6.1166,6.1137,6.1108,6.1166,6.1195,6.1195,6.1195,6.1195,6.1195,6.1195,6.1195,6.1195,6.1195,6.1195,6.1195,6.1195,6.1195,6.1195,6.1195,6.1195,6.1195,6.1195,6.1195,6.1195,6.1195,6.1195,6.1195,6.1195,6.1195,6.1195,6.1195,6.1108,6.1108,6.1195,6.105,6.0992,6.0992,6.0992,6.0992,6.0992,6.0992,6.0992,6.8681,7.0238,7.1818,7.6791,7.8373,7.8804,7.9155,7.8177,7.7066,7.6411,7.3883,7.1383,7.0023,6.9155,6.8467,6.8066,6.8032,6.7855,6.7283,6.6784,6.6433,6.6282,6.5273,6.4562,6.4562,6.3713,6.2817,6.1933,6.1792,6.1469,6.0705,6.0629,6.0629,6.0629,6.0366,6.0211,6.0211,5.872,5.7594,5.6721,5.6364,5.5851,5.4954,5.4954,5.5421,5.6274,5.6274,5.6274,5.6184,5.5328,5.4954,5.489,5.3962,5.3699,5.3699,5.3699,5.424,5.4938,5.395,5.5317,5.712,5.4851,5.52,5.6713,5.7672,5.7963,5.8428,6.0668,6.0581,6.0028,6.1046,6.0552,6.0057,6.0934,6.1195,6.1195,6.1195,6.1195,6.1195,6.1195,6.1195,6.1195,6.1195,6.1195,6.1195,6.1195,6.1195,6.1195,6.1195,6.1195,6.1195,6.1195,6.1195,6.1195,6.1195,6.1195,6.1195,6.1195,6.1195,6.1195,6.1195,6.0348,6.0261,6.1166,5.9446,5.8458,5.8458,5.8458,5.8458,5.8458,5.8458,5.8458,6.8847,7.1456,7.4226,7.8447,7.9552,7.9429,7.8572,7.7576,7.6397,7.478,7.2079,6.9872,6.9184,6.9072,6.8974,6.8656,6.8566,6.8404,6.7891,6.7481,6.7046,6.6524,6.5858,6.5326,6.5107,6.4585,6.3924,6.311,6.3045,6.2684,6.1789,6.1718,6.1718,6.1718,6.1391,6.1172,6.1172,6.0113,5.908,5.7936,5.7422,5.681,5.6215,5.6215,5.6543,5.7161,5.7161,5.7161,5.7074,5.6485,5.6215,5.6034,5.486,5.4414,5.4318,5.3865,5.4066,5.4619,5.3862,5.4938,5.6422,5.4938,5.5346,5.6567,5.7294,5.7498,5.7789,5.9214,5.9068,5.869,5.9417,5.9068,5.8836,6.0115,6.0406,6.0261,5.9737,5.9621,5.9621,5.9621,6.0057,6.0406,6.0406,6.0901,6.1195,6.1195,6.1195,6.1195,6.1195,6.1195,6.1195,6.1195,6.0784,6.0668,6.1137,6.0755,6.0668,6.1137,6.1195,6.1046,6.0435,5.9708,5.9388,5.9621,5.7672,5.6945,5.7498,5.7498,5.7498,5.7498,5.7498,5.7498,6.6735,7.0839,7.5537,7.859,7.9567,7.9233,7.7333,7.6701,7.561,7.2461,7.0525,6.9388,6.9241,6.9242,6.9201,6.9085,6.9023,6.8854,6.8424,6.8303,6.7854,6.6834,6.6659,6.6423,6.6001,6.5901,6.5556,6.47,6.4607,6.4199,6.3208,6.3144,6.3144,6.3144,6.2415,6.1969,6.1969,6.1318,6.0454,5.9258,5.821,5.7649,5.7422,5.7133,5.7062,5.7062,5.7062,5.7062,5.7062,5.7078,5.7054,5.6999,5.6063,5.5606,5.5514,5.4318,5.3865,5.3865,5.3699,5.4357,5.5346,5.5346,5.6073,5.7003,5.7207,5.7236,5.7294,5.744,5.7381,5.7294,5.7469,5.7381,5.7556,5.8777,5.8923,5.8574,5.7672,5.7498,5.7498,5.7498,5.8341,5.9039,5.9039,6.0144,6.1046,6.1046,6.1079,6.1108,6.0934,6.1079,6.1195,6.1195,6.0261,6.0028,6.1079,6.0232,5.997,6.0959,6.1046,6.0435,5.9126,5.8894,5.8225,5.7003,5.5898,5.5869,5.6974,5.6974,5.6974,5.6974,5.6974,5.6974,6.7339,7.074,7.5032,7.7099,7.782,7.7526,7.5778,7.4235,7.2969,7.236,7.089,6.9651,6.9426,6.9361,6.9346,6.9354,6.9261,6.9139,6.9037,6.8556,6.8134,6.7925,6.7557,6.728,6.7156,6.7156,6.6578,6.5306,6.5166,6.4602,6.3273,6.3144,6.3144,6.3144,6.3014,6.2949,6.2949,6.2817,6.2279,6.133,6.1079,6.0181,5.8574,5.7167,5.6503,5.6503,5.6503,5.6503,5.6494,5.6754,5.6804,5.6818,5.6867,5.681,5.6721,5.5514,5.5048,5.4954,5.3962,5.3844,5.395,5.395,5.4095,5.4473,5.5578,5.5927,5.616,5.7207,5.6742,5.616,5.7236,5.6713,5.6247,5.7498,5.7003,5.6451,5.7323,5.7498,5.7498,5.7498,5.7672,5.7818,5.7818,5.8836,5.965,5.965,6.0581,6.0901,5.9766,6.061,6.1195,6.1195,6.0992,6.0934,6.1166,6.0963,6.0581,5.9708,5.965,5.9097,5.7847,5.68,5.5607,5.4299,5.4136,5.4136,5.4369,5.4369,5.4369,5.4369,5.4369,5.4369,6.9553,7.1331,7.3552,7.5303,7.5904,7.5654,7.407,7.3042,7.2124,7.1185,7.035,6.9739,6.9631,6.9594,6.9535,6.9415,6.9331,6.9291,6.9291,6.8962,6.863,6.8358,6.8023,6.7745,6.7479,6.744,6.7166,6.6497,6.6416,6.6102,6.5426,6.4313,6.3656,6.3656,6.2207,6.1449,6.1449,6.0992,6.0555,6.0071,5.9674,5.8989,5.8098,5.7656,5.7289,5.6885,5.6885,5.6677,5.6388,5.6503,5.6583,5.6498,5.6024,5.5792,5.5711,5.4537,5.4049,5.4141,5.4276,5.4337,5.4366,5.4557,5.4605,5.4532,5.4555,5.456,5.4677,5.5287,5.5026,5.4677,5.5317,5.4997,5.488,5.6189,5.4473,5.2728,5.3339,5.3484,5.3484,5.3484,5.3484,5.4124,5.616,5.7003,5.805,6.0028,6.0871,6.0813,5.9475,5.9854,5.9999,5.9388,5.8719,5.8603,5.9272,5.8719,5.8341,5.837,5.837,5.7789,5.6567,5.3979,5.2263,5.1623,5.1623,5.1623,5.1623,5.1623,5.1943,5.2612,5.2612,5.3058,6.9943,7.0736,7.1696,7.3458,7.3931,7.3628,7.219,7.1858,7.1431,7.0004,6.9154,6.886,6.9588,6.9153,6.8866,6.9412,6.9459,6.9452,6.9452,6.9339,6.9071,6.8668,6.8545,6.8336,6.7912,6.7847,6.7779,6.7671,6.7303,6.7042,6.6926,6.4915,6.3791,6.3791,6.1615,6.0401,6.0316,5.9586,5.9077,5.8795,5.8152,5.7774,5.7612,5.7627,5.7259,5.67,5.67,5.6382,5.5986,5.6217,5.6281,5.6039,5.5453,5.5141,5.4874,5.368,5.3249,5.3405,5.4217,5.4558,5.4576,5.4845,5.482,5.4669,5.3745,5.3492,5.3551,5.3817,5.3971,5.3964,5.3971,5.3853,5.3824,5.4782,5.2696,5.0453,5.0453,5.0453,5.0453,5.0453,5.0453,5.1365,5.4167,5.4958,5.6058,5.8777,5.9446,5.9156,5.7847,5.7905,5.7701,5.6771,5.5753,5.5578,5.6596,5.5753,5.5491,5.6189,5.6247,5.5666,5.4386,5.1828,5.0453,5.0453,5.0453,5.0453,5.0453,5.0453,5.0955,5.1958,5.1958,5.2519,6.5042,6.6914,6.9722,7.1538,7.1974,7.1578,7.0058,6.9679,6.9641,6.9465,6.7094,6.5906,6.8907,6.7122,6.6189,6.925,6.9737,6.9738,6.9738,6.9524,6.9375,6.9323,6.9308,6.9279,6.9225,6.911,6.8833,6.8341,6.6801,6.5638,6.5165,6.3513,6.256,6.256,6.2299,6.1989,6.1628,6.1547,6.0911,5.9725,5.967,5.9239,5.8296,5.5765,5.4585,5.4529,5.4529,5.4473,5.4519,5.5856,5.596,5.5475,5.6619,5.6748,5.6075,5.4874,5.4461,5.4338,5.3405,5.3028,5.3059,5.3101,5.308,5.308,5.2966,5.2996,5.3243,5.453,5.4839,5.4974,5.5182,5.4396,5.346,5.3175,5.2873,5.2596,5.2596,5.2596,5.2596,5.2596,5.2596,5.2386,5.1753,5.2744,5.3307,5.2687,5.3572,5.3833,5.2554,5.3397,5.4066,5.4048,5.3932,5.3932,5.4048,5.3932,5.3436,5.2292,5.2205,5.1652,5.0372,5.1798,5.2596,5.2596,5.2596,5.2596,5.2596,5.2596,5.2688,5.2812,5.2812,5.2873,6.5655,6.573,6.6391,6.8134,6.8629,6.8789,6.9202,6.9223,6.9181,6.9259,6.8238,6.7155,6.6565,6.7052,6.732,6.6714,6.8415,6.9778,6.9778,6.9672,6.9613,6.9613,6.9502,6.9402,6.9402,6.9369,6.8838,6.7678,6.6924,6.5994,6.4752,6.2695,6.158,6.158,6.0271,5.9524,5.9376,5.9104,5.8771,5.8208,5.7458,5.7401,5.7985,5.6644,5.5974,5.5928,5.5159,5.4836,5.4819,5.5013,5.4862,5.4675,5.5221,5.5314,5.4982,5.4025,5.3695,5.3693,5.3599,5.3557,5.3612,5.3866,5.3917,5.3807,5.3087,5.2874,5.2966,5.3575,5.373,5.3771,5.3819,5.3458,5.2891,5.1945,5.1064,5.0522,5.0522,5.0052,4.9574,4.9574,4.9574,4.9929,5.1088,5.1723,5.2534,5.366,5.3736,5.3397,5.2733,5.3092,5.3369,5.3191,5.3188,5.3188,5.3188,5.3188,5.2977,5.2433,5.2403,5.1521,4.9341,5.0131,5.0522,5.0522,5.0522,5.0522,5.0522,5.0522,5.0956,5.1715,5.1715,5.2149,6.5169,6.4496,6.4234,6.543,6.6536,6.7706,6.8871,6.8673,6.8286,6.8376,6.7631,6.6265,6.4051,6.5147,6.5983,6.4711,6.6987,6.9138,6.9593,6.965,6.9665,6.9665,6.9495,6.9424,6.9518,6.9024,6.8268,6.7193,6.6162,6.5027,6.3855,6.1711,6.0566,6.0566,5.9056,5.8152,5.8033,5.7654,5.7443,5.7294,5.6381,5.6608,5.7777,5.7479,5.7294,5.7256,5.6338,5.5892,5.5777,5.5308,5.4888,5.452,5.452,5.4446,5.4173,5.3571,5.3396,5.3507,5.3974,5.4087,5.4124,5.4167,5.4139,5.3962,5.2927,5.2577,5.2672,5.3082,5.3208,5.3224,5.3395,5.2973,5.2325,5.1423,5.0486,4.9831,4.9831,4.929,4.8739,4.8739,4.8739,4.9237,5.0814,5.1069,5.163,5.3092,5.2774,5.2176,5.2005,5.197,5.1943,5.1728,5.1715,5.1715,5.1715,5.1715,5.1715,5.1715,5.1715,5.1159,4.9895,4.9831,4.9831,4.9831,4.9831,4.9831,4.9831,4.9831,5.0369,5.1202,5.1202,5.1707,6.2103,6.2776,6.3935,6.3972,6.6515,6.8982,6.902,6.7711,6.6477,6.6503,6.3935,6.1692,6.1654,6.0435,6.0464,6.38,6.5902,6.7637,6.9188,6.9415,6.9415,6.9415,6.9377,6.9475,6.9783,6.8138,6.7155,6.7249,6.4023,6.204,6.204,6.0427,5.9481,5.9481,5.9344,5.9083,5.87,5.8431,5.8107,5.7724,5.7724,5.7772,5.7906,5.7777,5.7724,5.7724,5.7724,5.748,5.7134,5.7134,5.6322,5.5194,5.5194,5.4784,5.4228,5.4228,5.4228,5.4228,5.4262,5.4262,5.4117,5.3346,5.3107,5.2925,5.2176,5.1916,5.2245,5.3624,5.4018,5.4139,5.4488,5.3289,5.1916,5.1916,5.1883,5.1883,5.1883,5.1883,5.1883,5.1883,5.1883,5.1554,5.0737,5.0527,5.0213,4.9162,4.9013,4.9013,4.9013,4.8982,4.8982,4.8982,4.8982,4.8982,4.8982,4.8982,4.8982,4.8982,4.8982,4.9863,5.1818,5.1883,5.1883,5.1883,5.1883,5.1883,5.1883,5.1883,5.1883,5.1916,5.1916,5.1916,6.3075,6.2525,6.2083,6.3255,6.5151,6.646,6.5374,6.4734,6.4754,6.619,6.5655,6.4457,6.2957,6.3858,6.4562,6.3701,6.6053,6.8173,6.8661,6.9123,6.9247,6.8917,6.918,6.9011,6.801,6.7406,6.6121,6.3841,6.2648,6.1518,6.0337,5.9678,5.9376,5.9472,5.9366,5.9277,5.9208,5.8914,5.866,5.8536,5.8619,5.8725,5.8828,5.8511,5.8398,5.8383,5.8025,5.7772,5.7552,5.7552,5.7297,5.692,5.6664,5.6445,5.6145,5.5209,5.4888,5.4836,5.4392,5.4228,5.4173,5.3949,5.3858,5.3835,5.3571,5.31,5.2807,5.3213,5.2998,5.2837,5.4037,5.3955,5.3455,5.3455,5.3455,5.3371,5.283,5.2169,5.1555,5.1085,5.0981,5.0912,5.0635,5.0565,5.0393,5.0078,4.95,4.9025,4.9025,4.9646,5.0038,5.0038,5.0571,5.1017,5.1017,5.1017,5.1017,5.1017,5.1017,5.1522,5.2645,5.2707,5.2707,5.2707,5.2707,5.2428,5.1883,5.1883,5.1883,5.1883,5.2491,5.2395,6.2463,6.1514,6.0462,6.2782,6.3605,6.3092,6.0269,6.0745,6.211,6.3399,6.4021,6.3934,6.256,6.3582,6.4287,6.3064,6.5278,6.7321,6.7953,6.8395,6.856,6.8208,6.7899,6.7346,6.6492,6.5417,6.3954,6.195,6.1195,6.0388,5.9317,5.919,5.9167,5.9266,5.9299,5.9329,5.9408,5.9129,5.9006,5.912,5.8997,5.9066,5.9261,5.8991,5.8874,5.8837,5.8575,5.8318,5.81,5.8155,5.8054,5.7842,5.7575,5.7443,5.7257,5.6466,5.6074,5.5871,5.5455,5.5194,5.4975,5.4679,5.4573,5.4573,5.4338,5.3892,5.3547,5.3547,5.3193,5.3013,5.4005,5.4228,5.4228,5.4228,5.4228,5.4117,5.3571,5.2999,5.2445,5.2042,5.1687,5.1522,5.1522,5.1288,5.1049,5.1049,5.0501,5.0117,5.0117,5.0673,5.1049,5.1049,5.1554,5.1883,5.1883,5.1883,5.1883,5.1883,5.2491,5.3013,5.3489,5.3547,5.3547,5.3547,5.3547,5.3279,5.2769,5.2769,5.2769,5.2769,5.3279,5.3219,6.0436,5.9827,5.9017,6.2078,6.164,5.9284,5.4804,5.6537,5.9103,5.9238,6.0195,6.1062,6.1129,6.0712,6.0877,6.245,6.3842,6.527,6.6957,6.7073,6.7,6.7217,6.5643,6.469,6.5093,6.2557,6.0953,6.115,5.9703,5.882,5.882,5.882,5.8838,5.8818,5.9061,5.9221,5.9272,5.9095,5.9138,5.9344,5.8853,5.8834,5.9176,5.913,5.9071,5.9074,5.9247,5.9069,5.872,5.886,5.863,5.8189,5.8076,5.7922,5.7813,5.7752,5.7515,5.7179,5.7176,5.6891,5.6332,5.5635,5.5407,5.5308,5.4644,5.4466,5.4358,5.4358,5.4412,5.4485,5.4485,5.4466,5.4412,5.4412,5.4412,5.4392,5.4338,5.4338,5.4283,5.4228,5.3629,5.316,5.316,5.2521,5.2078,5.2078,5.2078,5.2078,5.2078,5.2078,5.2078,5.2078,5.2078,5.2078,5.2078,5.2078,5.2012,5.1913,5.3363,5.4283,5.4283,5.4338,5.4338,5.4338,5.4338,5.4283,5.4228,5.4228,5.4159,5.4056,5.4111,5.4076,5.7374,5.8099,5.8247,5.7822,5.7266,5.6868,5.7128,5.7952,5.909,6.071,6.1971,6.303,6.3808,6.3541,6.3718,6.5279,6.387,6.307,6.4705,6.318,6.2672,6.4675,6.2357,6.1278,6.3073,6.0985,5.9296,5.8648,5.8241,5.7989,5.7989,5.7989,5.8025,5.8175,5.8235,5.848,5.8973,5.8565,5.8285,5.8136,5.8025,5.8033,5.8267,5.8632,5.8799,5.8843,5.9152,5.9187,5.8987,5.9051,5.8963,5.8867,5.8921,5.8764,5.8422,5.8049,5.7805,5.7719,5.7617,5.7515,5.737,5.7186,5.7148,5.7112,5.6961,5.6316,5.5553,5.5553,5.6195,5.6922,5.6922,5.6675,5.6488,5.6488,5.6171,5.5693,5.5093,5.4991,5.4836,5.4338,5.4083,5.3949,5.3949,5.3801,5.3687,5.3687,5.3687,5.3687,5.3687,5.3687,5.3687,5.3687,5.3687,5.3687,5.3687,5.3687,5.3153,5.1973,5.3388,5.45,5.494,5.4991,5.4991,5.4991,5.4991,5.4732,5.4228,5.4228,5.3643,5.2488,5.296,5.2284,5.5149,5.6023,5.5719,5.3471,5.2835,5.2987,5.3979,5.5977,5.7927,5.9089,6.2046,6.4293,6.3957,6.4036,6.4362,6.4951,6.3944,6.3389,6.4211,6.2746,6.1862,6.2627,0.0,5.9222,5.9812,5.8191,5.6919,5.6454,5.6382,5.6382,5.6382,5.6382,5.6396,5.6492,5.7001,5.7467,5.7831,5.6349,5.597,5.6741,5.6504,5.6555,5.6858,5.7135,5.7264,5.7279,0.0,5.8176,5.8152,5.8751,5.9002,5.898,5.9013,5.8998,5.8891,5.8315,5.8247,5.843,5.8243,5.8075,5.7914,5.7914,5.7871,5.783,5.783,5.7332,5.6769,5.6769,5.7296,5.7804,5.7755,5.7587,5.7443,5.7443,5.7217,5.6869,5.6473,5.6352,5.6266,5.5922,5.5576,5.527,5.527,5.4848,5.4506,5.4506,5.4343,5.4228,5.4228,5.3643,5.3176,5.3176,5.2523,5.211,5.211,5.211,5.2022,5.1919,5.3657,5.5182,5.6316,5.6352,5.6352,5.6352,5.6352,5.5786,5.4649,5.4649,5.3902,5.2324,5.2699,5.2235,5.3068,5.3496,5.2643,5.0355,4.9602,4.9512,5.0039,5.3678,5.6943,5.6943,6.1636,6.5144,6.3295,6.3599,6.3937,6.3274,6.3916,6.4399,6.4037,6.2889,6.1769,6.0847,5.8871,5.7243,5.6448,5.5013,5.4106,5.4211,5.4262,5.4262,5.4262,5.4262,5.4262,5.4262,5.5232,5.5722,5.56,5.3519,5.3243,5.4929,5.4448,5.4499,5.4929,5.4987,5.5034,5.5044,0.0,5.635,5.6564,5.7703,5.8243,5.8381,5.8414,5.8639,5.8874,5.8447,5.8557,5.888,5.8758,5.8526,5.8275,5.8275,5.8189,5.8099,5.8125,5.8016,5.7885,5.7945,5.8054,5.81,5.8012,5.7972,5.7904,5.7904,5.7657,5.7409,5.7446,5.7197,5.7018,5.7018,5.6459,5.5982,5.5982,5.5178,5.454,5.454,5.4233,5.4019,5.4019,5.2855,5.2041,5.2041,5.086,5.0062,5.0062,5.0062,5.0666,5.1981,5.3876,5.5764,5.7685,5.7748,5.7666,5.7409,5.7156,5.6347,5.4914,5.4914,5.4075,5.2605,5.2605,5.2422,5.0027,5.0205,5.0464,5.1443,5.0531,5.0112,5.3005,5.6285,5.87,5.87,6.2445,6.5473,6.469,6.4323,6.3763,6.2575,6.3579,6.3779,6.1701,5.8985,5.7798,5.9234,5.5319,5.3233,5.5385,5.2736,5.1097,5.1635,5.1697,5.1697,5.1697,5.1697,5.1697,5.1697,5.1877,5.1692,5.1161,5.1257,5.1509,5.1816,5.1726,5.1726,5.1782,5.2264,5.2449,5.2472,0.0,0.0,5.4492,5.4693,5.5299,5.619,5.694,5.7243,5.7387,5.7937,5.8159,5.8147,5.8581,5.8795,5.894,5.894,5.8933,5.892,5.904,5.8838,5.861,5.8947,5.9073,5.9092,5.919,5.8966,5.8744,5.8744,5.728,5.5929,5.604,5.4884,5.3788,5.3788,5.3603,5.3422,5.3422,5.3288,5.3149,5.3149,5.3151,5.308,5.308,5.2863,5.2717,5.2717,5.2499,5.2389,5.2389,5.2389,5.2489,5.2875,5.3314,5.4824,5.7612,5.7924,5.7356,5.5929,5.4615,5.3809,5.3549,5.3549,5.2754,5.12,5.12,5.0439,4.9477,4.8833,4.8598,5.0322,5.0107,5.0132,5.2622,5.6961,6.0349,6.011,6.38,6.6815,6.5946,6.4916,6.3968,6.3538,6.3347,6.2869,6.1527,5.9195,5.7433,5.6897,5.4786,5.2947,0.0,5.0504,4.9035,4.8044,4.7982,4.7982,4.7982,4.7982,4.8267,4.8903,4.9308,4.8632,4.6661,4.7011,4.7457,4.7982,4.7982,4.7982,4.7952,4.8206,4.8328,4.8369,4.8958,4.9823,5.0942,5.1549,5.2511,5.3638,5.4078,5.4684,5.5395,5.545,5.5987,5.6761,5.7418,5.7724,5.7895,5.8411,5.8694,5.8904,5.8971,5.8659,5.8391,5.8844,5.8768,5.8384,5.7741,5.8098,5.8156,5.646,5.609,5.5889,5.5122,5.4295,5.3726,5.3773,5.3698,5.3633,5.3806,5.3536,5.3323,5.3411,5.3215,5.3084,5.3084,5.2334,5.1841,5.1841,5.099,5.0459,5.0459,5.07,5.131,5.227,5.2389,5.3841,5.6983,5.641,5.604,5.6127,5.4592,5.3323,5.2427,5.2427,5.1568,4.9971,4.9971,4.9564,4.9042,0.0,4.7579,4.9704,4.9848,5.0066,0.0,5.7223,6.1317,6.0899,6.47,6.7745,6.6659,6.5328,6.4374,6.4259,6.2829,6.1574,6.1163,5.9592,5.7526,5.4949,5.4636,5.3048,4.8981,4.8447,4.7367,4.51,4.4728,4.4557,4.4557,4.4557,4.4952,4.5841,4.5512,4.4436,4.237,4.237,4.2735,4.3588,4.3588,4.373,4.4045,4.4045,4.4244,4.4641,4.5215,4.6154,4.7228,4.8117,4.9068,4.9981,5.0168,5.0919,5.182,5.1634,5.2675,5.4241,5.4899,5.55,5.6022,5.6496,5.7115,5.7762,5.8134,5.7203,5.6216,5.6848,5.6527,5.5926,5.5315,5.5614,5.5592,5.3534,5.3609,5.382,5.261,5.2007,5.1747,5.1851,5.2049,5.2276,5.2466,5.2439,5.2408,5.2594,5.2365,5.2205,5.2305,5.1249,5.0529,5.0529,4.9341,4.858,4.858,4.8738,4.9498,5.1154,5.1416,5.2861,5.5872,5.4769,5.4497,5.5514,5.4155,5.2637,5.0923,5.1008,5.0401,4.9143,4.9227,4.9227,0.0,4.7197,4.8,5.1265,5.072,5.0258,5.3678,5.7782,0.0,6.0839,6.4427,6.7283,6.6651,6.579,6.481,6.3457,6.156,5.9962,5.9226,5.8021,5.6331,5.3714,5.3488,5.1984,4.7937,4.6746,4.5666,4.4152,4.2978,4.2396,4.2396,4.2396,4.2396,4.2514,3.8928,3.7476,3.8341,3.8341,3.8341,3.8414,3.8414,3.9144,4.0418,4.0418,4.1154,0.0,4.246,4.3099,4.41,4.413,4.4228,4.442,4.4979,4.5263,4.5417,4.6169,4.7899,4.9854,5.0292,5.178,5.3378,5.259,5.3455,5.503,5.6426,5.3916,5.0736,5.1728,5.1275,5.0853,5.2362,5.1092,4.9784,5.1018,4.9116,4.6962,4.6849,4.5492,4.4291,4.43,4.5388,4.6301,4.6314,4.7576,4.8688,4.8911,4.8959,4.9046,4.9428,4.9389,4.9313,4.9313,4.9199,4.9123,4.9123,4.8259,4.836,4.9789,5.0599,5.2017,5.4319,5.3848,5.3151,5.2442,5.1578,5.034,4.8639,4.8994,4.9114,4.9,4.9365,4.9365,4.8481,4.8703,4.9104,5.0292,5.164,5.2977,5.4206,5.8551,6.2221,6.1891,6.4104,6.5946,6.5397,6.4559,6.3636,6.2516,6.1124,5.9884,5.9016,5.7248,5.5331,5.3475,5.1922,4.9646,4.6548,4.5358,4.3491,4.0565,4.0002,3.913,3.7339,3.8066,3.7717,3.5826,3.4778,3.4241,3.4138,3.3238,3.3028,3.3423,3.3028,3.3619,3.4951,3.4951,3.5264,3.5767,3.5767,3.6403,0.0,3.7431,3.7958,3.8644,3.8937,3.9847,4.1018,4.1264,4.286,4.4854,4.553,4.6266,4.7003,4.7102,4.8056,4.9275,5.0088,4.8213,4.6048,4.7833,4.7895,4.7655,4.8691,4.803,4.6988,4.6514,4.5415,4.4314,4.3713,4.3042,4.2594,4.2679,4.3081,4.3404,4.3579,4.4069,4.4832,4.5894,4.604,4.6432,4.7477,4.7965,4.819,4.819,4.819,4.7797,4.6749,4.5744,4.5416,4.5983,4.6306,4.7273,4.9171,4.8622,4.8546,4.9202,4.8415,4.7705,4.7092,4.7202,4.7296,4.7288,4.7462,4.7435,4.8663,4.9256,4.9925,5.0935,5.2761,5.4557,5.557,5.9167,6.2194,6.184,6.3309,6.4396,6.3663,6.2778,6.1834,6.0873,5.9586,5.8332,5.7266,5.5363,5.3621,5.2221,5.0008,4.8184,4.6828,4.4805,4.2172,3.8832,3.7995,3.6388,3.3589,3.4869,3.3847,2.9951,3.0163,3.0132,2.9569,2.8345,2.8005,2.848,2.8005,2.8567,2.9876,2.9876,3.0154,3.0649,3.0987,3.1703,3.2434,3.2882,3.3122,3.3253,3.3253,3.4125,3.5353,3.5353,3.7054,3.9428,3.9909,4.0874,4.1732,4.1846,4.3117,4.4672,4.4709,4.2513,4.0298,4.2176,4.277,4.3067,4.399,4.3356,4.2256,4.1259,4.0767,4.0267,3.9279,3.932,3.9565,3.9615,3.9984,4.0233,4.0108,4.0421,4.1249,4.2861,4.3109,4.3748,4.5535,4.6115,4.6502,4.68,4.6575,4.5486,4.3239,4.2457,4.2286,4.258,4.2523,4.3225,4.4989,4.3979,4.4,4.5294,4.4594,4.4167,4.4167,4.4132,4.4386,4.4754,4.4446,4.4488,4.7684,4.8388,5.0378,5.3733,5.4117,5.4524,5.7893,5.9597,6.0419,6.0419,6.1892,6.2781,6.1633,6.06,5.9611,5.8485,5.6593,5.4894,5.3475,5.2206,5.0986,4.9477,4.8086,4.7754,4.9153,4.5388,4.1989,3.9792,3.7066,0.0,3.1986,3.3352,3.1366,2.5389,2.4712,2.4471,2.4471,2.3742,2.3494,2.3494,2.3494,2.4163,2.5524,2.5646,2.6406,2.7763,2.903,2.9668,0.0,3.1162,3.0289,2.8151,2.8151,2.8151,2.813,2.813,3.0407,3.3541,3.3565,3.5773,3.829,3.6939,3.8873,4.1749,4.1062,3.7033,3.2986,3.4172,3.538,3.6639,3.818,3.6657,3.4888,3.5414,3.497,3.4111,3.3065,3.3561,3.4194,3.4194,3.5434,3.62,3.5269,3.6434,3.7995,3.9717,3.9931,4.0849,4.3348,4.3689,4.4013,4.4955,4.417,4.2239,3.8932,3.8604,3.9012,4.0062,3.98,4.0357,4.2165,4.0507,3.9931,4.0707,3.9992,3.9591,3.9591,3.9621,4.0291,4.152,4.0471,4.0559,4.8688,4.9045,4.9652,5.1667,5.271,5.3771,5.5773,5.8408,6.0419,6.0419,6.0758,6.0879,6.0659,5.8404,5.6346,5.6024,5.3941,5.2207,5.1878,5.0716,4.8992,4.6453,4.5656,4.4732,4.2964,4.163,3.986,3.7379,3.5183,3.2773,3.0034,2.8921,2.651,2.2208,2.3034,2.2656,2.0736,2.0469,2.0606,2.1058,2.0591,2.0494,2.0879,2.1867,2.2035,2.162,2.2997,2.3544,0.0,2.4071,2.3733,2.3113,2.3113,2.366,2.4392,2.4392,2.5626,2.7491,2.8356,2.9386,3.03,3.0774,3.2191,3.311,3.0401,2.8352,2.7323,2.8658,2.9788,3.0895,3.2301,3.2589,3.302,3.508,3.4269,3.3062,3.3252,3.2883,3.256,3.256,3.2238,3.1732,3.0798,3.1064,3.1865,3.3242,3.3472,3.463,3.7861,3.8669,3.937,4.0481,3.7463,3.5233,3.4729,3.3165,3.2443,3.3326,3.3232,3.3754,3.476,3.4836,3.5012,3.5197,3.5613,3.586,3.586,3.6671,3.7217,3.7662,3.8199,3.8579,4.9746,5.0251,5.0737,5.1595,5.251,5.365,5.515,5.7432,5.9084,5.8604,5.9063,5.9192,5.7726,5.5697,5.403,5.294,5.1502,4.995,4.8779,4.7935,4.6339,4.3179,4.2844,4.2123,4.0252,3.9438,3.8033,3.5754,3.2869,3.0153,2.7512,2.4698,2.2139,1.9812,1.9711,1.8984,1.7291,1.6925,1.6991,1.7426,1.6868,1.6589,1.6526,1.7364,1.7263,1.6526,1.7943,1.856,0.0,1.9145,1.9045,1.856,1.856,1.8917,1.9567,1.9567,2.081,2.2433,2.323,2.4229,2.52,2.5979,2.5951,2.5375,2.3703,2.3189,2.3474,2.4716,2.5492,2.6326,2.7624,2.8367,2.9043,3.0311,3.0288,2.9955,2.9946,3.0133,3.0267,3.0267,2.9426,2.8438,2.7545,2.7354,2.7795,2.9107,2.96,3.0709,3.319,3.4582,3.5551,3.6086,3.2207,2.9546,2.9328,2.7929,2.7455,2.8436,2.7858,2.7987,2.8981,2.9358,2.9285,2.8748,2.9838,3.0415,3.0415,3.1147,3.1941,3.2909,3.3168,3.3815,5.0512,5.1517,5.2629,5.2768,5.3069,5.3742,5.5314,5.6463,5.6854,5.5721,5.7053,5.7297,5.3928,5.2958,5.1891,4.9557,4.891,4.7761,4.494,4.4358,4.3179,4.0127,3.9628,3.9503,3.9377,3.7672,3.5944,3.4438,3.0541,2.7178,2.4623,2.0822,1.8317,1.7663,1.5676,1.4446,1.4287,1.3765,1.3479,1.3479,1.3099,1.2798,1.2654,1.2865,1.2845,1.2692,1.3989,1.4589,0.0,1.5967,1.5763,1.4589,1.4589,1.4589,1.4589,1.4589,1.6195,1.8317,1.8403,1.9976,2.2039,2.2249,2.0483,1.8531,1.9886,2.0214,2.0479,2.1686,2.2153,2.252,2.3779,2.4322,2.4246,2.317,2.4499,2.588,2.4934,2.6063,2.7341,2.7341,2.6724,2.5898,2.4964,2.474,2.5172,2.6434,2.7299,2.8174,2.9177,3.0878,3.1807,3.0901,2.7613,2.4893,2.3283,2.2948,2.3422,2.4558,2.308,2.2819,2.4079,2.4069,2.3387,2.2019,2.3275,2.4005,2.4005,2.421,2.5394,2.7518,2.6811,2.7573,4.8893,4.9728,5.0866,5.2103,5.233,5.2477,5.3196,5.4741,5.5721,5.4712,5.4499,5.4214,5.3446,5.066,4.8338,4.7754,4.564,4.3796,4.3081,4.1828,4.0354,3.826,3.6749,3.5393,3.4022,3.2251,3.1034,3.066,2.9862,2.6355,1.9937,1.8018,1.6282,1.4493,1.4563,1.3833,1.2351,1.3226,1.3708,1.3708,1.3622,1.284,1.1658,1.2747,1.2462,1.1196,1.2672,1.3197,1.3311,1.3604,1.35,1.3197,1.3197,1.3197,1.3197,1.3197,1.3615,1.4312,1.5299,1.5979,1.6881,1.8987,1.7122,1.4219,1.4437,1.4541,1.4829,1.6093,1.7311,1.8431,1.9764,2.1619,2.3058,2.2804,2.3912,2.499,2.4743,2.4354,2.3969,2.3969,2.3177,2.2198,2.1277,2.1128,2.1363,2.1973,2.2208,2.307,2.5346,2.5981,2.4648,2.0297,1.9739,1.9436,1.8897,1.7596,1.7246,1.8062,1.7641,1.7818,1.8865,1.8686,1.8389,1.8091,1.8389,1.8602,1.8602,2.0649,2.1904,2.2442,2.421,2.5361,4.7676,4.9053,5.0536,5.0604,5.0835,5.1103,5.1354,5.2036,5.2454,5.1908,5.1545,5.0913,4.9416,4.7494,4.5476,4.3985,4.2457,4.1016,4.0274,3.9399,3.7857,3.5247,3.4136,3.2939,3.1102,2.9199,2.7795,2.6757,2.5914,2.3245,1.8199,1.7127,1.5703,1.3349,1.2895,1.2093,1.1069,1.1617,1.189,1.189,1.1838,1.1327,1.0458,1.0322,0.9765,0.8946,0.973,1.0065,1.0065,1.0869,1.1217,1.106,1.106,1.0954,1.0904,1.0904,1.1319,1.1936,1.2529,1.3261,1.3989,1.467,1.3553,1.1945,1.2596,1.2807,1.3007,1.3594,1.4415,1.5139,1.5835,1.7008,1.8002,1.8002,1.8546,1.9181,1.9755,2.0489,2.1148,2.1855,2.1286,2.0324,1.9137,1.8865,1.8732,1.8282,1.8545,1.9063,1.9774,1.9766,1.8698,1.604,1.6151,1.6186,1.5441,1.3793,1.2871,1.3365,1.22,1.208,1.3492,1.3813,1.3893,1.3925,1.4567,1.499,1.499,1.6272,1.7258,1.7933,1.9279,2.0649,4.5676,4.7553,4.9267,4.8198,4.8498,4.9024,4.9029,4.8865,4.8643,4.8319,4.8285,4.7436,4.4881,4.4096,4.313,4.0596,3.9883,3.9063,3.7439,3.6929,3.5397,3.2186,3.151,3.054,2.8752,2.6815,2.4824,2.2918,2.1083,1.9046,1.6834,1.6075,1.4819,1.2751,1.1238,1.0552,1.0552,0.9921,0.9543,0.9543,0.9081,0.8713,0.8671,0.722,0.6599,0.6567,0.6567,0.0,0.6686,0.8002,0.8469,0.8267,0.8267,0.8137,0.805,0.8384,0.8877,0.9677,1.0229,1.1043,1.1531,1.0305,0.9999,1.0205,1.1655,1.2174,1.2174,1.2174,1.227,1.2481,1.2481,1.2596,1.2807,1.2807,1.2807,1.3102,1.4197,1.6208,1.8158,1.9436,1.9136,1.8379,1.7157,1.6948,1.6446,1.5119,1.5706,1.5841,1.4498,1.3465,1.3004,1.3197,1.3226,1.2795,1.1666,1.0185,0.9308,0.9308,0.7498,0.7029,0.8654,0.9303,0.9545,0.9589,1.0765,1.1294,1.1294,1.161,1.2319,1.3304,1.3604,1.5081,4.0827,4.1974,4.335,4.4246,4.4479,4.4611,4.4609,4.5382,4.5892,4.502,4.4276,4.3691,4.3307,4.1859,4.0764,4.0964,3.9295,3.7479,3.6303,3.4333,3.2186,3.0146,2.8367,2.666,2.4629,2.28,2.0961,1.8931,1.7029,1.5103,1.3144,1.2285,1.1789,1.1569,1.0812,1.0552,1.0552,0.8816,0.8017,0.8017,0.6572,0.572,0.5466,0.5218,0.4897,0.4656,0.4656,0.4656,0.4656,0.4894,0.5002,0.4863,0.4863,0.4853,0.5071,0.6603,0.6372,0.5538,0.8367,0.8434,0.7283,0.7048,0.7004,0.7303,0.885,0.9312,0.9312,0.9312,1.0151,1.0985,1.0985,1.1945,1.2807,1.2807,1.2807,1.2912,1.2997,1.3416,1.3834,1.433,1.4361,1.4211,1.3995,1.3995,1.3541,1.2318,1.3373,1.3891,1.2864,0.8838,0.6206,0.6228,0.6395,0.6402,0.6032,0.5751,0.5615,0.5615,0.495,0.4839,0.5447,0.5258,0.5083,0.5087,0.5303,0.541,0.541,0.6676,0.7407,0.7502,0.8755,1.0396,3.6323,3.737,3.8696,3.9821,4.0152,4.051,4.1713,4.1269,4.0893,4.1581,4.1017,4.0093,3.9269,3.8133,3.6986,3.5815,3.3575,3.2044,3.1871,3.093,2.9686,2.8043,2.6239,2.4229,2.2369,2.0525,1.8501,1.6604,1.4681,1.313,1.1926,1.1669,1.0878,0.9596,0.9248,0.866,0.7591,0.6816,0.6376,0.6376,0.5594,0.5172,0.4985,0.3964,0.3431,0.3263,0.0,0.3263,0.3388,0.4391,0.4722,0.4656,0.4656,0.4485,0.4417,0.5135,0.4971,0.4445,0.5965,0.5333,0.4135,0.5004,0.5262,0.5363,0.5978,0.6185,0.6272,0.6274,0.6675,0.7295,0.8139,0.885,0.9497,1.0364,1.0585,1.0258,0.9383,0.9836,1.0547,1.0925,1.1551,1.1562,0.9835,0.947,0.9025,0.7688,0.8024,0.8071,0.6832,0.5359,0.4571,0.4894,0.5016,0.5096,0.5112,0.4162,0.3502,0.3502,0.2523,0.236,0.3345,0.3143,0.3439,0.424,0.424,0.424,0.424,0.4915,0.5253,0.5253,0.5809,0.6977,3.2549,3.3365,3.4261,3.5294,3.5696,3.6312,3.8254,3.7376,3.6596,3.8141,3.7738,3.6638,3.519,3.4378,3.315,3.1082,2.9117,2.7872,2.7921,2.7883,2.7413,2.5856,2.415,2.2357,2.038,1.8501,1.6456,1.454,1.3058,1.1915,1.1101,1.1021,0.9877,0.7556,0.7501,0.6692,0.5288,0.5182,0.498,0.4556,0.4169,0.3908,0.3908,0.2478,0.1826,0.1826,0.1826,0.1826,0.1956,0.3388,0.3735,0.3668,0.3668,0.3493,0.3181,0.3667,0.3526,0.3147,0.3173,0.2449,0.1835,0.3272,0.3746,0.3741,0.4188,0.4298,0.4277,0.4295,0.4267,0.4576,0.5759,0.5926,0.6131,0.7385,0.7635,0.7338,0.6075,0.67,0.7545,0.7829,0.8751,0.8736,0.6479,0.6011,0.5444,0.3925,0.4069,0.3612,0.1883,0.2245,0.2857,0.3536,0.2847,0.2643,0.3212,0.1654,0.0505,0.0505,-0.0743,-0.0976,0.0242,0.0242,0.0603,0.1687,0.1795,0.1795,0.1807,0.1795,0.2146,0.2507,0.2507,0.3588,2.9783,2.9986,3.0123,3.0425,3.113,3.2078,3.3149,3.387,3.4317,3.4533,3.4065,3.3136,3.164,3.08,3.0113,2.9227,2.8342,2.75,2.6481,2.6166,2.5381,2.3515,2.1983,2.038,1.8365,1.6456,1.454,1.2464,1.2321,1.1398,0.94,0.9043,0.7903,0.5853,0.5566,0.5288,0.5291,0.5282,0.4408,0.2605,0.1046,0.0262,0.0262,0.0131,0.0131,0.0131,0.0131,0.0131,0.0131,0.0262,0.0262,0.0261,0.0261,0.0261,0.0391,0.2078,0.1661,0.0251,0.0258,0.013,0.0389,0.1765,0.2248,0.2484,0.3856,0.4298,0.4298,0.4292,0.4289,0.4257,0.4354,0.443,0.4398,0.448,0.4555,0.4507,0.4364,0.4446,0.4486,0.4465,0.4904,0.5107,0.4987,0.498,0.4312,0.2516,0.3452,0.3298,0.0461,-0.1031,-0.126,0.0115,-0.2539,-0.3752,-0.2257,-0.3841,-0.4803,-0.4803,-0.5188,-0.525,-0.4856,-0.5097,-0.5221,-0.5097,-0.4844,-0.4844,-0.5097,-0.4841,-0.3824,-0.2152,-0.2152,-0.0364,2.5153,2.5288,2.5476,2.6277,2.7521,2.8928,3.0872,3.162,3.2078,3.2682,3.2028,3.1036,2.9902,2.8251,2.6812,2.5969,2.3467,2.1498,2.1448,2.0612,1.9842,1.9636,1.823,1.7029,1.6308,1.4391,1.3065,1.2321,1.0946,0.9873,0.9113,0.7826,0.6145,0.4059,0.3961,0.3171,0.1858,0.1827,0.1527,0.0963,0.0271,0.0,0.0,0.0,0.0,0.0,0.0,0.0,0.0,0.0,0.0,0.0,0.0,0.0,0.0131,0.0654,0.052,0.0,0.0,0.0,0.0134,0.0651,0.0774,0.0901,0.1399,0.1522,0.1516,0.1488,0.1479,0.1721,0.2674,0.2907,0.3155,0.4036,0.4324,0.3973,0.3073,0.2913,0.2967,0.3129,0.2445,0.2104,0.322,0.2443,0.1531,0.0868,0.0,-0.1328,-0.3556,-0.434,-0.4471,-0.3948,-0.4953,-0.5417,-0.4876,-0.5327,-0.5763,-0.5763,-0.59,-0.5875,-0.5818,-0.5818,-0.5953,-0.5953,-0.5765,-0.5765,-0.5953,-0.5765,-0.547,-0.4805,-0.4805,-0.4159,2.3359,2.3585,2.3842,2.4071,2.504,2.6362,2.7841,2.8451,2.8975,2.9653,2.9111,2.8125,2.7132,2.562,2.4031,2.236,1.9852,1.8004,1.781,1.721,1.6872,1.7306,1.6125,1.5128,1.5128,1.3351,1.2013,1.1247,0.9873,0.8504,0.7143,0.5772,0.4106,0.2133,0.2101,0.1334,0.0,0.0,0.0,0.0,0.0,0.0,0.0,0.0,-0.0404,-0.1076,-0.1076,-0.1479,-0.2016,-0.1344,-0.1076,-0.0942,-0.0269,0.0,0.0,0.0,-0.0401,-0.1076,-0.1076,-0.0545,0.0,0.0,0.0,0.0,0.0,0.0,0.0,0.0,0.0,0.0261,0.1164,0.1418,0.1681,0.2607,0.2893,0.2643,0.1572,0.148,0.1506,0.1597,0.0813,0.0412,0.148,0.0806,0.0,0.0,-0.1779,-0.3802,-0.5721,-0.6498,-0.66,-0.6051,-0.7069,-0.7524,-0.6969,-0.7442,-0.7758,-0.7758,-0.8519,-0.8523,-0.7762,-0.8519,-0.8558,-0.8,-0.7794,-0.7789,-0.7862,-0.7789,-0.7477,-0.6911,-0.6911,-0.6634,2.4084,2.4921,2.4985,2.3789,2.3722,2.4128,2.4128,2.4753,2.5335,2.5287,2.5287,2.4694,2.3109,2.2868,2.1794,1.8513,1.7913,1.7413,1.5748,1.611,1.651,1.651,1.5694,1.5128,1.5128,1.3358,1.1404,0.9264,0.9108,0.729,0.3352,0.3047,0.2133,0.0,0.0,0.0,0.0,0.0,0.0,0.0,0.0,0.0,0.0,0.0,-0.1133,-0.2968,-0.2968,-0.4098,-0.5648,-0.3813,-0.3109,-0.2968,-0.0991,-0.0142,-0.0141,-0.0138,-0.1528,-0.3258,-0.3252,-0.184,-0.0141,-0.0138,-0.0137,-0.0136,-0.0132,-0.0134,-0.0137,-0.0137,-0.0139,-0.0141,-0.0138,0.0,0.0,0.0,0.0,0.0,0.0,0.0,0.0,0.0,0.0,0.0,-0.0142,-0.0142,-0.0142,-0.0142,-0.1983,-0.3929,-0.5875,-0.7449,-0.7719,-0.6413,-0.9113,-1.0493,-0.8994,-1.0445,-1.144,-1.1446,-1.3403,-1.3719,-1.1593,-1.3553,-1.3731,-1.1873,-1.1586,-1.1586,-1.1873,-1.158,-1.0588,-0.889,-0.889,-0.7912,1.7047,1.8287,1.876,2.0271,2.1669,2.3072,2.4284,2.5554,2.6274,2.5495,2.4321,2.3109,2.1374,2.0193,1.8738,1.6607,1.5357,1.4515,1.4114,1.3419,1.3014,1.3014,1.3105,1.3058,1.3058,1.2615,1.1404,0.9264,0.774,0.5772,0.3199,0.1677,0.061,0.0,0.0,0.0,0.0,0.0,0.0,0.0,0.0,0.0,0.0,0.0,-0.0288,-0.0849,-0.0849,-0.1132,-0.1697,-0.2686,-0.3109,-0.3251,-0.4098,-0.438,-0.4385,-0.4296,-0.4672,-0.5184,-0.529,-0.4862,-0.434,-0.4372,-0.3358,-0.2237,-0.2221,-0.2227,-0.2241,-0.2241,-0.2251,-0.2268,-0.2296,-0.1153,0.0,0.0,0.0,0.0,0.0,0.0,0.0,0.0,0.0,-0.0434,-0.1986,-0.2263,-0.2686,-0.4095,-0.6114,-0.7723,-0.8259,-0.9966,-1.0953,-1.0518,-1.2605,-1.3243,-1.1509,-1.433,-1.5544,-1.424,-1.5931,-1.6816,-1.627,-1.6807,-1.6872,-1.6286,-1.4873,-1.4873,-1.6286,-1.4873,-1.3801,-1.3347,-1.3347,-1.2328,1.1838,1.4113,1.5692,1.7852,1.9038,1.9783,2.0741,2.1763,2.212,2.1306,2.0522,1.9541,1.8555,1.7596,1.6492,1.471,1.3889,1.3227,1.2436,1.1907,1.1722,1.1722,1.1985,1.1862,1.1097,1.094,0.9722,0.684,0.5472,0.3954,0.1982,0.061,0.0,0.0,0.0,0.0,0.0,0.0,-0.0458,-0.1372,-0.1372,-0.1664,-0.2533,-0.2533,-0.2513,-0.2625,-0.3497,-0.437,-0.5097,-0.5536,-0.5097,-0.437,-0.5533,-0.5536,-0.5112,-0.7702,-0.8104,-0.7258,-0.7353,-0.6763,-0.6077,-0.6076,-0.5311,-0.4298,-0.4393,-0.4268,-0.4306,-0.4306,-0.4338,-0.4385,-0.4302,-0.3426,-0.2243,-0.1519,-0.1981,-0.2284,-0.1525,-0.198,-0.2576,-0.254,-0.2533,-0.2966,-0.4091,-0.437,-0.5243,-0.8157,-0.9701,-1.0482,-1.0482,-1.1555,-1.2321,-1.2321,-1.395,-1.4979,-1.4681,-1.6752,-1.7638,-1.6456,-1.8208,-1.8941,-1.807,-1.8795,-1.8941,-1.807,-1.6891,-1.69,-1.807,-1.69,-1.6456,-1.6456,-1.6456,-1.5277,0.7459,1.1254,1.4238,1.6042,1.6085,1.5807,0.0,1.6071,1.5935,1.5575,1.5602,1.5476,1.535,1.5214,1.4728,1.2991,1.305,1.2638,1.1221,1.1432,1.1774,1.1774,1.1857,1.1247,0.9264,0.8957,0.7139,0.3352,0.3047,0.2134,0.0153,0.0,0.0,0.0,0.0,-0.0154,-0.0461,-0.0461,-0.1383,-0.353,-0.3521,-0.4429,-0.6095,-0.6078,-0.6072,-0.6072,-0.8046,-0.9873,-1.1404,-0.9873,-0.8046,-0.6375,-0.6677,-0.5469,-0.4414,-1.0186,-1.1097,-0.9415,-0.9415,-0.8197,-0.6655,-0.6672,-0.6628,-0.6305,-0.631,-0.6364,-0.633,-0.633,-0.6426,-0.6375,-0.6375,-0.6223,-0.5618,-0.3804,-0.4713,-0.5618,-0.3804,-0.4862,-0.6072,-0.6072,-0.6072,-0.6072,-0.6375,-0.6375,-0.7744,-1.1705,-1.2321,-1.2321,-1.2321,-1.2321,-1.2321,-1.2321,-1.395,-1.6011,-1.7923,-1.8511,-1.8658,-1.8365,-2.0245,-2.0536,-1.8805,-2.0391,-2.0536,-1.8805,-1.8511,-1.8511,-1.8658,-1.8511,-1.8365,-1.8365,-1.8365,-1.7481,0.0,0.0,0.0,0.0,0.0,0.0,0.0,1.6897,1.6677,1.5761,1.5602,1.5088,1.3823,1.357,1.3041,1.1522,1.1547,1.1692,1.1517,1.186,1.2084,1.2084,1.0754,0.9571,0.9113,0.7589,0.5621,0.3352,0.3047,0.2134,0.0153,0.0,0.0,0.0,0.0,-0.0968,-0.2735,-0.2896,-0.4021,-0.6272,-0.5995,-0.6095,-0.6559,-0.6125,-0.6072,-0.6072,-0.6526,-0.6829,-0.7286,-0.8655,-0.8957,-0.8655,-1.0331,-0.9722,-0.8353,-1.1247,-1.2013,-1.1705,-1.1705,-1.1404,-1.1085,-1.1042,-0.9959,-0.8589,-0.8552,-0.8566,-0.8599,-0.8599,-0.8472,-0.8504,-0.8504,-0.7286,-0.592,-0.5618,-0.5769,-0.592,-0.5466,-0.5769,-0.6072,-0.6072,-0.6072,-0.6526,-0.8197,-0.8504,-0.9415,-1.1862,-1.2321,-1.2321,-1.2321,-1.2321,-1.2321,-1.2321,-1.395,-1.6011,-1.7923,-2.0995,-2.2154,-2.0536,-2.2286,-2.3175,-2.2743,-2.3175,-2.3175,-2.2743,-2.1274,-2.1262,-2.2743,-2.1117,-2.0391,-2.0391,-2.0391,-2.0245,0.0,0.0,0.0,0.0,0.0,0.0,0.0,0.0,0.0,0.0,0.0,1.2823,1.1937,0.0,1.154,1.0952,1.1095,1.1379,1.1682,1.1979,1.1862,1.0789,0.9722,0.8353,0.6382,0.5169,0.3804,0.1677,0.1542,0.1087,0.0,0.0,0.0,0.0,-0.1138,-0.2285,-0.3422,-0.4724,-0.635,-0.8458,-0.8203,-0.8794,-0.9753,-0.9521,-0.9267,-0.9262,-0.9153,-0.9113,-0.9264,-1.0331,-1.0024,-0.9415,-1.1404,-1.1555,-1.0789,-1.1862,-1.2321,-1.2321,-1.2321,-1.2321,-1.2321,-1.2321,-1.1555,-1.0638,-1.0638,-1.0638,-1.0638,-1.0638,-1.0638,-1.0638,-1.0638,-0.9873,-0.8806,-0.7891,-0.8348,-0.8806,-0.774,-0.8348,-0.9113,-0.9113,-0.9113,-0.9415,-1.0488,-1.0638,-1.1097,-1.2019,-1.2321,-1.2321,-1.2321,-1.3058,-1.3525,-1.2902,-1.5419,-1.7554,-1.8544,-2.1359,-2.2876,-2.2406,-2.3319,-2.3918,-2.3918,-2.3918,-2.3918,-2.3918,-2.3019,-2.2875,-2.3918,-2.2875,-2.2443,-2.2443,-2.2711,-2.2536,0.0,0.0,0.0,0.0,0.0,0.0,0.0,0.0,0.0,0.0,0.0,0.0,0.0,0.0,0.0,1.0898,1.1181,1.1465,1.1768,1.2018,1.1555,0.9873,0.8957,0.729,0.3958,0.2895,0.183,0.0153,0.0,0.0,0.0,0.0,-0.0165,-0.0658,-0.2473,-0.396,-0.4784,-0.6763,-0.8738,-1.0699,0.0,0.0,-1.31,-1.2744,-1.2579,-1.2566,-1.2289,-1.2321,-1.2321,-1.2321,-1.1247,-0.9873,-1.1555,-1.2321,-1.2321,-1.2321,-1.2321,-1.2321,-1.2321,-1.2321,-1.2321,-1.2321,-1.2321,-1.2321,-1.2321,-1.2321,0.0,-1.2321,-1.2321,-1.2321,-1.2321,-1.2321,-1.1862,-1.018,-1.1097,-1.1856,-1.0029,-1.1097,-1.2321,-1.2321,-1.2321,-1.2321,-1.2321,-1.2321,-1.213,-1.2018,-1.2098,-1.2274,-1.2599,-1.4164,-1.4898,-1.443,-1.7404,-1.9614,-1.9614,-2.1235,-2.2698,-2.384,-2.3711,-2.3633,-2.375,-2.375,-2.375,-2.375,-2.375,-2.3802,-2.3918,-2.3918,-2.397,-2.4087,-2.4334,-2.4057,0.0,0.0,0.0,0.0,0.0,0.0,0.0,0.0,0.0,0.0,0.0,0.0,0.0,0.0,0.0,0.0,1.1478,1.1774,1.2078,1.215,1.217,1.1862,0.8655,0.6223,0.5769,0.2435,0.0305,0.0,0.0,0.0,0.0,0.0,0.0,0.0,0.0,-0.5522,-0.9652,-0.9999,-1.1198,-1.3431,-1.3193,-1.3084,-1.3403,-1.2836,-1.2579,-1.2566,-1.2289,-1.2321,-1.2321,-1.2321,-1.2163,-1.1862,-1.217,-1.2321,-1.2321,-1.2321,-1.2321,-1.2321,-1.2321,0.0,0.0,-1.2321,-1.2321,-1.2321,-1.2321,-1.2321,-1.2321,-1.2321,-1.2321,-1.2321,-1.2321,-1.2321,-1.217,-1.2013,-1.2019,-1.217,-1.2013,-1.2019,-1.2321,-1.2321,-1.2321,-1.2321,-1.2321,-1.2321,-1.1992,-1.1458,-1.1827,-1.2712,-1.3812,-1.4717,-1.5837,-1.7348,0.0,0.0,-2.0801,-2.1668,-2.2698,-2.384,-2.2957,-2.2633,-2.3152,-2.3165,-2.3165,-2.3165,-2.3165,-2.3412,-2.3918,-2.3918,-2.4178,-2.4806,-2.3698,-2.384,0.0,0.0,0.0,0.0,0.0,0.0,0.0,0.0,0.0,0.0,0.0,0.0,0.0,0.0,0.0,0.0,1.2075,1.157,1.1867,1.2058,1.1856,1.0633,0.8957,0.6984,0.4561,0.2741,0.1372,0.0153,0.0,0.0,0.0,-0.114,-0.233,-0.3537,-0.594,-0.8227,-1.0416,-1.1801,-1.284,-1.3878,-1.3765,-1.362,-1.3456,-1.3034,-1.2744,-1.2566,-1.2289,-1.2321,-1.2321,-1.2321,-1.2321,0.0,0.0,0.0,0.0,0.0,-1.2321,-1.2321,-1.2321,-1.2321,-1.2321,-1.2321,-1.2321,-1.2321,-1.2321,-1.2321,-1.2321,-1.2321,-1.2321,-1.2321,-1.2321,-1.2321,-1.2321,-1.2321,-1.2321,-1.2321,-1.2321,-1.2321,-1.2321,-1.2321,-1.2321,0.0,-1.2321,-1.2321,-1.2526,-1.3418,-1.3761,-1.4577,-1.6279,-1.768,-1.858,-1.8772,-2.0533,-2.1653,-2.1653,-2.1925,0.0,0.0,0.0,-2.3308,-2.3555,-2.3568,0.0,0.0,0.0,-2.3022,-2.2932,-2.2932,0.0,0.0,-2.3435,-2.3827,0.0,0.0,0.0,0.0,0.0,0.0,0.0,0.0,0.0,0.0,0.0,0.0,0.0,0.0,0.0,0.0,1.2395,1.1613,1.2253,1.2194,1.1591,1.0075,0.9374,0.7727,0.4223,0.3339,0.2287,0.0153,0.0,0.0,0.0,-0.1934,-0.3448,-0.4337,-0.7834,-1.0241,-1.1261,-1.2789,-1.3686,-1.3765,-1.3686,-1.3581,-1.3456,-1.3159,-1.2862,-1.2572,-1.2368,-1.2236,-1.2321,-1.2321,-1.2321,-1.2321,-1.2321,-1.2321,-1.2321,-1.2321,-1.2321,-1.2321,-1.2321,-1.2321,-1.2321,-1.2321,-1.2321,-1.2321,-1.2321,-1.2321,-1.2321,-1.2321,-1.2321,-1.2321,-1.2321,-1.2321,-1.2321,-1.2321,-1.2321,-1.2321,-1.2321,-1.2321,-1.2321,-1.2321,-1.2321,-1.2321,-1.2321,-1.2765,-1.3442,-1.4711,-1.543,-1.667,-1.8468,-2.008,-2.0887,-2.0858,-2.193,-2.2737,-2.2906,-2.2477,-2.2698,-2.384,-2.362,-2.3659,-2.4126,-2.3853,-2.4034,-2.4607,-2.4185,-2.3321,0.0,0.0,0.0,0.0,0.0,0.0,0.0,0.0,0.0,0.0,0.0,0.0,0.0,0.0,0.0,0.0,0.0,0.0,0.0,0.0,0.0,0.0,0.0,0.0,1.3836,1.2721,1.159,1.1583,1.018,0.8126,0.574,0.4054,0.2287,0.0153,0.0,0.0,0.0,-0.1934,-0.4073,-0.6193,-0.8475,-1.0597,-1.2892,-1.3053,-1.3199,-1.3475,-1.3185,-1.3199,-1.3456,-1.3159,-1.2862,-1.2579,-1.2572,-1.2414,-1.2321,-1.2321,-1.2321,-1.2321,-1.2321,-1.2321,-1.2321,-1.2321,-1.2321,-1.2321,-1.2321,-1.2321,-1.2321,-1.2321,-1.2321,-1.2321,-1.2321,-1.2321,-1.2321,-1.2321,-1.2321,-1.2321,-1.2321,-1.2321,-1.2321,-1.2321,-1.2321,-1.2321,-1.2321,-1.2321,-1.2321,-1.2321,-1.2321,-1.2321,-1.2321,-1.38,-1.4881,-1.4298,-1.6376,0.0,-1.9943,-2.066,-2.1885,-2.4485,-2.4191,-2.4087,-2.4793,-2.3165,-2.2698,-2.384,-2.288,-2.3009,-2.4832,-2.3685,-2.4171,-2.6563,-2.5956,-2.4527,-2.2204,0.0,0.0,0.0,0.0,0.0,0.0,0.0,0.0,0.0,0.0,0.0,0.0,0.0,0.0,0.0,0.0,0.0,0.0,0.0,0.0,0.0,0.0,0.0,0.0,1.3561,1.2851,1.186,1.1216,0.94,0.602,0.5123,0.3418,0.0298,0.0,0.0,0.0,-0.202,-0.4238,-0.6522,-0.8436,-1.0585,-1.3027,-1.3027,-1.3172,-1.3469,-1.3363,-1.337,-1.3462,-1.3363,-1.3159,-1.2875,-1.2875,-1.2823,-1.2717,-1.2519,-1.2335,-1.2321,-1.2321,-1.2321,-1.2321,-1.2321,-1.2321,-1.2321,-1.2321,-1.2321,-1.2321,-1.2321,-1.2321,-1.2321,-1.2321,-1.2321,-1.2321,-1.2321,-1.2321,-1.2321,-1.2321,-1.2321,-1.2321,-1.2321,-1.2321,-1.2321,-1.2321,-1.2321,-1.2321,-1.2321,-1.3358,-1.3946,-1.3201,-1.5236,-1.7196,-1.7431,-1.8911,-2.0827,-2.3031,-2.3502,-2.4104,-2.5308,-2.5204,-2.5165,-2.536,-2.484,-2.4672,-2.5061,-2.5998,-2.6744,-2.7377,-2.8437,-2.9304,-3.0115,-2.9896,-2.849,-2.5697,0.0,0.0,0.0,0.0,0.0,0.0,0.0,0.0,0.0,0.0,0.0,0.0,0.0,0.0,0.0,0.0,0.0,0.0,0.0,0.0,0.0,0.0,0.0,0.0,0.0,0.0,1.2542,1.1944,0.0,0.6085,0.5588,0.4054,0.029,0.0,0.0,0.0,-0.2707,-0.486,-0.6366,-0.9012,-1.1278,-1.2717,-1.2717,-1.2862,-1.3152,-1.3152,-1.3212,-1.3317,-1.3423,-1.3304,-1.3034,-1.3139,-1.306,-1.2849,-1.2658,-1.2421,-1.2157,-1.2051,-1.1946,-1.1867,-1.1972,-1.2012,-1.2025,-1.213,-1.2321,-1.2321,-1.2321,-1.2025,-1.1854,-1.1854,-1.1709,-1.159,-1.1794,-1.1854,-1.19,-1.2117,-1.2321,-1.2321,-1.2321,-1.2321,-1.2321,-1.2321,-1.2321,-1.2137,-1.2032,-1.3621,-1.4589,-1.3569,-1.6232,-1.8674,-1.9161,-2.073,-2.2562,-2.4672,-2.4957,-2.5321,-2.5918,-2.5801,-2.5762,-2.5957,-2.5788,-2.5684,-2.5684,-2.7591,-2.886,-2.9094,-3.0946,-3.2003,-3.2354,-3.1108,-2.9709,0.0,0.0,0.0,0.0,0.0,0.0,0.0,0.0,0.0,0.0,0.0,0.0,0.0,0.0,0.0,0.0,0.0,0.0,0.0,0.0,0.0,0.0,0.0,0.0,0.0,0.0,0.0,1.3557,1.2492,0.0,0.0,0.0,0.0,0.0424,0.0,0.0,0.0,-0.3663,-0.5772,-0.6055,-0.9857,-1.2006,-1.217,-1.2321,-1.2308,-1.2579,-1.2592,-1.2757,-1.3053,-1.335,-1.3337,-1.308,-1.335,-1.3146,-1.2625,-1.2579,-1.2394,-1.2117,-1.1814,-1.1524,-1.1313,-1.1596,-1.1695,-1.1742,-1.2045,-1.2144,-1.2144,-1.2117,-1.1722,-1.1247,-1.1208,-1.0812,0.0,0.0,-1.1214,-1.1353,-1.1966,-1.2124,-1.213,-1.2314,-1.2321,-1.2163,-1.215,-1.2144,-1.2051,0.0,-1.3382,-1.438,-1.3678,0.0,-1.9206,-1.916,-2.147,-2.3438,-2.4728,-2.5308,-2.5944,-2.6502,-2.6087,-2.5983,-2.6356,-2.6074,-2.5762,-2.5917,-2.7827,-2.929,-3.0062,-3.1496,-3.2532,-3.3273,-3.0224,0.0,0.0,0.0,0.0,0.0,0.0,0.0,0.0,0.0,0.0,0.0,0.0,0.0,0.0,0.0,0.0,0.0,0.0,0.0,0.0,0.0,0.0,0.0,0.0,0.0,0.0,1.6406,1.4332,1.1898,1.1309,1.0007,0.0,0.0,0.0,0.0,0.0,0.0,0.0,-0.1001,-0.2888,-0.5916,-0.7104,-0.9108,-1.217,-1.2321,-1.2308,-1.2585,-1.2803,-1.3067,-1.3363,-1.3647,-1.3733,-1.3653,-1.3522,-1.3383,-1.3192,-1.2546,-1.2098,-1.1807,-1.1504,-1.1346,-1.1287,-1.1359,-1.1392,-1.1432,-1.1735,-1.1834,-1.1768,-1.1339,-1.1095,-1.0852,-1.0199,0.0,0.0,0.0,0.0,-1.0489,-1.13,-1.1504,-1.1616,-1.2065,-1.2321,-1.2111,-1.188,-1.1834,-1.1971,0.0,-1.4314,-1.5364,-1.4721,0.0,0.0,-1.8347,-2.0593,-2.2841,-2.3983,-2.5399,-2.6528,-2.71,-2.7035,-2.7009,-2.7152,-2.7022,-2.7562,-2.9108,-3.1292,-3.3245,-3.4977,-3.5696,-3.6315,-3.6746,0.0,0.0,0.0,0.0,0.0,0.0,0.0,0.0,0.0,0.0,0.0,0.0,0.0,0.0,0.0,0.0,0.0,0.0,0.0,0.0,0.0,0.0,0.0,0.0,0.0,0.0,0.0,1.7894,1.529,1.3336,1.179,0.985,0.0,0.0,0.0,0.0,0.0,0.0,0.0,0.0,0.0,-0.4616,-0.6343,-0.8457,-1.0916,-1.1669,-1.2117,-1.2401,-1.2691,-1.2922,-1.3086,-1.337,-1.3508,-1.3495,-1.3344,-1.3133,-1.2856,-1.2229,-1.1728,-1.1333,0.0,0.0,0.0,0.0,-1.0904,-1.0931,-1.1095,-1.1155,-1.1076,-1.0621,0.0,0.0,0.0,0.0,0.0,0.0,0.0,0.0,0.0,0.0,-1.1247,-1.1834,-1.1873,-1.1735,-1.1564,-1.1128,-1.1069,0.0,-1.3782,-1.4847,-1.404,0.0,0.0,0.0,0.0,-2.2347,-2.3737,-2.5658,-2.7022,-2.7346,-2.7385,-2.7385,-2.7385,-2.8164,-2.9262,-3.0525,-3.3379,-3.5439,-3.6358,-3.7203,-3.7405,0.0,0.0,0.0,0.0,0.0,0.0,0.0,0.0,0.0,0.0,0.0,0.0,0.0,0.0,0.0,0.0,0.0,0.0,0.0,0.0,0.0,0.0,0.0,0.0,0.0,0.0,0.0,0.0,0.0,1.6368,1.5669,0.0,0.0,0.0,0.0,0.0,0.0,0.0,0.0,0.0,0.0,0.0,0.0,0.0,-0.827,-0.8781,-1.0135,-1.1163,-1.1862,-1.2139,-1.2423,-1.2592,-1.2849,-1.2988,-1.3014,-1.2823,0.0,-1.2032,-1.1735,0.0,0.0,0.0,0.0,0.0,0.0,0.0,0.0,0.0,0.0,0.0,0.0,0.0,0.0,0.0,0.0,0.0,0.0,0.0,0.0,0.0,0.0,-1.0289,-1.0937,-1.1039,-1.0821,0.0,-1.01,-0.9764,-1.0917,-1.2559,0.0,0.0,0.0,0.0,0.0,0.0,0.0,-2.308,-2.5415,-2.6967,-2.7372,-2.7385,-2.7385,-2.7385,-2.9262,-3.0671,-3.0832,-3.4373,-3.6247,-3.5708,-3.689,0.0,0.0,0.0,0.0,0.0,0.0,0.0,0.0,0.0,0.0,0.0,0.0,0.0,0.0,0.0,0.0,0.0,0.0,0.0,0.0,0.0,0.0,0.0,0.0,0.0,0.0,0.0,0.0,0.0,0.0,0.0,0.0,0.0,0.0,0.0,0.0,0.0,0.0,0.0,0.0,0.0,0.0,0.0,0.0,0.0,0.0,0.0,0.0,0.0,0.0,-0.996,-1.1014,-1.2585,-1.2638,-1.279,-1.2961,-1.1761,-1.1313,-1.1412,-1.1128,0.0,0.0,0.0,0.0,0.0,0.0,0.0,0.0,0.0,0.0,0.0,0.0,0.0,0.0,0.0,0.0,0.0,0.0,0.0,0.0,0.0,0.0,0.0,0.0,-0.8467,-0.8384,-0.8398,0.0,0.0,0.0,0.0,0.0,0.0,0.0,0.0,0.0,0.0,0.0,-2.0034,-2.2668,-2.5026,-2.7157,-2.7385,-2.7385,-2.7385,-2.9262,-3.1312,-3.2904,-3.3567,-3.4383,0.0,0.0,0.0,0.0,0.0,0.0,0.0,0.0,0.0,0.0,0.0,0.0,0.0,0.0,0.0,0.0,0.0,0.0,0.0,0.0,0.0,0.0,0.0,0.0,0.0,0.0,0.0,0.0,0.0,0.0,0.0,0.0,0.0,0.0,0.0,0.0,0.0,0.0,0.0,0.0,0.0,0.0,0.0,0.0,0.0,0.0,0.0,0.0,0.0,0.0,0.0,0.0,0.0,0.0,0.0,0.0,0.0,0.0,0.0,-0.9821,0.0,0.0,0.0,0.0,0.0,0.0,0.0,0.0,0.0,0.0,0.0,0.0,0.0,0.0,0.0,0.0,0.0,0.0,0.0,0.0,0.0,0.0,0.0,0.0,0.0,0.0,0.0,0.0,0.0,0.0,0.0,0.0,0.0,0.0,0.0,0.0,0.0,0.0,0.0,0.0,-1.8826,-2.1563,-2.4176,-2.6705,-2.7204,-2.7385,-2.7385,-3.0379,-3.1965,-3.1655,-3.3564,0.0,0.0,0.0,0.0,0.0,0.0,0.0,0.0,0.0,0.0,0.0,0.0,0.0,0.0,0.0,0.0,0.0,0.0,0.0,0.0,0.0,0.0,0.0,0.0,0.0,0.0,0.0,0.0,0.0,0.0,0.0,0.0,0.0,0.0,0.0,0.0,0.0,0.0,0.0,0.0,0.0,0.0,0.0,0.0,0.0,0.0,0.0,0.0,0.0,0.0,0.0,0.0,0.0,0.0,0.0,0.0,0.0,0.0,0.0,-0.7713,0.0,0.0,0.0,0.0,0.0,0.0,0.0,0.0,0.0,0.0,0.0,0.0,0.0,0.0,0.0,0.0,0.0,0.0,0.0,0.0,0.0,0.0,0.0,0.0,0.0,0.0,0.0,0.0,0.0,0.0,0.0,0.0,0.0,0.0,0.0,0.0,0.0,0.0,0.0,0.0,0.0,-1.68,-2.022,-2.3194,-2.5631,-2.6698,-2.7536,-2.8014,-3.1487,-3.278,-3.0805,-3.3568,0.0,0.0,0.0,0.0,0.0,0.0,0.0,0.0,0.0,0.0,0.0,0.0,0.0,0.0,0.0,0.0,0.0,0.0,0.0,0.0,0.0,0.0,0.0,0.0,0.0,0.0,0.0,0.0,0.0,0.0,0.0,0.0,0.0,0.0,0.0,0.0,0.0,0.0,0.0,0.0,0.0,0.0,0.0,0.0,0.0,0.0,0.0,0.0,0.0,0.0,0.0,0.0,0.0,0.0,0.0,0.0,0.0,0.0,0.0,0.0,0.0,0.0,0.0,0.0,0.0,0.0,0.0,0.0,0.0,0.0,0.0,0.0,0.0,0.0,0.0,0.0,0.0,0.0,0.0,0.0,0.0,0.0,0.0,0.0,0.0,0.0,0.0,0.0,0.0,0.0,0.0,0.0,0.0,0.0,0.0,0.0,0.0,0.0,0.0,0.0,0.0,-1.185,-1.6646,-2.0621,-2.3473,-2.6035,-2.8164,-3.0056,-3.2269,-3.3408,-3.2831,0.0,0.0,0.0,0.0,0.0,0.0,0.0,0.0,0.0,0.0,0.0,0.0,0.0,0.0,0.0,0.0,0.0,0.0,0.0,0.0,0.0,0.0,0.0,0.0,0.0,0.0,0.0,0.0,0.0,0.0,0.0,0.0,0.0,0.0,0.0,0.0,0.0,0.0,0.0,0.0,0.0,0.0,0.0,0.0,0.0,0.0,0.0,0.0,0.0,0.0,0.0,0.0,0.0,0.0,0.0,0.0,0.0,0.0,0.0,0.0,0.0,0.0,0.0,0.0,0.0,0.0,0.0,0.0,0.0,0.0,0.0,0.0,0.0,0.0,0.0,0.0,0.0,0.0,0.0,0.0,0.0,0.0,0.0,0.0,0.0,0.0,0.0,0.0,0.0,0.0,0.0,0.0,0.0,0.0,0.0,0.0,0.0,0.0,0.0,0.0,0.0,0.0,-1.0353,-1.5412,-2.0024,-2.3938,-2.5821,-2.7777,-3.0321,-3.2042,-3.2642,-3.1958,0.0,0.0,0.0,0.0,0.0,0.0,0.0,0.0,0.0,0.0,0.0,0.0,0.0,0.0,0.0,0.0,0.0,0.0,0.0,0.0,0.0,0.0,0.0,0.0,0.0,0.0,0.0,0.0,0.0,0.0,0.0,0.0,0.0,0.0,0.0,0.0,0.0,0.0,0.0,0.0,0.0,0.0,0.0,0.0,0.0,0.0,0.0,0.0,0.0,0.0,0.0,0.0,0.0,0.0,0.0,0.0,0.0,0.0,0.0,0.0,0.0,0.0,0.0,0.0,0.0,0.0,0.0,0.0,0.0,0.0,0.0,0.0,0.0,0.0,0.0,0.0,0.0,0.0,0.0,0.0,0.0,0.0,0.0,0.0,0.0,0.0,0.0,0.0,0.0,0.0,0.0,0.0,0.0,0.0,0.0,0.0,0.0,0.0,0.0,0.0,0.0,0.0,-0.7758,-1.3641,-1.8795,-2.2612,-2.5388,-2.8104,-3.0529,-3.2129,-3.2633,-3.1707,0.0,0.0,0.0,0.0,0.0,0.0,0.0,0.0,0.0,0.0,0.0,0.0,0.0,0.0,0.0,0.0,0.0,0.0,0.0,0.0,0.0,0.0,0.0,0.0,0.0,0.0,0.0,0.0,0.0,0.0,0.0,0.0,0.0,0.0,0.0,0.0,0.0,0.0,0.0,0.0,0.0,0.0,0.0,0.0,0.0,0.0,0.0,0.0,0.0,0.0,0.0,0.0,0.0,0.0,0.0,0.0,0.0,0.0,0.0,0.0,0.0,0.0,0.0,0.0,0.0,0.0,0.0,0.0,0.0,0.0,0.0,0.0,0.0,0.0,0.0,0.0,0.0,0.0,0.0,0.0,0.0,0.0,0.0,0.0,0.0,0.0,0.0,0.0,0.0,0.0,0.0,0.0,0.0,0.0,0.0,0.0,0.0,0.0,0.0,0.0,0.0,0.0,-0.2822,-1.0436,-1.6187,-1.8295,-2.4406,-2.9209,-3.1265,-3.3226,-3.4003,0.0,0.0,0.0,0.0,0.0,0.0,0.0,0.0,0.0,0.0,0.0,0.0,0.0,0.0,0.0,0.0,0.0,0.0,0.0,0.0,0.0,0.0,0.0,0.0,0.0,0.0,0.0,0.0,0.0,0.0,0.0,0.0,0.0,0.0,0.0,0.0,0.0,0.0,0.0,0.0,0.0,0.0,0.0,0.0,0.0,0.0,0.0,0.0,0.0,0.0,0.0,0.0,0.0,0.0,0.0,0.0,0.0,0.0,0.0,0.0,0.0,0.0,0.0,0.0,0.0,0.0,0.0,0.0,0.0,0.0,0.0,0.0,0.0,0.0,0.0,0.0,0.0,0.0,0.0,0.0,0.0,0.0,0.0,0.0,0.0,0.0,0.0,0.0,0.0,0.0,0.0,0.0,0.0,0.0,0.0,0.0,0.0,0.0,0.0,0.0,0.0,0.0,0.0,0.023,-0.8981,-1.6188,-1.9531,-2.3591,-2.7548,-3.1201,-3.1547,-3.2391,-3.418,0.0,0.0,0.0,0.0,0.0,0.0,0.0,0.0,0.0,0.0,0.0,0.0,0.0,0.0,0.0,0.0,0.0,0.0,0.0,0.0,0.0,0.0,0.0,0.0,0.0,0.0,0.0,0.0,0.0,0.0,0.0,0.0,0.0,0.0,0.0,0.0,0.0,0.0,0.0,0.0,0.0,0.0,0.0,0.0,0.0,0.0,0.0,0.0,0.0,0.0,0.0,0.0,0.0,0.0,0.0,0.0,0.0,0.0,0.0,0.0,0.0,0.0,0.0,0.0,0.0,0.0,0.0,0.0,0.0,0.0,0.0,0.0,0.0,0.0,0.0,0.0,0.0,0.0,0.0,0.0,0.0,0.0,0.0,0.0,0.0,0.0,0.0,0.0,0.0,0.0,0.0,0.0,0.0,0.0,0.0,0.0,0.0,0.0,0.0,0.0,0.0,0.0,0.0,-0.508,-1.2844,-1.6588,-2.1163,-2.5589,-2.9644,-3.0123,-3.1409,-3.4211,0.0,0.0,0.0,0.0,0.0,0.0,0.0,0.0,0.0,0.0,0.0,0.0,0.0,0.0,0.0,0.0,0.0,0.0,0.0,0.0,0.0,0.0,0.0,0.0,0.0,0.0,0.0,0.0,0.0,0.0,0.0,0.0,0.0,0.0,0.0,0.0,0.0,0.0,0.0,0.0,0.0,0.0,0.0,0.0,0.0,0.0,0.0,0.0,0.0,0.0,0.0,0.0,0.0,0.0,0.0,0.0,0.0,0.0,0.0,0.0,0.0,0.0,0.0,0.0,0.0,0.0,0.0,0.0,0.0,0.0,0.0,0.0,0.0,0.0,0.0,0.0,0.0,0.0,0.0,0.0,0.0,0.0,0.0,0.0,0.0,0.0,0.0,0.0,0.0,0.0,0.0,0.0,0.0,0.0,0.0,0.0,0.0,0.0,0.0,0.0,0.0,0.0,0.0,0.0852,-0.6736,-1.0725,-1.7878,-2.3655,-2.7116,-2.9026,-3.117,-3.3764,-3.3344,0.0,0.0,0.0,0.0,0.0,0.0,0.0,0.0,0.0,0.0,0.0,0.0,0.0,0.0,0.0,0.0,0.0,0.0,0.0,0.0,0.0,0.0,0.0,0.0,0.0,0.0,0.0,0.0,0.0,0.0,0.0,0.0,0.0,0.0,0.0,0.0,0.0,0.0,0.0,0.0,0.0,0.0,0.0,0.0,0.0,0.0,0.0,0.0,0.0,0.0,0.0,0.0,0.0,0.0,0.0,0.0,0.0,0.0,0.0,0.0,0.0,0.0,0.0,0.0,0.0,0.0,0.0,0.0,0.0,0.0,0.0,0.0,0.0,0.0,0.0,0.0,0.0,0.0,0.0,0.0,0.0,0.0,0.0,0.0,0.0,0.0,0.0,0.0,0.0,0.0,0.0,0.0,0.0,0.0,0.0,0.0,0.0,0.0,0.0,0.0,0.0,0.0,0.8459,-0.1324,-1.0106,-1.6607,-2.2259,-2.6988,-2.8798,-3.1195,-3.4604,-3.5924,0.0,0.0,0.0,0.0,0.0,0.0,0.0,0.0,0.0,0.0,0.0,0.0,0.0,0.0,0.0,0.0,0.0,0.0,0.0,0.0,0.0,0.0,0.0,0.0,0.0,0.0,0.0,0.0,0.0,0.0,0.0,0.0,0.0,0.0,0.0,0.0,0.0,0.0,0.0,0.0,0.0,0.0,0.0,0.0,0.0,0.0,0.0,0.0,0.0,0.0,0.0,0.0,0.0,0.0,0.0,0.0,0.0,0.0,0.0,0.0,0.0,0.0,0.0,0.0,0.0,0.0,0.0,0.0,0.0,0.0,0.0,0.0,0.0,0.0,0.0,0.0,0.0,0.0,0.0,0.0,0.0,0.0,0.0,0.0,0.0,0.0,0.0,0.0,0.0,0.0,0.0,0.0,0.0,0.0,0.0,0.0,0.0,0.0,0.0,0.0,0.0,0.0,1.9067,0.9128,-0.4604,-1.3131,-2.0179,-2.5915,-2.825,-3.1374,-3.5932,-3.9816,0.0,0.0,0.0,0.0,0.0,0.0,0.0,0.0,0.0,0.0,0.0,0.0,0.0,0.0,0.0,0.0,0.0,0.0,0.0,0.0,0.0,0.0,0.0,0.0,0.0,0.0,0.0,0.0,0.0,0.0,0.0,0.0,0.0,0.0,0.0,0.0,0.0,0.0,0.0,0.0,0.0,0.0,0.0,0.0,0.0,0.0,0.0,0.0,0.0,0.0,0.0,0.0,0.0,0.0,0.0,0.0,0.0,0.0,0.0,0.0,0.0,0.0,0.0,0.0,0.0,0.0,0.0,0.0,0.0,0.0,0.0,0.0,0.0,0.0,0.0,0.0,0.0,0.0,0.0,0.0,0.0,0.0,0.0,0.0,0.0,0.0,0.0,0.0,0.0,0.0,0.0,0.0,0.0,0.0,0.0,0.0,0.0,0.0,0.0,0.0,0.0,0.0,0.0,2.1052,0.4599,-0.8145,-1.8137,-2.46,-2.8174,-3.2449,-3.7984,0.0,0.0,0.0,0.0,0.0,0.0,0.0,0.0,0.0,0.0,0.0,0.0,0.0,0.0,0.0,0.0,0.0,0.0,0.0,0.0,0.0,0.0,0.0,0.0,0.0,0.0,0.0,0.0,0.0,0.0,0.0,0.0,0.0,0.0,0.0,0.0,0.0,0.0,0.0,0.0,0.0,0.0,0.0,0.0,0.0,0.0,0.0,0.0,0.0,0.0,0.0,0.0,0.0,0.0,0.0,0.0,0.0,0.0,0.0,0.0,0.0,0.0,0.0,0.0,0.0,0.0,0.0,0.0,0.0,0.0,0.0,0.0,0.0,0.0,0.0,0.0,0.0,0.0,0.0,0.0,0.0,0.0,0.0,0.0,0.0,0.0,0.0,0.0,0.0,0.0,0.0,0.0,0.0,0.0,0.0,0.0,0.0,0.0,0.0,0.0,0.0,0.0,0.0,0.0,2.9084,1.8106,-0.2388,-1.7818,-2.4419,-3.0674,-3.6481,-4.1629,0.0,0.0,0.0,0.0,0.0,0.0,0.0,0.0,0.0,0.0,0.0,0.0,0.0,0.0]}]]]